<?xml version="1.0" encoding="UTF-8" standalone="no" ?>
<gpx xmlns="http://www.topografix.com/GPX/1/1" xmlns:xsi="http://www.w3.org/2001/XMLSchema-instance" xsi:schemaLocation="http://www.topografix.com/GPX/1/1 http://www.topografix.com/GPX/1/1/gpx.xsd" version="1.1" creator="VisuGPX - https://www.visugpx.com">
  <metadata>
    <name>80 kms rando du Débarquement</name>
  </metadata>
  <trk>
    <name><![CDATA[Debarquement]]></name>
    <trkseg>
      <trkpt lat="49.31676" lon="-0.35748">
        <ele>10.76735622373</ele>
        <time>2022-02-03T09:49:23.000Z</time>
      </trkpt>
      <trkpt lat="49.31668" lon="-0.35721">
        <ele>10.83480315757</ele>
        <time>2022-02-03T09:49:23.003Z</time>
      </trkpt>
      <trkpt lat="49.31668" lon="-0.35721">
        <ele>10.95450763865</ele>
        <time>2022-02-03T09:49:23.006Z</time>
      </trkpt>
      <trkpt lat="49.31667" lon="-0.35707">
        <ele>11.08439299561</ele>
        <time>2022-02-03T09:49:23.011Z</time>
      </trkpt>
      <trkpt lat="49.31667" lon="-0.35707">
        <ele>11.19922031393</ele>
        <time>2022-02-03T09:49:23.016Z</time>
      </trkpt>
      <trkpt lat="49.31665" lon="-0.35708">
        <ele>11.29459310428</ele>
        <time>2022-02-03T09:49:23.021Z</time>
      </trkpt>
      <trkpt lat="49.31662" lon="-0.35706">
        <ele>11.37933217285</ele>
        <time>2022-02-03T09:49:23.026Z</time>
      </trkpt>
      <trkpt lat="49.31662" lon="-0.35702">
        <ele>11.45922888018</ele>
        <time>2022-02-03T09:49:23.032Z</time>
      </trkpt>
      <trkpt lat="49.31662" lon="-0.35702">
        <ele>11.53258470888</ele>
        <time>2022-02-03T09:49:23.038Z</time>
      </trkpt>
      <trkpt lat="49.31664" lon="-0.35698">
        <ele>11.60469932492</ele>
        <time>2022-02-03T09:49:23.044Z</time>
      </trkpt>
      <trkpt lat="49.31646" lon="-0.35619">
        <ele>11.68625049123</ele>
        <time>2022-02-03T09:49:23.059Z</time>
      </trkpt>
      <trkpt lat="49.31646" lon="-0.35619">
        <ele>11.75486888399</ele>
        <time>2022-02-03T09:49:23.074Z</time>
      </trkpt>
      <trkpt lat="49.31602" lon="-0.35407">
        <ele>11.85763477578</ele>
        <time>2022-02-03T09:49:23.112Z</time>
      </trkpt>
      <trkpt lat="49.31599" lon="-0.35376">
        <ele>11.94164947613</ele>
        <time>2022-02-03T09:49:23.154Z</time>
      </trkpt>
      <trkpt lat="49.31599" lon="-0.3535">
        <ele>11.98711507481</ele>
        <time>2022-02-03T09:49:23.198Z</time>
      </trkpt>
      <trkpt lat="49.31599" lon="-0.3535">
        <ele>11.99356856085</ele>
        <time>2022-02-03T09:49:23.242Z</time>
      </trkpt>
      <trkpt lat="49.31599" lon="-0.35342">
        <ele>11.96269747375</ele>
        <time>2022-02-03T09:49:23.287Z</time>
      </trkpt>
      <trkpt lat="49.31599" lon="-0.35342">
        <ele>11.89866040311</ele>
        <time>2022-02-03T09:49:23.332Z</time>
      </trkpt>
      <trkpt lat="49.31603" lon="-0.35316">
        <ele>11.80353743579</ele>
        <time>2022-02-03T09:49:23.380Z</time>
      </trkpt>
      <trkpt lat="49.31634" lon="-0.35174">
        <ele>11.61038148074</ele>
        <time>2022-02-03T09:49:23.444Z</time>
      </trkpt>
      <trkpt lat="49.31651" lon="-0.35099">
        <ele>11.42990011728</ele>
        <time>2022-02-03T09:49:23.516Z</time>
      </trkpt>
      <trkpt lat="49.31651" lon="-0.35099">
        <ele>11.26250404365</ele>
        <time>2022-02-03T09:49:23.588Z</time>
      </trkpt>
      <trkpt lat="49.31675" lon="-0.34994">
        <ele>11.10783898455</ele>
        <time>2022-02-03T09:49:23.672Z</time>
      </trkpt>
      <trkpt lat="49.31675" lon="-0.34994">
        <ele>10.97607775163</ele>
        <time>2022-02-03T09:49:23.756Z</time>
      </trkpt>
      <trkpt lat="49.31684" lon="-0.34976">
        <ele>10.86737403797</ele>
        <time>2022-02-03T09:49:23.842Z</time>
      </trkpt>
      <trkpt lat="49.31688" lon="-0.34964">
        <ele>10.78058683846</ele>
        <time>2022-02-03T09:49:23.929Z</time>
      </trkpt>
      <trkpt lat="49.31683" lon="-0.34955">
        <ele>10.69909805735</ele>
        <time>2022-02-03T09:49:24.018Z</time>
      </trkpt>
      <trkpt lat="49.31683" lon="-0.34947">
        <ele>10.63110784738</ele>
        <time>2022-02-03T09:49:24.108Z</time>
      </trkpt>
      <trkpt lat="49.31689" lon="-0.3494">
        <ele>10.57634625794</ele>
        <time>2022-02-03T09:49:24.199Z</time>
      </trkpt>
      <trkpt lat="49.31688" lon="-0.34931">
        <ele>10.52496628446</ele>
        <time>2022-02-03T09:49:24.291Z</time>
      </trkpt>
      <trkpt lat="49.31688" lon="-0.34931">
        <ele>10.44799250284</ele>
        <time>2022-02-03T09:49:24.383Z</time>
      </trkpt>
      <trkpt lat="49.31688" lon="-0.34931">
        <ele>10.41368445184</ele>
        <time>2022-02-03T09:49:24.475Z</time>
      </trkpt>
      <trkpt lat="49.31687" lon="-0.34919">
        <ele>10.36951217266</ele>
        <time>2022-02-03T09:49:24.568Z</time>
      </trkpt>
      <trkpt lat="49.31664" lon="-0.3487">
        <ele>10.30128525275</ele>
        <time>2022-02-03T09:49:24.667Z</time>
      </trkpt>
      <trkpt lat="49.31664" lon="-0.3487">
        <ele>10.24731431872</ele>
        <time>2022-02-03T09:49:24.766Z</time>
      </trkpt>
      <trkpt lat="49.31623" lon="-0.34781">
        <ele>10.18754743743</ele>
        <time>2022-02-03T09:49:24.877Z</time>
      </trkpt>
      <trkpt lat="49.31565" lon="-0.34653">
        <ele>10.1467708543</ele>
        <time>2022-02-03T09:49:25.004Z</time>
      </trkpt>
      <trkpt lat="49.31557" lon="-0.34633">
        <ele>10.09466750295</ele>
        <time>2022-02-03T09:49:25.133Z</time>
      </trkpt>
      <trkpt lat="49.31549" lon="-0.34618">
        <ele>10.02297026644</ele>
        <time>2022-02-03T09:49:25.264Z</time>
      </trkpt>
      <trkpt lat="49.31544" lon="-0.34607">
        <ele>9.93692696819</ele>
        <time>2022-02-03T09:49:25.397Z</time>
      </trkpt>
      <trkpt lat="49.31508" lon="-0.34528">
        <ele>9.8432771344</ele>
        <time>2022-02-03T09:49:25.540Z</time>
      </trkpt>
      <trkpt lat="49.31454" lon="-0.34405">
        <ele>9.7013149522</ele>
        <time>2022-02-03T09:49:25.698Z</time>
      </trkpt>
      <trkpt lat="49.31404" lon="-0.34292">
        <ele>9.48256477756</ele>
        <time>2022-02-03T09:49:25.871Z</time>
      </trkpt>
      <trkpt lat="49.31408" lon="-0.34283">
        <ele>9.32033004493</ele>
        <time>2022-02-03T09:49:26.045Z</time>
      </trkpt>
      <trkpt lat="49.31304" lon="-0.34029">
        <ele>9.20778478086</ele>
        <time>2022-02-03T09:49:26.250Z</time>
      </trkpt>
      <trkpt lat="49.31304" lon="-0.34029">
        <ele>9.05677061029</ele>
        <time>2022-02-03T09:49:26.455Z</time>
      </trkpt>
      <trkpt lat="49.31095" lon="-0.33522">
        <ele>8.94037493104</ele>
        <time>2022-02-03T09:49:26.723Z</time>
      </trkpt>
      <trkpt lat="49.30899" lon="-0.33048">
        <ele>8.79384642186</ele>
        <time>2022-02-03T09:49:27.049Z</time>
      </trkpt>
      <trkpt lat="49.30889" lon="-0.33024">
        <ele>8.62707252685</ele>
        <time>2022-02-03T09:49:27.378Z</time>
      </trkpt>
      <trkpt lat="49.30754" lon="-0.32751">
        <ele>8.4046970651</ele>
        <time>2022-02-03T09:49:27.743Z</time>
      </trkpt>
      <trkpt lat="49.30621" lon="-0.32487">
        <ele>8.08966370933</ele>
        <time>2022-02-03T09:49:28.143Z</time>
      </trkpt>
      <trkpt lat="49.30598" lon="-0.32435">
        <ele>7.87589006625</ele>
        <time>2022-02-03T09:49:28.550Z</time>
      </trkpt>
      <trkpt lat="49.30593" lon="-0.32424">
        <ele>7.67350360077</ele>
        <time>2022-02-03T09:49:28.958Z</time>
      </trkpt>
      <trkpt lat="49.30593" lon="-0.32424">
        <ele>7.32972894756</ele>
        <time>2022-02-03T09:49:29.366Z</time>
      </trkpt>
      <trkpt lat="49.30593" lon="-0.32424">
        <ele>7.19091716376</ele>
        <time>2022-02-03T09:49:29.774Z</time>
      </trkpt>
      <trkpt lat="49.30593" lon="-0.32424">
        <ele>7.07306366403</ele>
        <time>2022-02-03T09:49:30.182Z</time>
      </trkpt>
      <trkpt lat="49.30592" lon="-0.32421">
        <ele>6.97382406324</ele>
        <time>2022-02-03T09:49:30.590Z</time>
      </trkpt>
      <trkpt lat="49.30589" lon="-0.3241">
        <ele>6.89007028995</ele>
        <time>2022-02-03T09:49:31.000Z</time>
      </trkpt>
      <trkpt lat="49.30587" lon="-0.32376">
        <ele>6.85280726026</ele>
        <time>2022-02-03T09:49:31.413Z</time>
      </trkpt>
      <trkpt lat="49.30596" lon="-0.32359">
        <ele>6.79244192028</ele>
        <time>2022-02-03T09:49:31.829Z</time>
      </trkpt>
      <trkpt lat="49.30594" lon="-0.32353">
        <ele>6.74270696385</ele>
        <time>2022-02-03T09:49:32.245Z</time>
      </trkpt>
      <trkpt lat="49.30588" lon="-0.32361">
        <ele>6.69130946173</ele>
        <time>2022-02-03T09:49:32.663Z</time>
      </trkpt>
      <trkpt lat="49.30583" lon="-0.32382">
        <ele>6.63210218292</ele>
        <time>2022-02-03T09:49:33.083Z</time>
      </trkpt>
      <trkpt lat="49.30584" lon="-0.32398">
        <ele>6.56117605567</ele>
        <time>2022-02-03T09:49:33.505Z</time>
      </trkpt>
      <trkpt lat="49.30585" lon="-0.32406">
        <ele>6.50400530823</ele>
        <time>2022-02-03T09:49:33.928Z</time>
      </trkpt>
      <trkpt lat="49.30583" lon="-0.32416">
        <ele>6.46705468128</ele>
        <time>2022-02-03T09:49:34.352Z</time>
      </trkpt>
      <trkpt lat="49.30577" lon="-0.32424">
        <ele>6.45243793181</ele>
        <time>2022-02-03T09:49:34.777Z</time>
      </trkpt>
      <trkpt lat="49.30571" lon="-0.32426">
        <ele>6.46337566779</ele>
        <time>2022-02-03T09:49:35.203Z</time>
      </trkpt>
      <trkpt lat="49.30566" lon="-0.32425">
        <ele>6.50890040315</ele>
        <time>2022-02-03T09:49:35.630Z</time>
      </trkpt>
      <trkpt lat="49.30549" lon="-0.32433">
        <ele>6.59862414146</ele>
        <time>2022-02-03T09:49:36.060Z</time>
      </trkpt>
      <trkpt lat="49.30542" lon="-0.32444">
        <ele>6.71735810614</ele>
        <time>2022-02-03T09:49:36.491Z</time>
      </trkpt>
      <trkpt lat="49.30528" lon="-0.32453">
        <ele>6.89195462135</ele>
        <time>2022-02-03T09:49:36.925Z</time>
      </trkpt>
      <trkpt lat="49.30528" lon="-0.32453">
        <ele>7.11091356986</ele>
        <time>2022-02-03T09:49:37.359Z</time>
      </trkpt>
      <trkpt lat="49.30514" lon="-0.32458">
        <ele>7.39250502271</ele>
        <time>2022-02-03T09:49:37.795Z</time>
      </trkpt>
      <trkpt lat="49.30507" lon="-0.32464">
        <ele>7.71957952504</ele>
        <time>2022-02-03T09:49:38.232Z</time>
      </trkpt>
      <trkpt lat="49.30449" lon="-0.32542">
        <ele>8.16617191763</ele>
        <time>2022-02-03T09:49:38.681Z</time>
      </trkpt>
      <trkpt lat="49.30389" lon="-0.32623">
        <ele>8.65918677436</ele>
        <time>2022-02-03T09:49:39.143Z</time>
      </trkpt>
      <trkpt lat="49.30344" lon="-0.32685">
        <ele>9.19292496679</ele>
        <time>2022-02-03T09:49:39.615Z</time>
      </trkpt>
      <trkpt lat="49.30344" lon="-0.32685">
        <ele>9.71569636569</ele>
        <time>2022-02-03T09:49:40.087Z</time>
      </trkpt>
      <trkpt lat="49.30296" lon="-0.3275">
        <ele>10.27924911379</ele>
        <time>2022-02-03T09:49:40.569Z</time>
      </trkpt>
      <trkpt lat="49.3029" lon="-0.32757">
        <ele>10.86875623296</ele>
        <time>2022-02-03T09:49:41.053Z</time>
      </trkpt>
      <trkpt lat="49.30233" lon="-0.32836">
        <ele>11.50182415199</ele>
        <time>2022-02-03T09:49:41.549Z</time>
      </trkpt>
      <trkpt lat="49.30169" lon="-0.32927">
        <ele>12.22163931807</ele>
        <time>2022-02-03T09:49:42.059Z</time>
      </trkpt>
      <trkpt lat="49.30169" lon="-0.32927">
        <ele>12.91322194668</ele>
        <time>2022-02-03T09:49:42.569Z</time>
      </trkpt>
      <trkpt lat="49.30143" lon="-0.32964">
        <ele>13.66953530817</ele>
        <time>2022-02-03T09:49:43.085Z</time>
      </trkpt>
      <trkpt lat="49.30136" lon="-0.32973">
        <ele>14.42876627158</ele>
        <time>2022-02-03T09:49:43.602Z</time>
      </trkpt>
      <trkpt lat="49.30136" lon="-0.32973">
        <ele>15.19497857487</ele>
        <time>2022-02-03T09:49:44.119Z</time>
      </trkpt>
      <trkpt lat="49.3009" lon="-0.33035">
        <ele>16.03282359859</ele>
        <time>2022-02-03T09:49:44.646Z</time>
      </trkpt>
      <trkpt lat="49.30019" lon="-0.33131">
        <ele>16.84392313164</ele>
        <time>2022-02-03T09:49:45.188Z</time>
      </trkpt>
      <trkpt lat="49.30019" lon="-0.33131">
        <ele>17.62892217012</ele>
        <time>2022-02-03T09:49:45.730Z</time>
      </trkpt>
      <trkpt lat="49.2943" lon="-0.3393">
        <ele>18.55674341197</ele>
        <time>2022-02-03T09:49:46.398Z</time>
      </trkpt>
      <trkpt lat="49.2943" lon="-0.3393">
        <ele>19.29754544976</ele>
        <time>2022-02-03T09:49:47.066Z</time>
      </trkpt>
      <trkpt lat="49.29284" lon="-0.34128">
        <ele>20.07775021492</ele>
        <time>2022-02-03T09:49:47.765Z</time>
      </trkpt>
      <trkpt lat="49.29224" lon="-0.34212">
        <ele>20.78719595669</ele>
        <time>2022-02-03T09:49:48.477Z</time>
      </trkpt>
      <trkpt lat="49.29202" lon="-0.34249">
        <ele>21.33447705657</ele>
        <time>2022-02-03T09:49:49.195Z</time>
      </trkpt>
      <trkpt lat="49.29196" lon="-0.34264">
        <ele>21.79703512201</ele>
        <time>2022-02-03T09:49:49.914Z</time>
      </trkpt>
      <trkpt lat="49.29196" lon="-0.34264">
        <ele>22.18049812236</ele>
        <time>2022-02-03T09:49:50.633Z</time>
      </trkpt>
      <trkpt lat="49.2916" lon="-0.3447">
        <ele>22.41758109403</ele>
        <time>2022-02-03T09:49:51.375Z</time>
      </trkpt>
      <trkpt lat="49.29152" lon="-0.34528">
        <ele>22.65722244337</ele>
        <time>2022-02-03T09:49:52.123Z</time>
      </trkpt>
      <trkpt lat="49.29149" lon="-0.34564">
        <ele>22.85132644666</ele>
        <time>2022-02-03T09:49:52.875Z</time>
      </trkpt>
      <trkpt lat="49.29151" lon="-0.346">
        <ele>22.99541359296</ele>
        <time>2022-02-03T09:49:53.631Z</time>
      </trkpt>
      <trkpt lat="49.29163" lon="-0.34682">
        <ele>23.09830581141</ele>
        <time>2022-02-03T09:49:54.395Z</time>
      </trkpt>
      <trkpt lat="49.29191" lon="-0.34855">
        <ele>23.07584221878</ele>
        <time>2022-02-03T09:49:55.178Z</time>
      </trkpt>
      <trkpt lat="49.29192" lon="-0.34882">
        <ele>23.04484759877</ele>
        <time>2022-02-03T09:49:55.964Z</time>
      </trkpt>
      <trkpt lat="49.29189" lon="-0.34899">
        <ele>23.01894182096</ele>
        <time>2022-02-03T09:49:56.752Z</time>
      </trkpt>
      <trkpt lat="49.29138" lon="-0.35001">
        <ele>23.0425161617</ele>
        <time>2022-02-03T09:49:57.553Z</time>
      </trkpt>
      <trkpt lat="49.29123" lon="-0.35075">
        <ele>22.95603869484</ele>
        <time>2022-02-03T09:49:58.362Z</time>
      </trkpt>
      <trkpt lat="49.29105" lon="-0.35123">
        <ele>22.87236632653</ele>
        <time>2022-02-03T09:49:59.177Z</time>
      </trkpt>
      <trkpt lat="49.29078" lon="-0.35173">
        <ele>22.88356847904</ele>
        <time>2022-02-03T09:49:59.999Z</time>
      </trkpt>
      <trkpt lat="49.2905" lon="-0.35245">
        <ele>22.91958594075</ele>
        <time>2022-02-03T09:50:00.830Z</time>
      </trkpt>
      <trkpt lat="49.2904" lon="-0.35275">
        <ele>22.93435699597</ele>
        <time>2022-02-03T09:50:01.664Z</time>
      </trkpt>
      <trkpt lat="49.2904" lon="-0.35275">
        <ele>22.96198887026</ele>
        <time>2022-02-03T09:50:02.498Z</time>
      </trkpt>
      <trkpt lat="49.29038" lon="-0.35283">
        <ele>22.99838179066</ele>
        <time>2022-02-03T09:50:03.333Z</time>
      </trkpt>
      <trkpt lat="49.29032" lon="-0.35286">
        <ele>23.05195363486</ele>
        <time>2022-02-03T09:50:04.169Z</time>
      </trkpt>
      <trkpt lat="49.29048" lon="-0.35345">
        <ele>23.15045496377</ele>
        <time>2022-02-03T09:50:05.012Z</time>
      </trkpt>
      <trkpt lat="49.2902" lon="-0.35383">
        <ele>23.25209042361</ele>
        <time>2022-02-03T09:50:05.861Z</time>
      </trkpt>
      <trkpt lat="49.29008" lon="-0.35399">
        <ele>23.35650432424</ele>
        <time>2022-02-03T09:50:06.712Z</time>
      </trkpt>
      <trkpt lat="49.28989" lon="-0.35421">
        <ele>23.48105287819</ele>
        <time>2022-02-03T09:50:07.567Z</time>
      </trkpt>
      <trkpt lat="49.28966" lon="-0.35443">
        <ele>23.63125361371</ele>
        <time>2022-02-03T09:50:08.426Z</time>
      </trkpt>
      <trkpt lat="49.28954" lon="-0.35453">
        <ele>23.79468501974</ele>
        <time>2022-02-03T09:50:09.288Z</time>
      </trkpt>
      <trkpt lat="49.28929" lon="-0.35472">
        <ele>23.98451837155</ele>
        <time>2022-02-03T09:50:10.154Z</time>
      </trkpt>
      <trkpt lat="49.28912" lon="-0.35486">
        <ele>24.1951640107</ele>
        <time>2022-02-03T09:50:11.023Z</time>
      </trkpt>
      <trkpt lat="49.28912" lon="-0.35486">
        <ele>24.42071388484</ele>
        <time>2022-02-03T09:50:11.892Z</time>
      </trkpt>
      <trkpt lat="49.28852" lon="-0.35536">
        <ele>24.70563053235</ele>
        <time>2022-02-03T09:50:12.772Z</time>
      </trkpt>
      <trkpt lat="49.28838" lon="-0.35549">
        <ele>24.99144345409</ele>
        <time>2022-02-03T09:50:13.655Z</time>
      </trkpt>
      <trkpt lat="49.28785" lon="-0.35577">
        <ele>25.31251839726</ele>
        <time>2022-02-03T09:50:14.547Z</time>
      </trkpt>
      <trkpt lat="49.28746" lon="-0.35603">
        <ele>25.63853191288</ele>
        <time>2022-02-03T09:50:15.446Z</time>
      </trkpt>
      <trkpt lat="49.28746" lon="-0.35603">
        <ele>26.00694672512</ele>
        <time>2022-02-03T09:50:16.345Z</time>
      </trkpt>
      <trkpt lat="49.28712" lon="-0.35627">
        <ele>26.39425640754</ele>
        <time>2022-02-03T09:50:17.250Z</time>
      </trkpt>
      <trkpt lat="49.28623" lon="-0.35706">
        <ele>26.86776500731</ele>
        <time>2022-02-03T09:50:18.171Z</time>
      </trkpt>
      <trkpt lat="49.286" lon="-0.35643">
        <ele>27.4040195955</ele>
        <time>2022-02-03T09:50:19.100Z</time>
      </trkpt>
      <trkpt lat="49.28578" lon="-0.35617">
        <ele>27.92213054302</ele>
        <time>2022-02-03T09:50:20.033Z</time>
      </trkpt>
      <trkpt lat="49.28561" lon="-0.35603">
        <ele>28.47989128637</ele>
        <time>2022-02-03T09:50:20.969Z</time>
      </trkpt>
      <trkpt lat="49.28555" lon="-0.356">
        <ele>29.05781354972</ele>
        <time>2022-02-03T09:50:21.906Z</time>
      </trkpt>
      <trkpt lat="49.28532" lon="-0.35605">
        <ele>29.66996680158</ele>
        <time>2022-02-03T09:50:22.847Z</time>
      </trkpt>
      <trkpt lat="49.28489" lon="-0.35608">
        <ele>30.31823431597</ele>
        <time>2022-02-03T09:50:23.795Z</time>
      </trkpt>
      <trkpt lat="49.28483" lon="-0.35608">
        <ele>31.00251924905</ele>
        <time>2022-02-03T09:50:24.744Z</time>
      </trkpt>
      <trkpt lat="49.28461" lon="-0.3561">
        <ele>31.72562438788</ele>
        <time>2022-02-03T09:50:25.696Z</time>
      </trkpt>
      <trkpt lat="49.28397" lon="-0.35613">
        <ele>32.45939120132</ele>
        <time>2022-02-03T09:50:26.658Z</time>
      </trkpt>
      <trkpt lat="49.28348" lon="-0.35617">
        <ele>33.2439981956</ele>
        <time>2022-02-03T09:50:27.628Z</time>
      </trkpt>
      <trkpt lat="49.28283" lon="-0.35619">
        <ele>34.12007285308</ele>
        <time>2022-02-03T09:50:28.609Z</time>
      </trkpt>
      <trkpt lat="49.28162" lon="-0.35622">
        <ele>34.98202318565</ele>
        <time>2022-02-03T09:50:29.609Z</time>
      </trkpt>
      <trkpt lat="49.28134" lon="-0.35625">
        <ele>35.9075869864</ele>
        <time>2022-02-03T09:50:30.614Z</time>
      </trkpt>
      <trkpt lat="49.28084" lon="-0.35638">
        <ele>36.90807299329</ele>
        <time>2022-02-03T09:50:31.627Z</time>
      </trkpt>
      <trkpt lat="49.28016" lon="-0.35649">
        <ele>37.95996124709</ele>
        <time>2022-02-03T09:50:32.651Z</time>
      </trkpt>
      <trkpt lat="49.27992" lon="-0.35656">
        <ele>38.90969988881</ele>
        <time>2022-02-03T09:50:33.679Z</time>
      </trkpt>
      <trkpt lat="49.27963" lon="-0.35682">
        <ele>39.87334639592</ele>
        <time>2022-02-03T09:50:34.712Z</time>
      </trkpt>
      <trkpt lat="49.2794" lon="-0.35701">
        <ele>40.85912993774</ele>
        <time>2022-02-03T09:50:35.749Z</time>
      </trkpt>
      <trkpt lat="49.27933" lon="-0.35716">
        <ele>41.83171765217</ele>
        <time>2022-02-03T09:50:36.788Z</time>
      </trkpt>
      <trkpt lat="49.2791" lon="-0.3575">
        <ele>42.82775730735</ele>
        <time>2022-02-03T09:50:37.832Z</time>
      </trkpt>
      <trkpt lat="49.27884" lon="-0.35802">
        <ele>43.83838054728</ele>
        <time>2022-02-03T09:50:38.883Z</time>
      </trkpt>
      <trkpt lat="49.27864" lon="-0.35829">
        <ele>44.76027911793</ele>
        <time>2022-02-03T09:50:39.938Z</time>
      </trkpt>
      <trkpt lat="49.27819" lon="-0.35878">
        <ele>45.66337129943</ele>
        <time>2022-02-03T09:50:41.002Z</time>
      </trkpt>
      <trkpt lat="49.27816" lon="-0.35924">
        <ele>46.49271256784</ele>
        <time>2022-02-03T09:50:42.071Z</time>
      </trkpt>
      <trkpt lat="49.27818" lon="-0.3596">
        <ele>47.27669723567</ele>
        <time>2022-02-03T09:50:43.144Z</time>
      </trkpt>
      <trkpt lat="49.2782" lon="-0.35973">
        <ele>48.02509620864</ele>
        <time>2022-02-03T09:50:44.218Z</time>
      </trkpt>
      <trkpt lat="49.27809" lon="-0.36012">
        <ele>48.77538741454</ele>
        <time>2022-02-03T09:50:45.297Z</time>
      </trkpt>
      <trkpt lat="49.27779" lon="-0.36089">
        <ele>49.56313756534</ele>
        <time>2022-02-03T09:50:46.385Z</time>
      </trkpt>
      <trkpt lat="49.27775" lon="-0.36106">
        <ele>50.19201320007</ele>
        <time>2022-02-03T09:50:47.475Z</time>
      </trkpt>
      <trkpt lat="49.27773" lon="-0.36125">
        <ele>50.76553264452</ele>
        <time>2022-02-03T09:50:48.567Z</time>
      </trkpt>
      <trkpt lat="49.27764" lon="-0.36164">
        <ele>51.29156638577</ele>
        <time>2022-02-03T09:50:49.663Z</time>
      </trkpt>
      <trkpt lat="49.27724" lon="-0.36312">
        <ele>51.81833472272</ele>
        <time>2022-02-03T09:50:50.776Z</time>
      </trkpt>
      <trkpt lat="49.27717" lon="-0.36348">
        <ele>52.18065987289</ele>
        <time>2022-02-03T09:50:51.893Z</time>
      </trkpt>
      <trkpt lat="49.27717" lon="-0.36348">
        <ele>52.48784855821</ele>
        <time>2022-02-03T09:50:53.010Z</time>
      </trkpt>
      <trkpt lat="49.27678" lon="-0.36516">
        <ele>52.83295099842</ele>
        <time>2022-02-03T09:50:54.146Z</time>
      </trkpt>
      <trkpt lat="49.27662" lon="-0.3662">
        <ele>53.02281784936</ele>
        <time>2022-02-03T09:50:55.293Z</time>
      </trkpt>
      <trkpt lat="49.27642" lon="-0.3678">
        <ele>53.15944950742</ele>
        <time>2022-02-03T09:50:56.457Z</time>
      </trkpt>
      <trkpt lat="49.27617" lon="-0.36923">
        <ele>53.16108935385</ele>
        <time>2022-02-03T09:50:57.636Z</time>
      </trkpt>
      <trkpt lat="49.27605" lon="-0.37031">
        <ele>53.13206156745</ele>
        <time>2022-02-03T09:50:58.827Z</time>
      </trkpt>
      <trkpt lat="49.27578" lon="-0.37285">
        <ele>53.0801719268</ele>
        <time>2022-02-03T09:51:00.045Z</time>
      </trkpt>
      <trkpt lat="49.27543" lon="-0.37483">
        <ele>52.83807510241</ele>
        <time>2022-02-03T09:51:01.284Z</time>
      </trkpt>
      <trkpt lat="49.27543" lon="-0.37483">
        <ele>52.70332502566</ele>
        <time>2022-02-03T09:51:02.523Z</time>
      </trkpt>
      <trkpt lat="49.27528" lon="-0.3757">
        <ele>52.46328896185</ele>
        <time>2022-02-03T09:51:03.772Z</time>
      </trkpt>
      <trkpt lat="49.27498" lon="-0.37753">
        <ele>52.06807667627</ele>
        <time>2022-02-03T09:51:05.041Z</time>
      </trkpt>
      <trkpt lat="49.27497" lon="-0.37782">
        <ele>51.84155685902</ele>
        <time>2022-02-03T09:51:06.313Z</time>
      </trkpt>
      <trkpt lat="49.275" lon="-0.378">
        <ele>51.60004014786</ele>
        <time>2022-02-03T09:51:07.587Z</time>
      </trkpt>
      <trkpt lat="49.27489" lon="-0.37811">
        <ele>51.32364928604</ele>
        <time>2022-02-03T09:51:08.863Z</time>
      </trkpt>
      <trkpt lat="49.27481" lon="-0.37836">
        <ele>51.0305073072</ele>
        <time>2022-02-03T09:51:10.142Z</time>
      </trkpt>
      <trkpt lat="49.27478" lon="-0.37838">
        <ele>50.74888840701</ele>
        <time>2022-02-03T09:51:11.421Z</time>
      </trkpt>
      <trkpt lat="49.27263" lon="-0.37782">
        <ele>50.54723879199</ele>
        <time>2022-02-03T09:51:12.735Z</time>
      </trkpt>
      <trkpt lat="49.26949" lon="-0.37691">
        <ele>50.31845713303</ele>
        <time>2022-02-03T09:51:14.100Z</time>
      </trkpt>
      <trkpt lat="49.26895" lon="-0.37686">
        <ele>50.03689464171</ele>
        <time>2022-02-03T09:51:15.474Z</time>
      </trkpt>
      <trkpt lat="49.26818" lon="-0.37684">
        <ele>49.82433696754</ele>
        <time>2022-02-03T09:51:16.860Z</time>
      </trkpt>
      <trkpt lat="49.26816" lon="-0.37695">
        <ele>49.53267170521</ele>
        <time>2022-02-03T09:51:18.247Z</time>
      </trkpt>
      <trkpt lat="49.26811" lon="-0.37704">
        <ele>49.24517663581</ele>
        <time>2022-02-03T09:51:19.636Z</time>
      </trkpt>
      <trkpt lat="49.26807" lon="-0.37705">
        <ele>48.96329993162</ele>
        <time>2022-02-03T09:51:21.025Z</time>
      </trkpt>
      <trkpt lat="49.26782" lon="-0.37683">
        <ele>48.73001836482</ele>
        <time>2022-02-03T09:51:22.419Z</time>
      </trkpt>
      <trkpt lat="49.26661" lon="-0.37654">
        <ele>48.38667565104</ele>
        <time>2022-02-03T09:51:23.833Z</time>
      </trkpt>
      <trkpt lat="49.26399" lon="-0.37582">
        <ele>48.1788990532</ele>
        <time>2022-02-03T09:51:25.289Z</time>
      </trkpt>
      <trkpt lat="49.26316" lon="-0.37557">
        <ele>47.89481147085</ele>
        <time>2022-02-03T09:51:26.759Z</time>
      </trkpt>
      <trkpt lat="49.26039" lon="-0.37485">
        <ele>47.596653627</ele>
        <time>2022-02-03T09:51:28.274Z</time>
      </trkpt>
      <trkpt lat="49.26015" lon="-0.37477">
        <ele>47.31651648863</ele>
        <time>2022-02-03T09:51:29.793Z</time>
      </trkpt>
      <trkpt lat="49.26015" lon="-0.37477">
        <ele>47.06003921793</ele>
        <time>2022-02-03T09:51:31.312Z</time>
      </trkpt>
      <trkpt lat="49.25866" lon="-0.37437">
        <ele>46.71597569851</ele>
        <time>2022-02-03T09:51:32.855Z</time>
      </trkpt>
      <trkpt lat="49.25768" lon="-0.37406">
        <ele>46.42350376256</ele>
        <time>2022-02-03T09:51:34.414Z</time>
      </trkpt>
      <trkpt lat="49.25766" lon="-0.37396">
        <ele>46.20650016877</ele>
        <time>2022-02-03T09:51:35.974Z</time>
      </trkpt>
      <trkpt lat="49.25684" lon="-0.37376">
        <ele>45.98184279911</ele>
        <time>2022-02-03T09:51:37.547Z</time>
      </trkpt>
      <trkpt lat="49.25648" lon="-0.37366">
        <ele>45.75497137859</ele>
        <time>2022-02-03T09:51:39.126Z</time>
      </trkpt>
      <trkpt lat="49.25648" lon="-0.37366">
        <ele>45.59304711659</ele>
        <time>2022-02-03T09:51:40.705Z</time>
      </trkpt>
      <trkpt lat="49.25643" lon="-0.37364">
        <ele>45.44561141735</ele>
        <time>2022-02-03T09:51:42.285Z</time>
      </trkpt>
      <trkpt lat="49.2556" lon="-0.37341">
        <ele>45.33120409354</ele>
        <time>2022-02-03T09:51:43.879Z</time>
      </trkpt>
      <trkpt lat="49.25552" lon="-0.37348">
        <ele>45.23275466522</ele>
        <time>2022-02-03T09:51:45.474Z</time>
      </trkpt>
      <trkpt lat="49.25547" lon="-0.37347">
        <ele>45.16466675556</ele>
        <time>2022-02-03T09:51:47.070Z</time>
      </trkpt>
      <trkpt lat="49.25524" lon="-0.37325">
        <ele>45.15420211579</ele>
        <time>2022-02-03T09:51:48.670Z</time>
      </trkpt>
      <trkpt lat="49.25524" lon="-0.37325">
        <ele>45.12848305299</ele>
        <time>2022-02-03T09:51:50.270Z</time>
      </trkpt>
      <trkpt lat="49.25496" lon="-0.37325">
        <ele>45.13675411452</ele>
        <time>2022-02-03T09:51:51.875Z</time>
      </trkpt>
      <trkpt lat="49.25463" lon="-0.37312">
        <ele>45.1619083337</ele>
        <time>2022-02-03T09:51:53.485Z</time>
      </trkpt>
      <trkpt lat="49.25402" lon="-0.37295">
        <ele>45.20670420092</ele>
        <time>2022-02-03T09:51:55.105Z</time>
      </trkpt>
      <trkpt lat="49.25402" lon="-0.37295">
        <ele>45.26543347434</ele>
        <time>2022-02-03T09:51:56.725Z</time>
      </trkpt>
      <trkpt lat="49.25402" lon="-0.37295">
        <ele>45.43889148029</ele>
        <time>2022-02-03T09:51:58.345Z</time>
      </trkpt>
      <trkpt lat="49.25402" lon="-0.37295">
        <ele>45.68001349955</ele>
        <time>2022-02-03T09:51:59.965Z</time>
      </trkpt>
      <trkpt lat="49.25402" lon="-0.37295">
        <ele>45.97909047051</ele>
        <time>2022-02-03T09:52:01.585Z</time>
      </trkpt>
      <trkpt lat="49.25362" lon="-0.37284">
        <ele>46.3277820994</ele>
        <time>2022-02-03T09:52:03.212Z</time>
      </trkpt>
      <trkpt lat="49.25362" lon="-0.37284">
        <ele>46.70745346417</ele>
        <time>2022-02-03T09:52:04.839Z</time>
      </trkpt>
      <trkpt lat="49.2531" lon="-0.3727">
        <ele>47.19195483673</ele>
        <time>2022-02-03T09:52:06.474Z</time>
      </trkpt>
      <trkpt lat="49.25257" lon="-0.37256">
        <ele>47.64591946968</ele>
        <time>2022-02-03T09:52:08.118Z</time>
      </trkpt>
      <trkpt lat="49.25255" lon="-0.37248">
        <ele>48.02831883485</ele>
        <time>2022-02-03T09:52:09.763Z</time>
      </trkpt>
      <trkpt lat="49.2525" lon="-0.37245">
        <ele>48.38482256401</ele>
        <time>2022-02-03T09:52:11.408Z</time>
      </trkpt>
      <trkpt lat="49.2525" lon="-0.37244">
        <ele>48.69686349916</ele>
        <time>2022-02-03T09:52:13.054Z</time>
      </trkpt>
      <trkpt lat="49.2525" lon="-0.37244">
        <ele>48.95851340935</ele>
        <time>2022-02-03T09:52:14.700Z</time>
      </trkpt>
      <trkpt lat="49.2525" lon="-0.37244">
        <ele>49.16357922667</ele>
        <time>2022-02-03T09:52:16.346Z</time>
      </trkpt>
      <trkpt lat="49.2525" lon="-0.37244">
        <ele>49.30764160341</ele>
        <time>2022-02-03T09:52:17.992Z</time>
      </trkpt>
      <trkpt lat="49.2525" lon="-0.37244">
        <ele>49.38836104393</ele>
        <time>2022-02-03T09:52:19.638Z</time>
      </trkpt>
      <trkpt lat="49.2525" lon="-0.37244">
        <ele>49.40515258825</ele>
        <time>2022-02-03T09:52:21.284Z</time>
      </trkpt>
      <trkpt lat="49.2525" lon="-0.37244">
        <ele>49.3589533373</ele>
        <time>2022-02-03T09:52:22.930Z</time>
      </trkpt>
      <trkpt lat="49.2525" lon="-0.37245">
        <ele>48.38482256401</ele>
        <time>2022-02-03T09:52:24.576Z</time>
      </trkpt>
      <trkpt lat="49.25255" lon="-0.37248">
        <ele>48.02831883485</ele>
        <time>2022-02-03T09:52:26.222Z</time>
      </trkpt>
      <trkpt lat="49.25257" lon="-0.37256">
        <ele>47.64591946968</ele>
        <time>2022-02-03T09:52:27.869Z</time>
      </trkpt>
      <trkpt lat="49.25252" lon="-0.37269">
        <ele>48.62980967591</ele>
        <time>2022-02-03T09:52:29.518Z</time>
      </trkpt>
      <trkpt lat="49.25265" lon="-0.3738">
        <ele>48.28718882891</ele>
        <time>2022-02-03T09:52:31.179Z</time>
      </trkpt>
      <trkpt lat="49.25265" lon="-0.3738">
        <ele>47.97350236421</ele>
        <time>2022-02-03T09:52:32.840Z</time>
      </trkpt>
      <trkpt lat="49.25269" lon="-0.37422">
        <ele>47.60831960005</ele>
        <time>2022-02-03T09:52:34.505Z</time>
      </trkpt>
      <trkpt lat="49.25269" lon="-0.37479">
        <ele>47.23369086253</ele>
        <time>2022-02-03T09:52:36.176Z</time>
      </trkpt>
      <trkpt lat="49.25266" lon="-0.37507">
        <ele>46.91859692697</ele>
        <time>2022-02-03T09:52:37.850Z</time>
      </trkpt>
      <trkpt lat="49.25263" lon="-0.37564">
        <ele>46.63545156961</ele>
        <time>2022-02-03T09:52:39.530Z</time>
      </trkpt>
      <trkpt lat="49.25255" lon="-0.37652">
        <ele>46.42557935326</ele>
        <time>2022-02-03T09:52:41.219Z</time>
      </trkpt>
      <trkpt lat="49.25241" lon="-0.37781">
        <ele>46.2224813755</ele>
        <time>2022-02-03T09:52:42.922Z</time>
      </trkpt>
      <trkpt lat="49.25241" lon="-0.37781">
        <ele>46.07394239314</ele>
        <time>2022-02-03T09:52:44.625Z</time>
      </trkpt>
      <trkpt lat="49.25235" lon="-0.37822">
        <ele>45.97757702188</ele>
        <time>2022-02-03T09:52:46.333Z</time>
      </trkpt>
      <trkpt lat="49.25236" lon="-0.37862">
        <ele>45.90790011713</ele>
        <time>2022-02-03T09:52:48.045Z</time>
      </trkpt>
      <trkpt lat="49.25249" lon="-0.37933">
        <ele>45.87026743322</ele>
        <time>2022-02-03T09:52:49.764Z</time>
      </trkpt>
      <trkpt lat="49.25254" lon="-0.37959">
        <ele>45.92659457238</ele>
        <time>2022-02-03T09:52:51.486Z</time>
      </trkpt>
      <trkpt lat="49.25254" lon="-0.37959">
        <ele>45.98927399453</ele>
        <time>2022-02-03T09:52:53.208Z</time>
      </trkpt>
      <trkpt lat="49.25258" lon="-0.37985">
        <ele>46.12032746887</ele>
        <time>2022-02-03T09:52:54.933Z</time>
      </trkpt>
      <trkpt lat="49.25259" lon="-0.38017">
        <ele>46.26233371006</ele>
        <time>2022-02-03T09:52:56.661Z</time>
      </trkpt>
      <trkpt lat="49.25258" lon="-0.38042">
        <ele>46.40770385439</ele>
        <time>2022-02-03T09:52:58.392Z</time>
      </trkpt>
      <trkpt lat="49.25252" lon="-0.38076">
        <ele>46.50321346613</ele>
        <time>2022-02-03T09:53:00.127Z</time>
      </trkpt>
      <trkpt lat="49.2524" lon="-0.3812">
        <ele>46.57457356744</ele>
        <time>2022-02-03T09:53:01.867Z</time>
      </trkpt>
      <trkpt lat="49.25213" lon="-0.38182">
        <ele>46.68390417734</ele>
        <time>2022-02-03T09:53:03.614Z</time>
      </trkpt>
      <trkpt lat="49.25213" lon="-0.38182">
        <ele>46.78469477979</ele>
        <time>2022-02-03T09:53:05.361Z</time>
      </trkpt>
      <trkpt lat="49.2516" lon="-0.38304">
        <ele>46.91307351604</ele>
        <time>2022-02-03T09:53:07.124Z</time>
      </trkpt>
      <trkpt lat="49.25166" lon="-0.38312">
        <ele>47.00091537595</ele>
        <time>2022-02-03T09:53:08.888Z</time>
      </trkpt>
      <trkpt lat="49.25169" lon="-0.38321">
        <ele>47.08163138704</ele>
        <time>2022-02-03T09:53:10.653Z</time>
      </trkpt>
      <trkpt lat="49.2517" lon="-0.38332">
        <ele>47.1506770054</ele>
        <time>2022-02-03T09:53:12.419Z</time>
      </trkpt>
      <trkpt lat="49.25169" lon="-0.38344">
        <ele>47.21337285972</ele>
        <time>2022-02-03T09:53:14.187Z</time>
      </trkpt>
      <trkpt lat="49.25188" lon="-0.3835">
        <ele>47.24746674646</ele>
        <time>2022-02-03T09:53:15.958Z</time>
      </trkpt>
      <trkpt lat="49.25197" lon="-0.38351">
        <ele>47.29429169412</ele>
        <time>2022-02-03T09:53:17.730Z</time>
      </trkpt>
      <trkpt lat="49.25208" lon="-0.3835">
        <ele>47.3586772601</ele>
        <time>2022-02-03T09:53:19.504Z</time>
      </trkpt>
      <trkpt lat="49.2522" lon="-0.38343">
        <ele>47.43666349777</ele>
        <time>2022-02-03T09:53:21.280Z</time>
      </trkpt>
      <trkpt lat="49.25241" lon="-0.38315">
        <ele>47.52745566284</ele>
        <time>2022-02-03T09:53:23.060Z</time>
      </trkpt>
      <trkpt lat="49.25241" lon="-0.38315">
        <ele>47.66428428699</ele>
        <time>2022-02-03T09:53:24.840Z</time>
      </trkpt>
      <trkpt lat="49.25248" lon="-0.38303">
        <ele>47.83018565629</ele>
        <time>2022-02-03T09:53:26.622Z</time>
      </trkpt>
      <trkpt lat="49.2527" lon="-0.38286">
        <ele>48.03177363625</ele>
        <time>2022-02-03T09:53:28.408Z</time>
      </trkpt>
      <trkpt lat="49.25295" lon="-0.38276">
        <ele>48.29472780386</ele>
        <time>2022-02-03T09:53:30.198Z</time>
      </trkpt>
      <trkpt lat="49.25314" lon="-0.38278">
        <ele>48.5951539251</ele>
        <time>2022-02-03T09:53:31.991Z</time>
      </trkpt>
      <trkpt lat="49.25422" lon="-0.38346">
        <ele>48.99233587659</ele>
        <time>2022-02-03T09:53:33.803Z</time>
      </trkpt>
      <trkpt lat="49.25471" lon="-0.38368">
        <ele>49.35575223015</ele>
        <time>2022-02-03T09:53:35.623Z</time>
      </trkpt>
      <trkpt lat="49.25556" lon="-0.38397">
        <ele>49.74947342399</ele>
        <time>2022-02-03T09:53:37.457Z</time>
      </trkpt>
      <trkpt lat="49.25626" lon="-0.38408">
        <ele>50.13003805269</ele>
        <time>2022-02-03T09:53:39.302Z</time>
      </trkpt>
      <trkpt lat="49.25721" lon="-0.38408">
        <ele>50.54479700405</ele>
        <time>2022-02-03T09:53:41.163Z</time>
      </trkpt>
      <trkpt lat="49.25811" lon="-0.3839">
        <ele>50.85680132521</ele>
        <time>2022-02-03T09:53:43.038Z</time>
      </trkpt>
      <trkpt lat="49.25911" lon="-0.38345">
        <ele>51.05650915039</ele>
        <time>2022-02-03T09:53:44.930Z</time>
      </trkpt>
      <trkpt lat="49.25942" lon="-0.38337">
        <ele>51.29716651778</ele>
        <time>2022-02-03T09:53:46.827Z</time>
      </trkpt>
      <trkpt lat="49.25963" lon="-0.38328">
        <ele>51.56510578212</ele>
        <time>2022-02-03T09:53:48.727Z</time>
      </trkpt>
      <trkpt lat="49.25982" lon="-0.38303">
        <ele>51.83712826537</ele>
        <time>2022-02-03T09:53:50.631Z</time>
      </trkpt>
      <trkpt lat="49.25988" lon="-0.38299">
        <ele>52.0830103612</ele>
        <time>2022-02-03T09:53:52.536Z</time>
      </trkpt>
      <trkpt lat="49.25997" lon="-0.38303">
        <ele>52.31920843289</ele>
        <time>2022-02-03T09:53:54.443Z</time>
      </trkpt>
      <trkpt lat="49.26002" lon="-0.38311">
        <ele>52.54693390125</ele>
        <time>2022-02-03T09:53:56.351Z</time>
      </trkpt>
      <trkpt lat="49.26013" lon="-0.38323">
        <ele>52.77509663803</ele>
        <time>2022-02-03T09:53:58.261Z</time>
      </trkpt>
      <trkpt lat="49.26023" lon="-0.38333">
        <ele>53.00427111534</ele>
        <time>2022-02-03T09:54:00.173Z</time>
      </trkpt>
      <trkpt lat="49.26051" lon="-0.38351">
        <ele>53.22135098583</ele>
        <time>2022-02-03T09:54:02.090Z</time>
      </trkpt>
      <trkpt lat="49.26071" lon="-0.38372">
        <ele>53.43558201553</ele>
        <time>2022-02-03T09:54:04.011Z</time>
      </trkpt>
      <trkpt lat="49.26093" lon="-0.38409">
        <ele>53.64528411942</ele>
        <time>2022-02-03T09:54:05.937Z</time>
      </trkpt>
      <trkpt lat="49.26113" lon="-0.38478">
        <ele>53.84401000645</ele>
        <time>2022-02-03T09:54:07.871Z</time>
      </trkpt>
      <trkpt lat="49.26113" lon="-0.38478">
        <ele>53.95836182794</ele>
        <time>2022-02-03T09:54:09.805Z</time>
      </trkpt>
      <trkpt lat="49.2613" lon="-0.38566">
        <ele>54.04098748744</ele>
        <time>2022-02-03T09:54:11.749Z</time>
      </trkpt>
      <trkpt lat="49.26136" lon="-0.38702">
        <ele>54.07727347628</ele>
        <time>2022-02-03T09:54:13.707Z</time>
      </trkpt>
      <trkpt lat="49.26134" lon="-0.38783">
        <ele>54.05769254786</ele>
        <time>2022-02-03T09:54:15.673Z</time>
      </trkpt>
      <trkpt lat="49.26143" lon="-0.38812">
        <ele>54.00472230675</ele>
        <time>2022-02-03T09:54:17.643Z</time>
      </trkpt>
      <trkpt lat="49.26252" lon="-0.39041">
        <ele>53.81163748583</ele>
        <time>2022-02-03T09:54:19.642Z</time>
      </trkpt>
      <trkpt lat="49.26258" lon="-0.39057">
        <ele>53.65866319754</ele>
        <time>2022-02-03T09:54:21.643Z</time>
      </trkpt>
      <trkpt lat="49.26258" lon="-0.39057">
        <ele>53.47287437546</ele>
        <time>2022-02-03T09:54:23.644Z</time>
      </trkpt>
      <trkpt lat="49.26258" lon="-0.39057">
        <ele>53.26320670564</ele>
        <time>2022-02-03T09:54:25.645Z</time>
      </trkpt>
      <trkpt lat="49.26258" lon="-0.39058">
        <ele>53.03766528116</ele>
        <time>2022-02-03T09:54:27.646Z</time>
      </trkpt>
      <trkpt lat="49.26258" lon="-0.39058">
        <ele>52.8047914807</ele>
        <time>2022-02-03T09:54:29.647Z</time>
      </trkpt>
      <trkpt lat="49.2626" lon="-0.39062">
        <ele>52.57536288073</ele>
        <time>2022-02-03T09:54:31.649Z</time>
      </trkpt>
      <trkpt lat="49.26266" lon="-0.39099">
        <ele>52.3739860255</ele>
        <time>2022-02-03T09:54:33.655Z</time>
      </trkpt>
      <trkpt lat="49.26271" lon="-0.39112">
        <ele>52.18294061622</ele>
        <time>2022-02-03T09:54:35.662Z</time>
      </trkpt>
      <trkpt lat="49.26288" lon="-0.39147">
        <ele>52.01849717818</ele>
        <time>2022-02-03T09:54:37.674Z</time>
      </trkpt>
      <trkpt lat="49.2641" lon="-0.39352">
        <ele>51.77071094196</ele>
        <time>2022-02-03T09:54:39.715Z</time>
      </trkpt>
      <trkpt lat="49.26447" lon="-0.39411">
        <ele>51.70065537518</ele>
        <time>2022-02-03T09:54:41.765Z</time>
      </trkpt>
      <trkpt lat="49.26449" lon="-0.39418">
        <ele>51.73686760339</ele>
        <time>2022-02-03T09:54:43.815Z</time>
      </trkpt>
      <trkpt lat="49.26449" lon="-0.39456">
        <ele>51.88014019231</ele>
        <time>2022-02-03T09:54:45.869Z</time>
      </trkpt>
      <trkpt lat="49.26457" lon="-0.39489">
        <ele>52.09226997951</ele>
        <time>2022-02-03T09:54:47.927Z</time>
      </trkpt>
      <trkpt lat="49.26457" lon="-0.39489">
        <ele>52.39240619389</ele>
        <time>2022-02-03T09:54:49.985Z</time>
      </trkpt>
      <trkpt lat="49.26506" lon="-0.3959">
        <ele>52.86941039737</ele>
        <time>2022-02-03T09:54:52.056Z</time>
      </trkpt>
      <trkpt lat="49.2652" lon="-0.39632">
        <ele>53.40131579177</ele>
        <time>2022-02-03T09:54:54.132Z</time>
      </trkpt>
      <trkpt lat="49.26528" lon="-0.39661">
        <ele>53.92405509056</ele>
        <time>2022-02-03T09:54:56.212Z</time>
      </trkpt>
      <trkpt lat="49.26533" lon="-0.39673">
        <ele>54.45773886401</ele>
        <time>2022-02-03T09:54:58.293Z</time>
      </trkpt>
      <trkpt lat="49.2654" lon="-0.39683">
        <ele>55.00448937505</ele>
        <time>2022-02-03T09:55:00.376Z</time>
      </trkpt>
      <trkpt lat="49.26562" lon="-0.3974">
        <ele>55.56461877655</ele>
        <time>2022-02-03T09:55:02.465Z</time>
      </trkpt>
      <trkpt lat="49.26594" lon="-0.39808">
        <ele>56.18454700912</ele>
        <time>2022-02-03T09:55:04.563Z</time>
      </trkpt>
      <trkpt lat="49.26629" lon="-0.39871">
        <ele>56.76388007403</ele>
        <time>2022-02-03T09:55:06.670Z</time>
      </trkpt>
      <trkpt lat="49.26645" lon="-0.39911">
        <ele>57.24531674871</ele>
        <time>2022-02-03T09:55:08.782Z</time>
      </trkpt>
      <trkpt lat="49.26663" lon="-0.39967">
        <ele>57.69784362293</ele>
        <time>2022-02-03T09:55:10.900Z</time>
      </trkpt>
      <trkpt lat="49.26674" lon="-0.40006">
        <ele>58.11699285184</ele>
        <time>2022-02-03T09:55:13.023Z</time>
      </trkpt>
      <trkpt lat="49.26677" lon="-0.40017">
        <ele>58.45982736753</ele>
        <time>2022-02-03T09:55:15.147Z</time>
      </trkpt>
      <trkpt lat="49.2669" lon="-0.40078">
        <ele>58.74985427873</ele>
        <time>2022-02-03T09:55:17.278Z</time>
      </trkpt>
      <trkpt lat="49.267" lon="-0.40115">
        <ele>58.97694672946</ele>
        <time>2022-02-03T09:55:19.413Z</time>
      </trkpt>
      <trkpt lat="49.26707" lon="-0.40126">
        <ele>59.1626036761</ele>
        <time>2022-02-03T09:55:21.550Z</time>
      </trkpt>
      <trkpt lat="49.26708" lon="-0.40128">
        <ele>59.31875342216</ele>
        <time>2022-02-03T09:55:23.687Z</time>
      </trkpt>
      <trkpt lat="49.2671" lon="-0.40134">
        <ele>59.44477582032</ele>
        <time>2022-02-03T09:55:25.825Z</time>
      </trkpt>
      <trkpt lat="49.26709" lon="-0.40141">
        <ele>59.55301660006</ele>
        <time>2022-02-03T09:55:27.963Z</time>
      </trkpt>
      <trkpt lat="49.26705" lon="-0.40144">
        <ele>59.65061077062</ele>
        <time>2022-02-03T09:55:30.102Z</time>
      </trkpt>
      <trkpt lat="49.26703" lon="-0.40145">
        <ele>59.7377741318</ele>
        <time>2022-02-03T09:55:32.242Z</time>
      </trkpt>
      <trkpt lat="49.26694" lon="-0.40152">
        <ele>59.82807227112</ele>
        <time>2022-02-03T09:55:34.383Z</time>
      </trkpt>
      <trkpt lat="49.26673" lon="-0.40186">
        <ele>59.9223835386</ele>
        <time>2022-02-03T09:55:36.529Z</time>
      </trkpt>
      <trkpt lat="49.26647" lon="-0.40211">
        <ele>60.0219584554</ele>
        <time>2022-02-03T09:55:38.680Z</time>
      </trkpt>
      <trkpt lat="49.26636" lon="-0.40222">
        <ele>60.11712619541</ele>
        <time>2022-02-03T09:55:40.833Z</time>
      </trkpt>
      <trkpt lat="49.26634" lon="-0.40234">
        <ele>60.21170047932</ele>
        <time>2022-02-03T09:55:42.987Z</time>
      </trkpt>
      <trkpt lat="49.26633" lon="-0.40328">
        <ele>60.29337385154</ele>
        <time>2022-02-03T09:55:45.151Z</time>
      </trkpt>
      <trkpt lat="49.26626" lon="-0.40351">
        <ele>60.3847999188</ele>
        <time>2022-02-03T09:55:47.318Z</time>
      </trkpt>
      <trkpt lat="49.26616" lon="-0.40411">
        <ele>60.45654604074</ele>
        <time>2022-02-03T09:55:49.491Z</time>
      </trkpt>
      <trkpt lat="49.26613" lon="-0.40419">
        <ele>60.55509332754</ele>
        <time>2022-02-03T09:55:51.665Z</time>
      </trkpt>
      <trkpt lat="49.26572" lon="-0.40466">
        <ele>60.66552726149</ele>
        <time>2022-02-03T09:55:53.847Z</time>
      </trkpt>
      <trkpt lat="49.26567" lon="-0.4047">
        <ele>60.74573736107</ele>
        <time>2022-02-03T09:55:56.030Z</time>
      </trkpt>
      <trkpt lat="49.26546" lon="-0.40494">
        <ele>60.82272662153</ele>
        <time>2022-02-03T09:55:58.218Z</time>
      </trkpt>
      <trkpt lat="49.26545" lon="-0.40502">
        <ele>60.82577527561</ele>
        <time>2022-02-03T09:56:00.406Z</time>
      </trkpt>
      <trkpt lat="49.26543" lon="-0.40511">
        <ele>60.77211717161</ele>
        <time>2022-02-03T09:56:02.595Z</time>
      </trkpt>
      <trkpt lat="49.26544" lon="-0.40554">
        <ele>60.64916121856</ele>
        <time>2022-02-03T09:56:04.789Z</time>
      </trkpt>
      <trkpt lat="49.26546" lon="-0.40688">
        <ele>60.38997347305</ele>
        <time>2022-02-03T09:56:06.997Z</time>
      </trkpt>
      <trkpt lat="49.26547" lon="-0.40776">
        <ele>60.0765272703</ele>
        <time>2022-02-03T09:56:09.214Z</time>
      </trkpt>
      <trkpt lat="49.26554" lon="-0.40864">
        <ele>59.66552945066</ele>
        <time>2022-02-03T09:56:11.440Z</time>
      </trkpt>
      <trkpt lat="49.26559" lon="-0.40879">
        <ele>59.15737771786</ele>
        <time>2022-02-03T09:56:13.668Z</time>
      </trkpt>
      <trkpt lat="49.26564" lon="-0.40886">
        <ele>58.54340633057</ele>
        <time>2022-02-03T09:56:15.897Z</time>
      </trkpt>
      <trkpt lat="49.26564" lon="-0.40886">
        <ele>57.84336000552</ele>
        <time>2022-02-03T09:56:18.126Z</time>
      </trkpt>
      <trkpt lat="49.26564" lon="-0.40886">
        <ele>57.0449646339</ele>
        <time>2022-02-03T09:56:20.355Z</time>
      </trkpt>
      <trkpt lat="49.26565" lon="-0.40887">
        <ele>56.15458227739</ele>
        <time>2022-02-03T09:56:22.584Z</time>
      </trkpt>
      <trkpt lat="49.26565" lon="-0.40887">
        <ele>55.1845530677</ele>
        <time>2022-02-03T09:56:24.813Z</time>
      </trkpt>
      <trkpt lat="49.26575" lon="-0.40894">
        <ele>54.11962278668</ele>
        <time>2022-02-03T09:56:27.044Z</time>
      </trkpt>
      <trkpt lat="49.26675" lon="-0.40891">
        <ele>52.87123893559</ele>
        <time>2022-02-03T09:56:29.291Z</time>
      </trkpt>
      <trkpt lat="49.26826" lon="-0.40882">
        <ele>51.66946921871</ele>
        <time>2022-02-03T09:56:31.563Z</time>
      </trkpt>
      <trkpt lat="49.26897" lon="-0.4088">
        <ele>50.55290577943</ele>
        <time>2022-02-03T09:56:33.846Z</time>
      </trkpt>
      <trkpt lat="49.26941" lon="-0.40881">
        <ele>49.53593038808</ele>
        <time>2022-02-03T09:56:36.136Z</time>
      </trkpt>
      <trkpt lat="49.26956" lon="-0.40889">
        <ele>48.66218825556</ele>
        <time>2022-02-03T09:56:38.428Z</time>
      </trkpt>
      <trkpt lat="49.26981" lon="-0.40909">
        <ele>47.91774692949</ele>
        <time>2022-02-03T09:56:40.725Z</time>
      </trkpt>
      <trkpt lat="49.27015" lon="-0.40948">
        <ele>47.28653425451</ele>
        <time>2022-02-03T09:56:43.029Z</time>
      </trkpt>
      <trkpt lat="49.27043" lon="-0.40997">
        <ele>46.80693722267</ele>
        <time>2022-02-03T09:56:45.340Z</time>
      </trkpt>
      <trkpt lat="49.27043" lon="-0.40997">
        <ele>46.52502397156</ele>
        <time>2022-02-03T09:56:47.651Z</time>
      </trkpt>
      <trkpt lat="49.27057" lon="-0.4103">
        <ele>46.40137110888</ele>
        <time>2022-02-03T09:56:49.966Z</time>
      </trkpt>
      <trkpt lat="49.27121" lon="-0.41215">
        <ele>46.60765821737</ele>
        <time>2022-02-03T09:56:52.303Z</time>
      </trkpt>
      <trkpt lat="49.27134" lon="-0.41251">
        <ele>46.78170485504</ele>
        <time>2022-02-03T09:56:54.644Z</time>
      </trkpt>
      <trkpt lat="49.27156" lon="-0.41289">
        <ele>47.12673893862</ele>
        <time>2022-02-03T09:56:56.990Z</time>
      </trkpt>
      <trkpt lat="49.27166" lon="-0.41304">
        <ele>47.62285214485</ele>
        <time>2022-02-03T09:56:59.339Z</time>
      </trkpt>
      <trkpt lat="49.27199" lon="-0.41345">
        <ele>48.2062991659</ele>
        <time>2022-02-03T09:57:01.694Z</time>
      </trkpt>
      <trkpt lat="49.27238" lon="-0.41381">
        <ele>48.95055636552</ele>
        <time>2022-02-03T09:57:04.057Z</time>
      </trkpt>
      <trkpt lat="49.27289" lon="-0.41424">
        <ele>49.82033787121</ele>
        <time>2022-02-03T09:57:06.429Z</time>
      </trkpt>
      <trkpt lat="49.27313" lon="-0.41451">
        <ele>50.69935512891</ele>
        <time>2022-02-03T09:57:08.806Z</time>
      </trkpt>
      <trkpt lat="49.274" lon="-0.41569">
        <ele>51.7229307705</ele>
        <time>2022-02-03T09:57:11.201Z</time>
      </trkpt>
      <trkpt lat="49.27507" lon="-0.41699">
        <ele>52.74926281798</ele>
        <time>2022-02-03T09:57:13.618Z</time>
      </trkpt>
      <trkpt lat="49.2759" lon="-0.41787">
        <ele>53.75012105667</ele>
        <time>2022-02-03T09:57:16.051Z</time>
      </trkpt>
      <trkpt lat="49.27676" lon="-0.41866">
        <ele>54.71687656088</ele>
        <time>2022-02-03T09:57:18.500Z</time>
      </trkpt>
      <trkpt lat="49.27703" lon="-0.41897">
        <ele>55.58121288125</ele>
        <time>2022-02-03T09:57:20.955Z</time>
      </trkpt>
      <trkpt lat="49.27713" lon="-0.41916">
        <ele>56.36564371365</ele>
        <time>2022-02-03T09:57:23.412Z</time>
      </trkpt>
      <trkpt lat="49.27717" lon="-0.41925">
        <ele>57.0593819815</ele>
        <time>2022-02-03T09:57:25.871Z</time>
      </trkpt>
      <trkpt lat="49.27727" lon="-0.41957">
        <ele>57.66228104642</ele>
        <time>2022-02-03T09:57:28.333Z</time>
      </trkpt>
      <trkpt lat="49.27748" lon="-0.42051">
        <ele>58.16947104053</ele>
        <time>2022-02-03T09:57:30.806Z</time>
      </trkpt>
      <trkpt lat="49.27769" lon="-0.42121">
        <ele>58.58364066453</ele>
        <time>2022-02-03T09:57:33.287Z</time>
      </trkpt>
      <trkpt lat="49.27808" lon="-0.42233">
        <ele>58.94504954058</ele>
        <time>2022-02-03T09:57:35.781Z</time>
      </trkpt>
      <trkpt lat="49.2785" lon="-0.4232">
        <ele>59.14596074458</ele>
        <time>2022-02-03T09:57:38.286Z</time>
      </trkpt>
      <trkpt lat="49.2785" lon="-0.4232">
        <ele>59.29073278484</ele>
        <time>2022-02-03T09:57:40.791Z</time>
      </trkpt>
      <trkpt lat="49.2788" lon="-0.42362">
        <ele>59.34823761289</ele>
        <time>2022-02-03T09:57:43.303Z</time>
      </trkpt>
      <trkpt lat="49.27905" lon="-0.42381">
        <ele>59.35745388528</ele>
        <time>2022-02-03T09:57:45.819Z</time>
      </trkpt>
      <trkpt lat="49.27958" lon="-0.42429">
        <ele>59.31388077088</ele>
        <time>2022-02-03T09:57:48.345Z</time>
      </trkpt>
      <trkpt lat="49.27958" lon="-0.42429">
        <ele>59.2270592148</ele>
        <time>2022-02-03T09:57:50.871Z</time>
      </trkpt>
      <trkpt lat="49.28032" lon="-0.42402">
        <ele>59.1105535341</ele>
        <time>2022-02-03T09:57:53.410Z</time>
      </trkpt>
      <trkpt lat="49.28033" lon="-0.42401">
        <ele>58.96364417173</ele>
        <time>2022-02-03T09:57:55.949Z</time>
      </trkpt>
      <trkpt lat="49.28033" lon="-0.42401">
        <ele>58.79813208576</ele>
        <time>2022-02-03T09:57:58.488Z</time>
      </trkpt>
      <trkpt lat="49.28033" lon="-0.42401">
        <ele>58.62115244155</ele>
        <time>2022-02-03T09:58:01.027Z</time>
      </trkpt>
      <trkpt lat="49.28033" lon="-0.42401">
        <ele>58.4384161895</ele>
        <time>2022-02-03T09:58:03.566Z</time>
      </trkpt>
      <trkpt lat="49.28035" lon="-0.424">
        <ele>58.26027614286</ele>
        <time>2022-02-03T09:58:06.105Z</time>
      </trkpt>
      <trkpt lat="49.28045" lon="-0.42404">
        <ele>58.09918907655</ele>
        <time>2022-02-03T09:58:08.646Z</time>
      </trkpt>
      <trkpt lat="49.28045" lon="-0.42404">
        <ele>57.93188682472</ele>
        <time>2022-02-03T09:58:11.187Z</time>
      </trkpt>
      <trkpt lat="49.28051" lon="-0.42411">
        <ele>57.78823759511</ele>
        <time>2022-02-03T09:58:13.729Z</time>
      </trkpt>
      <trkpt lat="49.28079" lon="-0.42538">
        <ele>57.65204557932</ele>
        <time>2022-02-03T09:58:16.285Z</time>
      </trkpt>
      <trkpt lat="49.28086" lon="-0.42557">
        <ele>57.53035034288</ele>
        <time>2022-02-03T09:58:18.843Z</time>
      </trkpt>
      <trkpt lat="49.28095" lon="-0.42573">
        <ele>57.45666737495</ele>
        <time>2022-02-03T09:58:21.403Z</time>
      </trkpt>
      <trkpt lat="49.28128" lon="-0.4262">
        <ele>57.45653562861</ele>
        <time>2022-02-03T09:58:23.971Z</time>
      </trkpt>
      <trkpt lat="49.28128" lon="-0.4262">
        <ele>57.47299920933</ele>
        <time>2022-02-03T09:58:26.539Z</time>
      </trkpt>
      <trkpt lat="49.28175" lon="-0.42685">
        <ele>57.45360729333</ele>
        <time>2022-02-03T09:58:29.117Z</time>
      </trkpt>
      <trkpt lat="49.28175" lon="-0.42685">
        <ele>57.58974561589</ele>
        <time>2022-02-03T09:58:31.695Z</time>
      </trkpt>
      <trkpt lat="49.28201" lon="-0.42722">
        <ele>57.73948689213</ele>
        <time>2022-02-03T09:58:34.278Z</time>
      </trkpt>
      <trkpt lat="49.2822" lon="-0.42749">
        <ele>57.97198556827</ele>
        <time>2022-02-03T09:58:36.866Z</time>
      </trkpt>
      <trkpt lat="49.28329" lon="-0.42902">
        <ele>58.382223028</ele>
        <time>2022-02-03T09:58:39.477Z</time>
      </trkpt>
      <trkpt lat="49.28355" lon="-0.42937">
        <ele>58.78591503685</ele>
        <time>2022-02-03T09:58:42.094Z</time>
      </trkpt>
      <trkpt lat="49.28504" lon="-0.43137">
        <ele>59.42472289149</ele>
        <time>2022-02-03T09:58:44.743Z</time>
      </trkpt>
      <trkpt lat="49.28553" lon="-0.43198">
        <ele>59.96527250798</ele>
        <time>2022-02-03T09:58:47.402Z</time>
      </trkpt>
      <trkpt lat="49.28594" lon="-0.43225">
        <ele>60.48298870089</ele>
        <time>2022-02-03T09:58:50.068Z</time>
      </trkpt>
      <trkpt lat="49.28791" lon="-0.43289">
        <ele>60.98584442923</ele>
        <time>2022-02-03T09:58:52.766Z</time>
      </trkpt>
      <trkpt lat="49.28858" lon="-0.43308">
        <ele>61.51577437235</ele>
        <time>2022-02-03T09:58:55.475Z</time>
      </trkpt>
      <trkpt lat="49.2888" lon="-0.43318">
        <ele>61.80859620634</ele>
        <time>2022-02-03T09:58:58.188Z</time>
      </trkpt>
      <trkpt lat="49.2888" lon="-0.43318">
        <ele>62.01407272062</ele>
        <time>2022-02-03T09:59:00.901Z</time>
      </trkpt>
      <trkpt lat="49.28929" lon="-0.43295">
        <ele>61.98099862095</ele>
        <time>2022-02-03T09:59:03.622Z</time>
      </trkpt>
      <trkpt lat="49.29031" lon="-0.43236">
        <ele>61.89354143943</ele>
        <time>2022-02-03T09:59:06.360Z</time>
      </trkpt>
      <trkpt lat="49.29056" lon="-0.4323">
        <ele>61.76824861197</ele>
        <time>2022-02-03T09:59:09.102Z</time>
      </trkpt>
      <trkpt lat="49.29071" lon="-0.43228">
        <ele>61.56693394523</ele>
        <time>2022-02-03T09:59:11.847Z</time>
      </trkpt>
      <trkpt lat="49.2909" lon="-0.43232">
        <ele>61.28031477806</ele>
        <time>2022-02-03T09:59:14.595Z</time>
      </trkpt>
      <trkpt lat="49.29094" lon="-0.43235">
        <ele>60.93524842702</ele>
        <time>2022-02-03T09:59:17.344Z</time>
      </trkpt>
      <trkpt lat="49.29112" lon="-0.43249">
        <ele>60.52054522274</ele>
        <time>2022-02-03T09:59:20.096Z</time>
      </trkpt>
      <trkpt lat="49.29142" lon="-0.43296">
        <ele>60.03243571143</ele>
        <time>2022-02-03T09:59:22.855Z</time>
      </trkpt>
      <trkpt lat="49.29152" lon="-0.43304">
        <ele>59.47059015248</ele>
        <time>2022-02-03T09:59:25.616Z</time>
      </trkpt>
      <trkpt lat="49.29168" lon="-0.43308">
        <ele>58.83400034476</ele>
        <time>2022-02-03T09:59:28.379Z</time>
      </trkpt>
      <trkpt lat="49.29237" lon="-0.43309">
        <ele>58.09295814151</ele>
        <time>2022-02-03T09:59:31.153Z</time>
      </trkpt>
      <trkpt lat="49.29271" lon="-0.43303">
        <ele>57.31833610687</ele>
        <time>2022-02-03T09:59:33.933Z</time>
      </trkpt>
      <trkpt lat="49.29334" lon="-0.43283">
        <ele>56.5494527024</ele>
        <time>2022-02-03T09:59:36.723Z</time>
      </trkpt>
      <trkpt lat="49.29359" lon="-0.43276">
        <ele>55.70160926659</ele>
        <time>2022-02-03T09:59:39.517Z</time>
      </trkpt>
      <trkpt lat="49.29389" lon="-0.43274">
        <ele>54.76280682952</ele>
        <time>2022-02-03T09:59:42.316Z</time>
      </trkpt>
      <trkpt lat="49.29576" lon="-0.43276">
        <ele>53.64200161711</ele>
        <time>2022-02-03T09:59:45.145Z</time>
      </trkpt>
      <trkpt lat="49.29674" lon="-0.43275">
        <ele>52.5009132667</ele>
        <time>2022-02-03T09:59:47.989Z</time>
      </trkpt>
      <trkpt lat="49.29674" lon="-0.43275">
        <ele>51.4972276566</ele>
        <time>2022-02-03T09:59:50.833Z</time>
      </trkpt>
      <trkpt lat="49.29828" lon="-0.43273">
        <ele>50.35833971077</ele>
        <time>2022-02-03T09:59:53.702Z</time>
      </trkpt>
      <trkpt lat="49.29854" lon="-0.43273">
        <ele>49.37492811942</ele>
        <time>2022-02-03T09:59:56.575Z</time>
      </trkpt>
      <trkpt lat="49.29866" lon="-0.43272">
        <ele>48.458175221</ele>
        <time>2022-02-03T09:59:59.450Z</time>
      </trkpt>
      <trkpt lat="49.29887" lon="-0.43276">
        <ele>47.60877597779</ele>
        <time>2022-02-03T10:00:02.329Z</time>
      </trkpt>
      <trkpt lat="49.29911" lon="-0.43283">
        <ele>46.83619588012</ele>
        <time>2022-02-03T10:00:05.212Z</time>
      </trkpt>
      <trkpt lat="49.29935" lon="-0.43295">
        <ele>46.12635580452</ele>
        <time>2022-02-03T10:00:08.098Z</time>
      </trkpt>
      <trkpt lat="49.29955" lon="-0.43309">
        <ele>45.44893308668</ele>
        <time>2022-02-03T10:00:10.988Z</time>
      </trkpt>
      <trkpt lat="49.29978" lon="-0.43331">
        <ele>44.80068195541</ele>
        <time>2022-02-03T10:00:13.882Z</time>
      </trkpt>
      <trkpt lat="49.30197" lon="-0.43585">
        <ele>44.11872368075</ele>
        <time>2022-02-03T10:00:16.820Z</time>
      </trkpt>
      <trkpt lat="49.30217" lon="-0.43615">
        <ele>43.63240117918</ele>
        <time>2022-02-03T10:00:19.763Z</time>
      </trkpt>
      <trkpt lat="49.30223" lon="-0.4363">
        <ele>43.19485554054</ele>
        <time>2022-02-03T10:00:22.708Z</time>
      </trkpt>
      <trkpt lat="49.30242" lon="-0.43703">
        <ele>42.82404634311</ele>
        <time>2022-02-03T10:00:25.661Z</time>
      </trkpt>
      <trkpt lat="49.30249" lon="-0.43722">
        <ele>42.55103825785</ele>
        <time>2022-02-03T10:00:28.616Z</time>
      </trkpt>
      <trkpt lat="49.30261" lon="-0.43739">
        <ele>42.32879756545</ele>
        <time>2022-02-03T10:00:31.574Z</time>
      </trkpt>
      <trkpt lat="49.30272" lon="-0.43748">
        <ele>42.16904387285</ele>
        <time>2022-02-03T10:00:34.534Z</time>
      </trkpt>
      <trkpt lat="49.30283" lon="-0.4375">
        <ele>42.06517774863</ele>
        <time>2022-02-03T10:00:37.496Z</time>
      </trkpt>
      <trkpt lat="49.30297" lon="-0.43746">
        <ele>42.01316688383</ele>
        <time>2022-02-03T10:00:40.460Z</time>
      </trkpt>
      <trkpt lat="49.30322" lon="-0.43719">
        <ele>42.0126799277</ele>
        <time>2022-02-03T10:00:43.429Z</time>
      </trkpt>
      <trkpt lat="49.30324" lon="-0.43703">
        <ele>42.01036261704</ele>
        <time>2022-02-03T10:00:46.400Z</time>
      </trkpt>
      <trkpt lat="49.30331" lon="-0.43688">
        <ele>42.02470610786</ele>
        <time>2022-02-03T10:00:49.373Z</time>
      </trkpt>
      <trkpt lat="49.30338" lon="-0.43684">
        <ele>42.04798125315</ele>
        <time>2022-02-03T10:00:52.347Z</time>
      </trkpt>
      <trkpt lat="49.30348" lon="-0.4368">
        <ele>42.07858536548</ele>
        <time>2022-02-03T10:00:55.322Z</time>
      </trkpt>
      <trkpt lat="49.30359" lon="-0.43686">
        <ele>42.11416893257</ele>
        <time>2022-02-03T10:00:58.299Z</time>
      </trkpt>
      <trkpt lat="49.30369" lon="-0.43699">
        <ele>42.14685435309</ele>
        <time>2022-02-03T10:01:01.278Z</time>
      </trkpt>
      <trkpt lat="49.30372" lon="-0.43716">
        <ele>42.19134268997</ele>
        <time>2022-02-03T10:01:04.259Z</time>
      </trkpt>
      <trkpt lat="49.30371" lon="-0.43733">
        <ele>42.24640754792</ele>
        <time>2022-02-03T10:01:07.242Z</time>
      </trkpt>
      <trkpt lat="49.30365" lon="-0.43747">
        <ele>42.32323962426</ele>
        <time>2022-02-03T10:01:10.227Z</time>
      </trkpt>
      <trkpt lat="49.30353" lon="-0.43758">
        <ele>42.42031193227</ele>
        <time>2022-02-03T10:01:13.214Z</time>
      </trkpt>
      <trkpt lat="49.30348" lon="-0.43767">
        <ele>42.56667745385</ele>
        <time>2022-02-03T10:01:16.202Z</time>
      </trkpt>
      <trkpt lat="49.30343" lon="-0.43784">
        <ele>42.77028021065</ele>
        <time>2022-02-03T10:01:19.192Z</time>
      </trkpt>
      <trkpt lat="49.30339" lon="-0.43835">
        <ele>43.00962721464</ele>
        <time>2022-02-03T10:01:22.188Z</time>
      </trkpt>
      <trkpt lat="49.30334" lon="-0.43913">
        <ele>43.28760090488</ele>
        <time>2022-02-03T10:01:25.192Z</time>
      </trkpt>
      <trkpt lat="49.30334" lon="-0.43914">
        <ele>43.73442166419</ele>
        <time>2022-02-03T10:01:28.196Z</time>
      </trkpt>
      <trkpt lat="49.30334" lon="-0.43914">
        <ele>44.27446734947</ele>
        <time>2022-02-03T10:01:31.200Z</time>
      </trkpt>
      <trkpt lat="49.30334" lon="-0.43914">
        <ele>44.90267359369</ele>
        <time>2022-02-03T10:01:34.204Z</time>
      </trkpt>
      <trkpt lat="49.30334" lon="-0.43914">
        <ele>45.60610435656</ele>
        <time>2022-02-03T10:01:37.208Z</time>
      </trkpt>
      <trkpt lat="49.30334" lon="-0.43925">
        <ele>46.36343466653</ele>
        <time>2022-02-03T10:01:40.213Z</time>
      </trkpt>
      <trkpt lat="49.30325" lon="-0.44053">
        <ele>47.19457998965</ele>
        <time>2022-02-03T10:01:43.231Z</time>
      </trkpt>
      <trkpt lat="49.30319" lon="-0.44137">
        <ele>48.00476992832</ele>
        <time>2022-02-03T10:01:46.258Z</time>
      </trkpt>
      <trkpt lat="49.30301" lon="-0.44268">
        <ele>48.77650924611</ele>
        <time>2022-02-03T10:01:49.299Z</time>
      </trkpt>
      <trkpt lat="49.30232" lon="-0.44795">
        <ele>49.67502471629</ele>
        <time>2022-02-03T10:01:52.397Z</time>
      </trkpt>
      <trkpt lat="49.30226" lon="-0.44917">
        <ele>50.04922376282</ele>
        <time>2022-02-03T10:01:55.507Z</time>
      </trkpt>
      <trkpt lat="49.30226" lon="-0.44948">
        <ele>50.22105750477</ele>
        <time>2022-02-03T10:01:58.621Z</time>
      </trkpt>
      <trkpt lat="49.30226" lon="-0.45026">
        <ele>50.15254943916</ele>
        <time>2022-02-03T10:02:01.743Z</time>
      </trkpt>
      <trkpt lat="49.30224" lon="-0.45143">
        <ele>49.74225186644</ele>
        <time>2022-02-03T10:02:04.877Z</time>
      </trkpt>
      <trkpt lat="49.30208" lon="-0.45455">
        <ele>48.83476621107</ele>
        <time>2022-02-03T10:02:08.044Z</time>
      </trkpt>
      <trkpt lat="49.30208" lon="-0.45455">
        <ele>47.78838128233</ele>
        <time>2022-02-03T10:02:11.211Z</time>
      </trkpt>
      <trkpt lat="49.30206" lon="-0.4554">
        <ele>46.38379551207</ele>
        <time>2022-02-03T10:02:14.387Z</time>
      </trkpt>
      <trkpt lat="49.30207" lon="-0.45627">
        <ele>44.64243716619</ele>
        <time>2022-02-03T10:02:17.572Z</time>
      </trkpt>
      <trkpt lat="49.3021" lon="-0.45705">
        <ele>42.58223804141</ele>
        <time>2022-02-03T10:02:20.765Z</time>
      </trkpt>
      <trkpt lat="49.30218" lon="-0.4582">
        <ele>40.15755408731</ele>
        <time>2022-02-03T10:02:23.970Z</time>
      </trkpt>
      <trkpt lat="49.30218" lon="-0.4582">
        <ele>37.90615232164</ele>
        <time>2022-02-03T10:02:27.175Z</time>
      </trkpt>
      <trkpt lat="49.3022" lon="-0.45853">
        <ele>35.47613988783</ele>
        <time>2022-02-03T10:02:30.384Z</time>
      </trkpt>
      <trkpt lat="49.30222" lon="-0.45908">
        <ele>32.95083229512</ele>
        <time>2022-02-03T10:02:33.598Z</time>
      </trkpt>
      <trkpt lat="49.30222" lon="-0.45945">
        <ele>30.44908434716</ele>
        <time>2022-02-03T10:02:36.816Z</time>
      </trkpt>
      <trkpt lat="49.30218" lon="-0.45981">
        <ele>27.93274101474</ele>
        <time>2022-02-03T10:02:40.038Z</time>
      </trkpt>
      <trkpt lat="49.30213" lon="-0.46004">
        <ele>25.48541858181</ele>
        <time>2022-02-03T10:02:43.263Z</time>
      </trkpt>
      <trkpt lat="49.30207" lon="-0.4603">
        <ele>23.12270958393</ele>
        <time>2022-02-03T10:02:46.491Z</time>
      </trkpt>
      <trkpt lat="49.302" lon="-0.46046">
        <ele>20.91982306049</ele>
        <time>2022-02-03T10:02:49.721Z</time>
      </trkpt>
      <trkpt lat="49.30151" lon="-0.46148">
        <ele>18.77701985389</ele>
        <time>2022-02-03T10:02:52.964Z</time>
      </trkpt>
      <trkpt lat="49.30139" lon="-0.46181">
        <ele>16.92147256896</ele>
        <time>2022-02-03T10:02:56.211Z</time>
      </trkpt>
      <trkpt lat="49.30136" lon="-0.46217">
        <ele>15.22563579415</ele>
        <time>2022-02-03T10:02:59.462Z</time>
      </trkpt>
      <trkpt lat="49.3014" lon="-0.46273">
        <ele>13.60947742591</ele>
        <time>2022-02-03T10:03:02.719Z</time>
      </trkpt>
      <trkpt lat="49.30143" lon="-0.46285">
        <ele>12.35024650914</ele>
        <time>2022-02-03T10:03:05.977Z</time>
      </trkpt>
      <trkpt lat="49.30143" lon="-0.46285">
        <ele>11.30861952116</ele>
        <time>2022-02-03T10:03:09.235Z</time>
      </trkpt>
      <trkpt lat="49.30143" lon="-0.46285">
        <ele>10.45969177339</ele>
        <time>2022-02-03T10:03:12.493Z</time>
      </trkpt>
      <trkpt lat="49.30143" lon="-0.46285">
        <ele>9.78836298587</ele>
        <time>2022-02-03T10:03:15.751Z</time>
      </trkpt>
      <trkpt lat="49.30143" lon="-0.46285">
        <ele>9.27736212108</ele>
        <time>2022-02-03T10:03:19.009Z</time>
      </trkpt>
      <trkpt lat="49.30149" lon="-0.46285">
        <ele>8.89613385631</ele>
        <time>2022-02-03T10:03:22.268Z</time>
      </trkpt>
      <trkpt lat="49.30151" lon="-0.46291">
        <ele>8.6371084632</ele>
        <time>2022-02-03T10:03:25.527Z</time>
      </trkpt>
      <trkpt lat="49.30152" lon="-0.46297">
        <ele>8.48123354414</ele>
        <time>2022-02-03T10:03:28.787Z</time>
      </trkpt>
      <trkpt lat="49.3015" lon="-0.46304">
        <ele>8.41394008892</ele>
        <time>2022-02-03T10:03:32.048Z</time>
      </trkpt>
      <trkpt lat="49.30144" lon="-0.46305">
        <ele>8.43186584301</ele>
        <time>2022-02-03T10:03:35.310Z</time>
      </trkpt>
      <trkpt lat="49.30143" lon="-0.46324">
        <ele>8.46815230339</ele>
        <time>2022-02-03T10:03:38.574Z</time>
      </trkpt>
      <trkpt lat="49.30146" lon="-0.46349">
        <ele>8.53663524507</ele>
        <time>2022-02-03T10:03:41.841Z</time>
      </trkpt>
      <trkpt lat="49.30152" lon="-0.46376">
        <ele>8.69082188432</ele>
        <time>2022-02-03T10:03:45.111Z</time>
      </trkpt>
      <trkpt lat="49.30154" lon="-0.46387">
        <ele>8.88680558531</ele>
        <time>2022-02-03T10:03:48.382Z</time>
      </trkpt>
      <trkpt lat="49.30159" lon="-0.4641">
        <ele>9.12394414788</ele>
        <time>2022-02-03T10:03:51.655Z</time>
      </trkpt>
      <trkpt lat="49.3016" lon="-0.46418">
        <ele>9.37962234978</ele>
        <time>2022-02-03T10:03:54.929Z</time>
      </trkpt>
      <trkpt lat="49.30159" lon="-0.46429">
        <ele>9.65405695723</ele>
        <time>2022-02-03T10:03:58.204Z</time>
      </trkpt>
      <trkpt lat="49.30156" lon="-0.46448">
        <ele>9.9480653803</ele>
        <time>2022-02-03T10:04:01.482Z</time>
      </trkpt>
      <trkpt lat="49.30145" lon="-0.46512">
        <ele>10.28798891524</ele>
        <time>2022-02-03T10:04:04.766Z</time>
      </trkpt>
      <trkpt lat="49.30142" lon="-0.46529">
        <ele>10.61749004526</ele>
        <time>2022-02-03T10:04:08.052Z</time>
      </trkpt>
      <trkpt lat="49.30143" lon="-0.4654">
        <ele>10.95036304932</ele>
        <time>2022-02-03T10:04:11.339Z</time>
      </trkpt>
      <trkpt lat="49.3014" lon="-0.46551">
        <ele>11.29744952109</ele>
        <time>2022-02-03T10:04:14.628Z</time>
      </trkpt>
      <trkpt lat="49.30136" lon="-0.46559">
        <ele>11.65674508018</ele>
        <time>2022-02-03T10:04:17.918Z</time>
      </trkpt>
      <trkpt lat="49.30134" lon="-0.46569">
        <ele>12.02237129456</ele>
        <time>2022-02-03T10:04:21.209Z</time>
      </trkpt>
      <trkpt lat="49.30132" lon="-0.46619">
        <ele>12.39493504672</ele>
        <time>2022-02-03T10:04:24.505Z</time>
      </trkpt>
      <trkpt lat="49.30131" lon="-0.46653">
        <ele>12.75918810353</ele>
        <time>2022-02-03T10:04:27.805Z</time>
      </trkpt>
      <trkpt lat="49.30132" lon="-0.46668">
        <ele>13.1244376591</ele>
        <time>2022-02-03T10:04:31.106Z</time>
      </trkpt>
      <trkpt lat="49.30145" lon="-0.46759">
        <ele>13.50096153563</ele>
        <time>2022-02-03T10:04:34.417Z</time>
      </trkpt>
      <trkpt lat="49.30149" lon="-0.46788">
        <ele>13.84189396586</ele>
        <time>2022-02-03T10:04:37.731Z</time>
      </trkpt>
      <trkpt lat="49.30149" lon="-0.46815">
        <ele>14.17310558804</ele>
        <time>2022-02-03T10:04:41.048Z</time>
      </trkpt>
      <trkpt lat="49.30139" lon="-0.46881">
        <ele>14.52306617373</ele>
        <time>2022-02-03T10:04:44.372Z</time>
      </trkpt>
      <trkpt lat="49.30128" lon="-0.4693">
        <ele>14.80871252059</ele>
        <time>2022-02-03T10:04:47.701Z</time>
      </trkpt>
      <trkpt lat="49.30132" lon="-0.4695">
        <ele>14.9471342804</ele>
        <time>2022-02-03T10:04:51.033Z</time>
      </trkpt>
      <trkpt lat="49.30132" lon="-0.46959">
        <ele>14.98096061321</ele>
        <time>2022-02-03T10:04:54.366Z</time>
      </trkpt>
      <trkpt lat="49.3013" lon="-0.46968">
        <ele>14.90409374142</ele>
        <time>2022-02-03T10:04:57.700Z</time>
      </trkpt>
      <trkpt lat="49.30113" lon="-0.46999">
        <ele>14.78488635803</ele>
        <time>2022-02-03T10:05:01.038Z</time>
      </trkpt>
      <trkpt lat="49.30104" lon="-0.47062">
        <ele>14.51942378548</ele>
        <time>2022-02-03T10:05:04.383Z</time>
      </trkpt>
      <trkpt lat="49.301" lon="-0.47403">
        <ele>14.12665817144</ele>
        <time>2022-02-03T10:05:07.763Z</time>
      </trkpt>
      <trkpt lat="49.30094" lon="-0.47464">
        <ele>13.26321565959</ele>
        <time>2022-02-03T10:05:11.150Z</time>
      </trkpt>
      <trkpt lat="49.30084" lon="-0.47523">
        <ele>12.22458944008</ele>
        <time>2022-02-03T10:05:14.543Z</time>
      </trkpt>
      <trkpt lat="49.3008" lon="-0.47532">
        <ele>11.23878411184</ele>
        <time>2022-02-03T10:05:17.937Z</time>
      </trkpt>
      <trkpt lat="49.3008" lon="-0.47532">
        <ele>10.21008280713</ele>
        <time>2022-02-03T10:05:21.331Z</time>
      </trkpt>
      <trkpt lat="49.30064" lon="-0.4758">
        <ele>9.06824610003</ele>
        <time>2022-02-03T10:05:24.731Z</time>
      </trkpt>
      <trkpt lat="49.30034" lon="-0.47644">
        <ele>7.97759408878</ele>
        <time>2022-02-03T10:05:28.139Z</time>
      </trkpt>
      <trkpt lat="49.30013" lon="-0.47695">
        <ele>6.91737471721</ele>
        <time>2022-02-03T10:05:31.554Z</time>
      </trkpt>
      <trkpt lat="49.30009" lon="-0.47742">
        <ele>6.0060132078</ele>
        <time>2022-02-03T10:05:34.974Z</time>
      </trkpt>
      <trkpt lat="49.30007" lon="-0.47758">
        <ele>5.4110672659</ele>
        <time>2022-02-03T10:05:38.395Z</time>
      </trkpt>
      <trkpt lat="49.30009" lon="-0.4781">
        <ele>5.04312061742</ele>
        <time>2022-02-03T10:05:41.822Z</time>
      </trkpt>
      <trkpt lat="49.30013" lon="-0.47858">
        <ele>5.00340675236</ele>
        <time>2022-02-03T10:05:45.254Z</time>
      </trkpt>
      <trkpt lat="49.30016" lon="-0.47892">
        <ele>5.27770162641</ele>
        <time>2022-02-03T10:05:48.689Z</time>
      </trkpt>
      <trkpt lat="49.30019" lon="-0.47914">
        <ele>5.86775754164</ele>
        <time>2022-02-03T10:05:52.127Z</time>
      </trkpt>
      <trkpt lat="49.30018" lon="-0.47929">
        <ele>6.74732122605</ele>
        <time>2022-02-03T10:05:55.566Z</time>
      </trkpt>
      <trkpt lat="49.30012" lon="-0.47954">
        <ele>7.92852949697</ele>
        <time>2022-02-03T10:05:59.008Z</time>
      </trkpt>
      <trkpt lat="49.29984" lon="-0.48037">
        <ele>9.53295058289</ele>
        <time>2022-02-03T10:06:02.460Z</time>
      </trkpt>
      <trkpt lat="49.2997" lon="-0.48103">
        <ele>11.26575992529</ele>
        <time>2022-02-03T10:06:05.919Z</time>
      </trkpt>
      <trkpt lat="49.29958" lon="-0.48163">
        <ele>13.16481557108</ele>
        <time>2022-02-03T10:06:09.385Z</time>
      </trkpt>
      <trkpt lat="49.29936" lon="-0.4825">
        <ele>15.22701434927</ele>
        <time>2022-02-03T10:06:12.860Z</time>
      </trkpt>
      <trkpt lat="49.29909" lon="-0.48411">
        <ele>17.65346335687</ele>
        <time>2022-02-03T10:06:16.353Z</time>
      </trkpt>
      <trkpt lat="49.29906" lon="-0.48475">
        <ele>19.86419612308</ele>
        <time>2022-02-03T10:06:19.853Z</time>
      </trkpt>
      <trkpt lat="49.29902" lon="-0.48584">
        <ele>21.99525384983</ele>
        <time>2022-02-03T10:06:23.364Z</time>
      </trkpt>
      <trkpt lat="49.29888" lon="-0.48661">
        <ele>23.99339904385</ele>
        <time>2022-02-03T10:06:26.883Z</time>
      </trkpt>
      <trkpt lat="49.29855" lon="-0.48826">
        <ele>25.83242420105</ele>
        <time>2022-02-03T10:06:30.420Z</time>
      </trkpt>
      <trkpt lat="49.29837" lon="-0.48966">
        <ele>27.70451294112</ele>
        <time>2022-02-03T10:06:33.972Z</time>
      </trkpt>
      <trkpt lat="49.29825" lon="-0.49007">
        <ele>29.37756081927</ele>
        <time>2022-02-03T10:06:37.529Z</time>
      </trkpt>
      <trkpt lat="49.29774" lon="-0.49108">
        <ele>30.93680343818</ele>
        <time>2022-02-03T10:06:41.100Z</time>
      </trkpt>
      <trkpt lat="49.29742" lon="-0.49206">
        <ele>32.25250277296</ele>
        <time>2022-02-03T10:06:44.682Z</time>
      </trkpt>
      <trkpt lat="49.29726" lon="-0.49302">
        <ele>33.36080224846</ele>
        <time>2022-02-03T10:06:48.274Z</time>
      </trkpt>
      <trkpt lat="49.2972" lon="-0.49406">
        <ele>34.42882520949</ele>
        <time>2022-02-03T10:06:51.877Z</time>
      </trkpt>
      <trkpt lat="49.2972" lon="-0.49503">
        <ele>35.18041988339</ele>
        <time>2022-02-03T10:06:55.490Z</time>
      </trkpt>
      <trkpt lat="49.29735" lon="-0.49771">
        <ele>35.68864816043</ele>
        <time>2022-02-03T10:06:59.132Z</time>
      </trkpt>
      <trkpt lat="49.29736" lon="-0.4997">
        <ele>36.0656856781</ele>
        <time>2022-02-03T10:07:02.794Z</time>
      </trkpt>
      <trkpt lat="49.29734" lon="-0.50005">
        <ele>36.33361566801</ele>
        <time>2022-02-03T10:07:06.460Z</time>
      </trkpt>
      <trkpt lat="49.29719" lon="-0.5009">
        <ele>36.4784509979</ele>
        <time>2022-02-03T10:07:10.135Z</time>
      </trkpt>
      <trkpt lat="49.29719" lon="-0.5009">
        <ele>36.33753544922</ele>
        <time>2022-02-03T10:07:13.810Z</time>
      </trkpt>
      <trkpt lat="49.29713" lon="-0.50115">
        <ele>36.05068911918</ele>
        <time>2022-02-03T10:07:17.488Z</time>
      </trkpt>
      <trkpt lat="49.29709" lon="-0.50223">
        <ele>35.56123156804</ele>
        <time>2022-02-03T10:07:21.177Z</time>
      </trkpt>
      <trkpt lat="49.29712" lon="-0.50304">
        <ele>34.8490648972</ele>
        <time>2022-02-03T10:07:24.875Z</time>
      </trkpt>
      <trkpt lat="49.29709" lon="-0.50352">
        <ele>34.07293352266</ele>
        <time>2022-02-03T10:07:28.578Z</time>
      </trkpt>
      <trkpt lat="49.29692" lon="-0.50476">
        <ele>33.23370496375</ele>
        <time>2022-02-03T10:07:32.294Z</time>
      </trkpt>
      <trkpt lat="49.29688" lon="-0.50658">
        <ele>32.18385181381</ele>
        <time>2022-02-03T10:07:36.029Z</time>
      </trkpt>
      <trkpt lat="49.29682" lon="-0.5081">
        <ele>30.87991581309</ele>
        <time>2022-02-03T10:07:39.780Z</time>
      </trkpt>
      <trkpt lat="49.29662" lon="-0.50928">
        <ele>29.5086655286</ele>
        <time>2022-02-03T10:07:43.544Z</time>
      </trkpt>
      <trkpt lat="49.29655" lon="-0.50985">
        <ele>28.35048247282</ele>
        <time>2022-02-03T10:07:47.314Z</time>
      </trkpt>
      <trkpt lat="49.29655" lon="-0.50985">
        <ele>27.28873462259</ele>
        <time>2022-02-03T10:07:51.084Z</time>
      </trkpt>
      <trkpt lat="49.29654" lon="-0.50986">
        <ele>26.31328336216</ele>
        <time>2022-02-03T10:07:54.854Z</time>
      </trkpt>
      <trkpt lat="49.29654" lon="-0.50986">
        <ele>25.44874806042</ele>
        <time>2022-02-03T10:07:58.624Z</time>
      </trkpt>
      <trkpt lat="49.29653" lon="-0.50994">
        <ele>24.70023571754</ele>
        <time>2022-02-03T10:08:02.395Z</time>
      </trkpt>
      <trkpt lat="49.29648" lon="-0.5106">
        <ele>24.04866012622</ele>
        <time>2022-02-03T10:08:06.173Z</time>
      </trkpt>
      <trkpt lat="49.29641" lon="-0.51137">
        <ele>23.56486585615</ele>
        <time>2022-02-03T10:08:09.959Z</time>
      </trkpt>
      <trkpt lat="49.29629" lon="-0.51213">
        <ele>23.20521945919</ele>
        <time>2022-02-03T10:08:13.753Z</time>
      </trkpt>
      <trkpt lat="49.29619" lon="-0.5126">
        <ele>23.07144843934</ele>
        <time>2022-02-03T10:08:17.553Z</time>
      </trkpt>
      <trkpt lat="49.29599" lon="-0.51464">
        <ele>23.24287954879</ele>
        <time>2022-02-03T10:08:21.374Z</time>
      </trkpt>
      <trkpt lat="49.29599" lon="-0.51464">
        <ele>23.38226922101</ele>
        <time>2022-02-03T10:08:25.195Z</time>
      </trkpt>
      <trkpt lat="49.29584" lon="-0.51607">
        <ele>23.69643069202</ele>
        <time>2022-02-03T10:08:29.031Z</time>
      </trkpt>
      <trkpt lat="49.29583" lon="-0.51803">
        <ele>24.0506583478</ele>
        <time>2022-02-03T10:08:32.888Z</time>
      </trkpt>
      <trkpt lat="49.29548" lon="-0.52105">
        <ele>24.48309227024</ele>
        <time>2022-02-03T10:08:36.777Z</time>
      </trkpt>
      <trkpt lat="49.29504" lon="-0.52527">
        <ele>24.74250503287</ele>
        <time>2022-02-03T10:08:40.711Z</time>
      </trkpt>
      <trkpt lat="49.29504" lon="-0.52527">
        <ele>25.12019634284</ele>
        <time>2022-02-03T10:08:44.645Z</time>
      </trkpt>
      <trkpt lat="49.29487" lon="-0.52683">
        <ele>25.48533301411</ele>
        <time>2022-02-03T10:08:48.595Z</time>
      </trkpt>
      <trkpt lat="49.2949" lon="-0.52715">
        <ele>25.88299955233</ele>
        <time>2022-02-03T10:08:52.549Z</time>
      </trkpt>
      <trkpt lat="49.29498" lon="-0.52715">
        <ele>26.23072395486</ele>
        <time>2022-02-03T10:08:56.504Z</time>
      </trkpt>
      <trkpt lat="49.29501" lon="-0.52717">
        <ele>26.51889897858</ele>
        <time>2022-02-03T10:09:00.459Z</time>
      </trkpt>
      <trkpt lat="49.29505" lon="-0.52727">
        <ele>26.76648191857</ele>
        <time>2022-02-03T10:09:04.416Z</time>
      </trkpt>
      <trkpt lat="49.29505" lon="-0.52739">
        <ele>26.94654722308</ele>
        <time>2022-02-03T10:09:08.374Z</time>
      </trkpt>
      <trkpt lat="49.29502" lon="-0.52747">
        <ele>27.06170772646</ele>
        <time>2022-02-03T10:09:12.333Z</time>
      </trkpt>
      <trkpt lat="49.29495" lon="-0.52752">
        <ele>27.12296849345</ele>
        <time>2022-02-03T10:09:16.293Z</time>
      </trkpt>
      <trkpt lat="49.29488" lon="-0.52748">
        <ele>27.15723009902</ele>
        <time>2022-02-03T10:09:20.254Z</time>
      </trkpt>
      <trkpt lat="49.29478" lon="-0.52777">
        <ele>27.17343289047</ele>
        <time>2022-02-03T10:09:24.219Z</time>
      </trkpt>
      <trkpt lat="49.29478" lon="-0.52777">
        <ele>27.23493821405</ele>
        <time>2022-02-03T10:09:28.184Z</time>
      </trkpt>
      <trkpt lat="49.29477" lon="-0.52777">
        <ele>27.3176747797</ele>
        <time>2022-02-03T10:09:32.149Z</time>
      </trkpt>
      <trkpt lat="49.29472" lon="-0.52815">
        <ele>27.40504145485</ele>
        <time>2022-02-03T10:09:36.118Z</time>
      </trkpt>
      <trkpt lat="49.29441" lon="-0.53121">
        <ele>27.69397083266</ele>
        <time>2022-02-03T10:09:40.119Z</time>
      </trkpt>
      <trkpt lat="49.29432" lon="-0.53187">
        <ele>27.9080855611</ele>
        <time>2022-02-03T10:09:44.127Z</time>
      </trkpt>
      <trkpt lat="49.29429" lon="-0.53235">
        <ele>28.17844243777</ele>
        <time>2022-02-03T10:09:48.140Z</time>
      </trkpt>
      <trkpt lat="49.29425" lon="-0.53363">
        <ele>28.47695502687</ele>
        <time>2022-02-03T10:09:52.167Z</time>
      </trkpt>
      <trkpt lat="49.29422" lon="-0.53452">
        <ele>28.90302510915</ele>
        <time>2022-02-03T10:09:56.203Z</time>
      </trkpt>
      <trkpt lat="49.29418" lon="-0.53563">
        <ele>29.3937543306</ele>
        <time>2022-02-03T10:10:00.251Z</time>
      </trkpt>
      <trkpt lat="49.2933" lon="-0.54343">
        <ele>29.99872575895</ele>
        <time>2022-02-03T10:10:04.382Z</time>
      </trkpt>
      <trkpt lat="49.29296" lon="-0.54325">
        <ele>30.53326480126</ele>
        <time>2022-02-03T10:10:08.518Z</time>
      </trkpt>
      <trkpt lat="49.29296" lon="-0.54325">
        <ele>31.14484737034</ele>
        <time>2022-02-03T10:10:12.655Z</time>
      </trkpt>
      <trkpt lat="49.29295" lon="-0.54325">
        <ele>31.80855331099</ele>
        <time>2022-02-03T10:10:16.792Z</time>
      </trkpt>
      <trkpt lat="49.29295" lon="-0.54325">
        <ele>32.52316840188</ele>
        <time>2022-02-03T10:10:20.929Z</time>
      </trkpt>
      <trkpt lat="49.29296" lon="-0.54325">
        <ele>33.28531846875</ele>
        <time>2022-02-03T10:10:25.066Z</time>
      </trkpt>
      <trkpt lat="49.29296" lon="-0.54325">
        <ele>34.08870998397</ele>
        <time>2022-02-03T10:10:29.203Z</time>
      </trkpt>
      <trkpt lat="49.2933" lon="-0.54343">
        <ele>34.94829647342</ele>
        <time>2022-02-03T10:10:33.346Z</time>
      </trkpt>
      <trkpt lat="49.2933" lon="-0.54343">
        <ele>29.99872575895</ele>
        <time>2022-02-03T10:10:37.489Z</time>
      </trkpt>
      <trkpt lat="49.29285" lon="-0.54762">
        <ele>36.91156822374</ele>
        <time>2022-02-03T10:10:41.676Z</time>
      </trkpt>
      <trkpt lat="49.2923" lon="-0.5524">
        <ele>37.85698368035</ele>
        <time>2022-02-03T10:10:45.914Z</time>
      </trkpt>
      <trkpt lat="49.29174" lon="-0.55715">
        <ele>38.66746368187</ele>
        <time>2022-02-03T10:10:50.202Z</time>
      </trkpt>
      <trkpt lat="49.29163" lon="-0.55799">
        <ele>39.36618011004</ele>
        <time>2022-02-03T10:10:54.499Z</time>
      </trkpt>
      <trkpt lat="49.29156" lon="-0.55861">
        <ele>39.95203456795</ele>
        <time>2022-02-03T10:10:58.803Z</time>
      </trkpt>
      <trkpt lat="49.2914" lon="-0.55991">
        <ele>40.50299265846</ele>
        <time>2022-02-03T10:11:03.121Z</time>
      </trkpt>
      <trkpt lat="49.29139" lon="-0.55991">
        <ele>40.88900323778</ele>
        <time>2022-02-03T10:11:07.439Z</time>
      </trkpt>
      <trkpt lat="49.2913" lon="-0.56072">
        <ele>41.15703495249</ele>
        <time>2022-02-03T10:11:11.766Z</time>
      </trkpt>
      <trkpt lat="49.29121" lon="-0.56147">
        <ele>41.29304074249</ele>
        <time>2022-02-03T10:11:16.100Z</time>
      </trkpt>
      <trkpt lat="49.29117" lon="-0.5629">
        <ele>41.41676262777</ele>
        <time>2022-02-03T10:11:20.449Z</time>
      </trkpt>
      <trkpt lat="49.29115" lon="-0.56322">
        <ele>41.62084640537</ele>
        <time>2022-02-03T10:11:24.802Z</time>
      </trkpt>
      <trkpt lat="49.29115" lon="-0.56322">
        <ele>41.85869051335</ele>
        <time>2022-02-03T10:11:29.155Z</time>
      </trkpt>
      <trkpt lat="49.29115" lon="-0.56336">
        <ele>42.14436148036</ele>
        <time>2022-02-03T10:11:33.509Z</time>
      </trkpt>
      <trkpt lat="49.29088" lon="-0.56537">
        <ele>42.64560609975</ele>
        <time>2022-02-03T10:11:37.885Z</time>
      </trkpt>
      <trkpt lat="49.29079" lon="-0.5657">
        <ele>43.09006838706</ele>
        <time>2022-02-03T10:11:42.264Z</time>
      </trkpt>
      <trkpt lat="49.29071" lon="-0.56617">
        <ele>43.61283072996</ele>
        <time>2022-02-03T10:11:46.649Z</time>
      </trkpt>
      <trkpt lat="49.2906" lon="-0.56719">
        <ele>44.24387213487</ele>
        <time>2022-02-03T10:11:51.044Z</time>
      </trkpt>
      <trkpt lat="49.29043" lon="-0.56904">
        <ele>45.01045088849</ele>
        <time>2022-02-03T10:11:55.459Z</time>
      </trkpt>
      <trkpt lat="49.29041" lon="-0.56919">
        <ele>45.71033629525</ele>
        <time>2022-02-03T10:11:59.876Z</time>
      </trkpt>
      <trkpt lat="49.29041" lon="-0.5692">
        <ele>46.46564230979</ele>
        <time>2022-02-03T10:12:04.293Z</time>
      </trkpt>
      <trkpt lat="49.29041" lon="-0.5692">
        <ele>47.28678503844</ele>
        <time>2022-02-03T10:12:08.710Z</time>
      </trkpt>
      <trkpt lat="49.29041" lon="-0.56921">
        <ele>48.17717423699</ele>
        <time>2022-02-03T10:12:13.127Z</time>
      </trkpt>
      <trkpt lat="49.29041" lon="-0.56921">
        <ele>49.13998302496</ele>
        <time>2022-02-03T10:12:17.544Z</time>
      </trkpt>
      <trkpt lat="49.29028" lon="-0.57026">
        <ele>50.19788252681</ele>
        <time>2022-02-03T10:12:21.972Z</time>
      </trkpt>
      <trkpt lat="49.29065" lon="-0.57028">
        <ele>51.36438487192</ele>
        <time>2022-02-03T10:12:26.406Z</time>
      </trkpt>
      <trkpt lat="49.29074" lon="-0.57034">
        <ele>52.55113572176</ele>
        <time>2022-02-03T10:12:30.842Z</time>
      </trkpt>
      <trkpt lat="49.29176" lon="-0.57219">
        <ele>53.9556266671</ele>
        <time>2022-02-03T10:12:35.303Z</time>
      </trkpt>
      <trkpt lat="49.29254" lon="-0.57359">
        <ele>55.25436087364</ele>
        <time>2022-02-03T10:12:39.783Z</time>
      </trkpt>
      <trkpt lat="49.29326" lon="-0.57499">
        <ele>56.58257461528</ele>
        <time>2022-02-03T10:12:44.282Z</time>
      </trkpt>
      <trkpt lat="49.29326" lon="-0.57499">
        <ele>57.84738354569</ele>
        <time>2022-02-03T10:12:48.781Z</time>
      </trkpt>
      <trkpt lat="49.29408" lon="-0.57664">
        <ele>59.2000589445</ele>
        <time>2022-02-03T10:12:53.301Z</time>
      </trkpt>
      <trkpt lat="49.29481" lon="-0.57796">
        <ele>60.43756682611</ele>
        <time>2022-02-03T10:12:57.840Z</time>
      </trkpt>
      <trkpt lat="49.29513" lon="-0.57853">
        <ele>61.59489605861</ele>
        <time>2022-02-03T10:13:02.386Z</time>
      </trkpt>
      <trkpt lat="49.29563" lon="-0.57967">
        <ele>62.78408391661</ele>
        <time>2022-02-03T10:13:06.947Z</time>
      </trkpt>
      <trkpt lat="49.29627" lon="-0.58057">
        <ele>63.82567788132</ele>
        <time>2022-02-03T10:13:11.522Z</time>
      </trkpt>
      <trkpt lat="49.29646" lon="-0.58095">
        <ele>64.64534363837</ele>
        <time>2022-02-03T10:13:16.102Z</time>
      </trkpt>
      <trkpt lat="49.2968" lon="-0.58173">
        <ele>65.3503245973</ele>
        <time>2022-02-03T10:13:20.692Z</time>
      </trkpt>
      <trkpt lat="49.29691" lon="-0.58224">
        <ele>65.9471092347</ele>
        <time>2022-02-03T10:13:25.287Z</time>
      </trkpt>
      <trkpt lat="49.29698" lon="-0.58278">
        <ele>66.33016354231</ele>
        <time>2022-02-03T10:13:29.888Z</time>
      </trkpt>
      <trkpt lat="49.29698" lon="-0.58278">
        <ele>66.66734090009</ele>
        <time>2022-02-03T10:13:34.489Z</time>
      </trkpt>
      <trkpt lat="49.29698" lon="-0.58279">
        <ele>66.91076186843</ele>
        <time>2022-02-03T10:13:39.090Z</time>
      </trkpt>
      <trkpt lat="49.29698" lon="-0.58279">
        <ele>67.07698719792</ele>
        <time>2022-02-03T10:13:43.691Z</time>
      </trkpt>
      <trkpt lat="49.29698" lon="-0.58279">
        <ele>67.1823676012</ele>
        <time>2022-02-03T10:13:48.292Z</time>
      </trkpt>
      <trkpt lat="49.29698" lon="-0.58285">
        <ele>67.23499199215</ele>
        <time>2022-02-03T10:13:52.894Z</time>
      </trkpt>
      <trkpt lat="49.29698" lon="-0.58304">
        <ele>67.24757643727</ele>
        <time>2022-02-03T10:13:57.498Z</time>
      </trkpt>
      <trkpt lat="49.29676" lon="-0.58396">
        <ele>67.25710314928</ele>
        <time>2022-02-03T10:14:02.112Z</time>
      </trkpt>
      <trkpt lat="49.29662" lon="-0.58446">
        <ele>67.27034480121</ele>
        <time>2022-02-03T10:14:06.732Z</time>
      </trkpt>
      <trkpt lat="49.29653" lon="-0.58519">
        <ele>67.30361600189</ele>
        <time>2022-02-03T10:14:11.359Z</time>
      </trkpt>
      <trkpt lat="49.29658" lon="-0.58734">
        <ele>67.28474832277</ele>
        <time>2022-02-03T10:14:16.009Z</time>
      </trkpt>
      <trkpt lat="49.29658" lon="-0.58734">
        <ele>67.30396598895</ele>
        <time>2022-02-03T10:14:20.659Z</time>
      </trkpt>
      <trkpt lat="49.29659" lon="-0.58741">
        <ele>67.32174164466</ele>
        <time>2022-02-03T10:14:25.310Z</time>
      </trkpt>
      <trkpt lat="49.29652" lon="-0.59042">
        <ele>67.32798662731</ele>
        <time>2022-02-03T10:14:29.992Z</time>
      </trkpt>
      <trkpt lat="49.29648" lon="-0.59237">
        <ele>67.34523714919</ele>
        <time>2022-02-03T10:14:34.695Z</time>
      </trkpt>
      <trkpt lat="49.2965" lon="-0.59259">
        <ele>67.30749809866</ele>
        <time>2022-02-03T10:14:39.400Z</time>
      </trkpt>
      <trkpt lat="49.2967" lon="-0.59304">
        <ele>67.24126831357</ele>
        <time>2022-02-03T10:14:44.111Z</time>
      </trkpt>
      <trkpt lat="49.29735" lon="-0.59481">
        <ele>67.11160837063</ele>
        <time>2022-02-03T10:14:48.843Z</time>
      </trkpt>
      <trkpt lat="49.29783" lon="-0.59579">
        <ele>66.93690180789</ele>
        <time>2022-02-03T10:14:53.588Z</time>
      </trkpt>
      <trkpt lat="49.29818" lon="-0.59682">
        <ele>66.61769974306</ele>
        <time>2022-02-03T10:14:58.345Z</time>
      </trkpt>
      <trkpt lat="49.2997" lon="-0.60112">
        <ele>65.95236591172</ele>
        <time>2022-02-03T10:15:03.153Z</time>
      </trkpt>
      <trkpt lat="49.29994" lon="-0.60169">
        <ele>65.32710060663</ele>
        <time>2022-02-03T10:15:07.968Z</time>
      </trkpt>
      <trkpt lat="49.29994" lon="-0.60169">
        <ele>64.54889490649</ele>
        <time>2022-02-03T10:15:12.783Z</time>
      </trkpt>
      <trkpt lat="49.29999" lon="-0.60179">
        <ele>63.5871172267</ele>
        <time>2022-02-03T10:15:17.600Z</time>
      </trkpt>
      <trkpt lat="49.30011" lon="-0.60197">
        <ele>62.4281129996</ele>
        <time>2022-02-03T10:15:22.419Z</time>
      </trkpt>
      <trkpt lat="49.30136" lon="-0.60333">
        <ele>60.94436884043</ele>
        <time>2022-02-03T10:15:27.263Z</time>
      </trkpt>
      <trkpt lat="49.30173" lon="-0.60354">
        <ele>59.34807351756</ele>
        <time>2022-02-03T10:15:32.113Z</time>
      </trkpt>
      <trkpt lat="49.30206" lon="-0.60358">
        <ele>57.58445259628</ele>
        <time>2022-02-03T10:15:36.969Z</time>
      </trkpt>
      <trkpt lat="49.30206" lon="-0.60358">
        <ele>55.67580921331</ele>
        <time>2022-02-03T10:15:41.825Z</time>
      </trkpt>
      <trkpt lat="49.30206" lon="-0.60358">
        <ele>53.58723459403</ele>
        <time>2022-02-03T10:15:46.681Z</time>
      </trkpt>
      <trkpt lat="49.3022" lon="-0.60359">
        <ele>51.29844735213</ele>
        <time>2022-02-03T10:15:51.539Z</time>
      </trkpt>
      <trkpt lat="49.30237" lon="-0.60359">
        <ele>48.8684101802</ele>
        <time>2022-02-03T10:15:56.399Z</time>
      </trkpt>
      <trkpt lat="49.302" lon="-0.60506">
        <ele>45.99524239095</ele>
        <time>2022-02-03T10:16:01.276Z</time>
      </trkpt>
      <trkpt lat="49.30192" lon="-0.60541">
        <ele>43.33738601604</ele>
        <time>2022-02-03T10:16:06.157Z</time>
      </trkpt>
      <trkpt lat="49.30192" lon="-0.60548">
        <ele>40.75052766827</ele>
        <time>2022-02-03T10:16:11.039Z</time>
      </trkpt>
      <trkpt lat="49.30183" lon="-0.60678">
        <ele>37.99992335049</ele>
        <time>2022-02-03T10:16:15.934Z</time>
      </trkpt>
      <trkpt lat="49.30176" lon="-0.60831">
        <ele>35.29029464522</ele>
        <time>2022-02-03T10:16:20.845Z</time>
      </trkpt>
      <trkpt lat="49.30176" lon="-0.60831">
        <ele>33.08275144573</ele>
        <time>2022-02-03T10:16:25.756Z</time>
      </trkpt>
      <trkpt lat="49.30168" lon="-0.60993">
        <ele>30.98756129749</ele>
        <time>2022-02-03T10:16:30.684Z</time>
      </trkpt>
      <trkpt lat="49.30168" lon="-0.61002">
        <ele>29.28458196449</ele>
        <time>2022-02-03T10:16:35.613Z</time>
      </trkpt>
      <trkpt lat="49.30151" lon="-0.61102">
        <ele>27.80985540952</ele>
        <time>2022-02-03T10:16:40.553Z</time>
      </trkpt>
      <trkpt lat="49.30145" lon="-0.61231">
        <ele>26.65529356705</ele>
        <time>2022-02-03T10:16:45.507Z</time>
      </trkpt>
      <trkpt lat="49.30137" lon="-0.61286">
        <ele>25.96880988836</ele>
        <time>2022-02-03T10:16:50.467Z</time>
      </trkpt>
      <trkpt lat="49.30125" lon="-0.61331">
        <ele>25.57427160325</ele>
        <time>2022-02-03T10:16:55.432Z</time>
      </trkpt>
      <trkpt lat="49.30057" lon="-0.61522">
        <ele>25.52141647148</ele>
        <time>2022-02-03T10:17:00.419Z</time>
      </trkpt>
      <trkpt lat="49.30022" lon="-0.61662">
        <ele>25.82143148219</ele>
        <time>2022-02-03T10:17:05.422Z</time>
      </trkpt>
      <trkpt lat="49.30011" lon="-0.61714">
        <ele>26.32171800676</ele>
        <time>2022-02-03T10:17:10.431Z</time>
      </trkpt>
      <trkpt lat="49.29974" lon="-0.61891">
        <ele>27.03153277997</ele>
        <time>2022-02-03T10:17:15.459Z</time>
      </trkpt>
      <trkpt lat="49.29943" lon="-0.61994">
        <ele>27.9284300318</ele>
        <time>2022-02-03T10:17:20.499Z</time>
      </trkpt>
      <trkpt lat="49.29839" lon="-0.62235">
        <ele>28.87977048034</ele>
        <time>2022-02-03T10:17:25.569Z</time>
      </trkpt>
      <trkpt lat="49.29801" lon="-0.62379">
        <ele>29.99796436809</ele>
        <time>2022-02-03T10:17:30.656Z</time>
      </trkpt>
      <trkpt lat="49.29769" lon="-0.62514">
        <ele>31.15846676553</ele>
        <time>2022-02-03T10:17:35.758Z</time>
      </trkpt>
      <trkpt lat="49.29691" lon="-0.62899">
        <ele>32.41464099489</ele>
        <time>2022-02-03T10:17:40.902Z</time>
      </trkpt>
      <trkpt lat="49.2966" lon="-0.63064">
        <ele>33.6585105036</ele>
        <time>2022-02-03T10:17:46.064Z</time>
      </trkpt>
      <trkpt lat="49.29623" lon="-0.63257">
        <ele>34.96468907328</ele>
        <time>2022-02-03T10:17:51.247Z</time>
      </trkpt>
      <trkpt lat="49.29616" lon="-0.63404">
        <ele>36.21563256404</ele>
        <time>2022-02-03T10:17:56.445Z</time>
      </trkpt>
      <trkpt lat="49.29613" lon="-0.63432">
        <ele>37.44872046532</ele>
        <time>2022-02-03T10:18:01.646Z</time>
      </trkpt>
      <trkpt lat="49.29555" lon="-0.63822">
        <ele>38.60824586745</ele>
        <time>2022-02-03T10:18:06.889Z</time>
      </trkpt>
      <trkpt lat="49.29555" lon="-0.63822">
        <ele>39.85495035072</ele>
        <time>2022-02-03T10:18:12.132Z</time>
      </trkpt>
      <trkpt lat="49.29542" lon="-0.6391">
        <ele>41.15009020517</ele>
        <time>2022-02-03T10:18:17.385Z</time>
      </trkpt>
      <trkpt lat="49.29539" lon="-0.63932">
        <ele>42.44268404916</ele>
        <time>2022-02-03T10:18:22.640Z</time>
      </trkpt>
      <trkpt lat="49.2951" lon="-0.64122">
        <ele>43.88264574503</ele>
        <time>2022-02-03T10:18:27.915Z</time>
      </trkpt>
      <trkpt lat="49.29492" lon="-0.64238">
        <ele>45.43048328705</ele>
        <time>2022-02-03T10:18:33.203Z</time>
      </trkpt>
      <trkpt lat="49.29486" lon="-0.64273">
        <ele>46.85422336127</ele>
        <time>2022-02-03T10:18:38.495Z</time>
      </trkpt>
      <trkpt lat="49.29477" lon="-0.64306">
        <ele>48.26144089032</ele>
        <time>2022-02-03T10:18:43.791Z</time>
      </trkpt>
      <trkpt lat="49.29465" lon="-0.64345">
        <ele>49.55963785788</ele>
        <time>2022-02-03T10:18:49.091Z</time>
      </trkpt>
      <trkpt lat="49.29416" lon="-0.64446">
        <ele>50.83665711621</ele>
        <time>2022-02-03T10:18:54.404Z</time>
      </trkpt>
      <trkpt lat="49.29354" lon="-0.64595">
        <ele>52.13417621863</ele>
        <time>2022-02-03T10:18:59.736Z</time>
      </trkpt>
      <trkpt lat="49.29354" lon="-0.64595">
        <ele>53.30036420224</ele>
        <time>2022-02-03T10:19:05.068Z</time>
      </trkpt>
      <trkpt lat="49.29338" lon="-0.64618">
        <ele>54.41976832296</ele>
        <time>2022-02-03T10:19:10.403Z</time>
      </trkpt>
      <trkpt lat="49.29338" lon="-0.64629">
        <ele>55.51285893819</ele>
        <time>2022-02-03T10:19:15.739Z</time>
      </trkpt>
      <trkpt lat="49.29291" lon="-0.6475">
        <ele>56.64085735592</ele>
        <time>2022-02-03T10:19:21.090Z</time>
      </trkpt>
      <trkpt lat="49.2927" lon="-0.64804">
        <ele>57.7061976393</ele>
        <time>2022-02-03T10:19:26.448Z</time>
      </trkpt>
      <trkpt lat="49.29262" lon="-0.64829">
        <ele>58.68417996994</ele>
        <time>2022-02-03T10:19:31.809Z</time>
      </trkpt>
      <trkpt lat="49.29223" lon="-0.64949">
        <ele>59.67704065143</ele>
        <time>2022-02-03T10:19:37.184Z</time>
      </trkpt>
      <trkpt lat="49.29182" lon="-0.65075">
        <ele>60.66098662561</ele>
        <time>2022-02-03T10:19:42.573Z</time>
      </trkpt>
      <trkpt lat="49.29171" lon="-0.6511">
        <ele>61.54983072206</ele>
        <time>2022-02-03T10:19:47.967Z</time>
      </trkpt>
      <trkpt lat="49.29163" lon="-0.65142">
        <ele>62.34867389763</ele>
        <time>2022-02-03T10:19:53.364Z</time>
      </trkpt>
      <trkpt lat="49.29163" lon="-0.65142">
        <ele>63.01657386945</ele>
        <time>2022-02-03T10:19:58.761Z</time>
      </trkpt>
      <trkpt lat="49.29141" lon="-0.65229">
        <ele>63.59595730781</ele>
        <time>2022-02-03T10:20:04.168Z</time>
      </trkpt>
      <trkpt lat="49.29101" lon="-0.65358">
        <ele>64.16280027382</ele>
        <time>2022-02-03T10:20:09.590Z</time>
      </trkpt>
      <trkpt lat="49.29101" lon="-0.65358">
        <ele>64.58359836297</ele>
        <time>2022-02-03T10:20:15.012Z</time>
      </trkpt>
      <trkpt lat="49.29091" lon="-0.65389">
        <ele>64.94330906375</ele>
        <time>2022-02-03T10:20:20.437Z</time>
      </trkpt>
      <trkpt lat="49.2904" lon="-0.65498">
        <ele>65.24289826478</ele>
        <time>2022-02-03T10:20:25.877Z</time>
      </trkpt>
      <trkpt lat="49.29019" lon="-0.65546">
        <ele>65.41721600811</ele>
        <time>2022-02-03T10:20:31.322Z</time>
      </trkpt>
      <trkpt lat="49.29001" lon="-0.65585">
        <ele>65.52496486369</ele>
        <time>2022-02-03T10:20:36.773Z</time>
      </trkpt>
      <trkpt lat="49.28964" lon="-0.65687">
        <ele>65.56329510295</ele>
        <time>2022-02-03T10:20:42.236Z</time>
      </trkpt>
      <trkpt lat="49.29" lon="-0.65714">
        <ele>65.59363002676</ele>
        <time>2022-02-03T10:20:47.705Z</time>
      </trkpt>
      <trkpt lat="49.29109" lon="-0.65713">
        <ele>65.53975981513</ele>
        <time>2022-02-03T10:20:53.192Z</time>
      </trkpt>
      <trkpt lat="49.29114" lon="-0.65728">
        <ele>65.47846114985</ele>
        <time>2022-02-03T10:20:58.681Z</time>
      </trkpt>
      <trkpt lat="49.29112" lon="-0.65785">
        <ele>65.42463502207</ele>
        <time>2022-02-03T10:21:04.175Z</time>
      </trkpt>
      <trkpt lat="49.29102" lon="-0.65872">
        <ele>65.29144527141</ele>
        <time>2022-02-03T10:21:09.679Z</time>
      </trkpt>
      <trkpt lat="49.29102" lon="-0.65892">
        <ele>65.16599218582</ele>
        <time>2022-02-03T10:21:15.185Z</time>
      </trkpt>
      <trkpt lat="49.29103" lon="-0.65897">
        <ele>65.04593949994</ele>
        <time>2022-02-03T10:21:20.691Z</time>
      </trkpt>
      <trkpt lat="49.29113" lon="-0.65915">
        <ele>64.91298455271</ele>
        <time>2022-02-03T10:21:26.200Z</time>
      </trkpt>
      <trkpt lat="49.2912" lon="-0.65924">
        <ele>64.78714453638</ele>
        <time>2022-02-03T10:21:31.710Z</time>
      </trkpt>
      <trkpt lat="49.2912" lon="-0.65924">
        <ele>64.66530381124</ele>
        <time>2022-02-03T10:21:37.220Z</time>
      </trkpt>
      <trkpt lat="49.29197" lon="-0.66004">
        <ele>64.51067772875</ele>
        <time>2022-02-03T10:21:42.745Z</time>
      </trkpt>
      <trkpt lat="49.2929" lon="-0.66111">
        <ele>64.36294669129</ele>
        <time>2022-02-03T10:21:48.289Z</time>
      </trkpt>
      <trkpt lat="49.29348" lon="-0.6618">
        <ele>64.23486186279</ele>
        <time>2022-02-03T10:21:53.845Z</time>
      </trkpt>
      <trkpt lat="49.29371" lon="-0.66223">
        <ele>64.04687227509</ele>
        <time>2022-02-03T10:21:59.406Z</time>
      </trkpt>
      <trkpt lat="49.29469" lon="-0.66464">
        <ele>63.80398012808</ele>
        <time>2022-02-03T10:22:04.997Z</time>
      </trkpt>
      <trkpt lat="49.2949" lon="-0.66514">
        <ele>63.52003158556</ele>
        <time>2022-02-03T10:22:10.594Z</time>
      </trkpt>
      <trkpt lat="49.29496" lon="-0.66543">
        <ele>63.16847629563</ele>
        <time>2022-02-03T10:22:16.195Z</time>
      </trkpt>
      <trkpt lat="49.29502" lon="-0.66572">
        <ele>62.73181810127</ele>
        <time>2022-02-03T10:22:21.799Z</time>
      </trkpt>
      <trkpt lat="49.29547" lon="-0.66701">
        <ele>62.18970425874</ele>
        <time>2022-02-03T10:22:27.418Z</time>
      </trkpt>
      <trkpt lat="49.29556" lon="-0.66736">
        <ele>61.58020471186</ele>
        <time>2022-02-03T10:22:33.041Z</time>
      </trkpt>
      <trkpt lat="49.29558" lon="-0.66743">
        <ele>60.89459971296</ele>
        <time>2022-02-03T10:22:38.665Z</time>
      </trkpt>
      <trkpt lat="49.29561" lon="-0.66754">
        <ele>60.12161608424</ele>
        <time>2022-02-03T10:22:44.290Z</time>
      </trkpt>
      <trkpt lat="49.29568" lon="-0.66803">
        <ele>59.22743920532</ele>
        <time>2022-02-03T10:22:49.920Z</time>
      </trkpt>
      <trkpt lat="49.29635" lon="-0.67035">
        <ele>58.13934175739</ele>
        <time>2022-02-03T10:22:55.577Z</time>
      </trkpt>
      <trkpt lat="49.29659" lon="-0.67156">
        <ele>57.22404093417</ele>
        <time>2022-02-03T10:23:01.247Z</time>
      </trkpt>
      <trkpt lat="49.29716" lon="-0.67746">
        <ele>56.23482529689</ele>
        <time>2022-02-03T10:23:06.980Z</time>
      </trkpt>
      <trkpt lat="49.29739" lon="-0.67994">
        <ele>55.046422646</ele>
        <time>2022-02-03T10:23:12.739Z</time>
      </trkpt>
      <trkpt lat="49.29793" lon="-0.68265">
        <ele>53.86512382383</ele>
        <time>2022-02-03T10:23:18.528Z</time>
      </trkpt>
      <trkpt lat="49.2984" lon="-0.68449">
        <ele>52.72923215505</ele>
        <time>2022-02-03T10:23:24.337Z</time>
      </trkpt>
      <trkpt lat="49.29894" lon="-0.68612">
        <ele>51.71332217497</ele>
        <time>2022-02-03T10:23:30.165Z</time>
      </trkpt>
      <trkpt lat="49.2996" lon="-0.68565">
        <ele>50.93726131451</ele>
        <time>2022-02-03T10:23:36.005Z</time>
      </trkpt>
      <trkpt lat="49.2996" lon="-0.68565">
        <ele>50.01883851796</ele>
        <time>2022-02-03T10:23:41.845Z</time>
      </trkpt>
      <trkpt lat="49.2996" lon="-0.68565">
        <ele>49.10197572519</ele>
        <time>2022-02-03T10:23:47.685Z</time>
      </trkpt>
      <trkpt lat="49.29959" lon="-0.68565">
        <ele>48.16970471896</ele>
        <time>2022-02-03T10:23:53.525Z</time>
      </trkpt>
      <trkpt lat="49.29959" lon="-0.68565">
        <ele>47.20756343861</ele>
        <time>2022-02-03T10:23:59.365Z</time>
      </trkpt>
      <trkpt lat="49.29959" lon="-0.68565">
        <ele>46.20284757936</ele>
        <time>2022-02-03T10:24:05.205Z</time>
      </trkpt>
      <trkpt lat="49.29894" lon="-0.68612">
        <ele>44.98649718859</ele>
        <time>2022-02-03T10:24:11.057Z</time>
      </trkpt>
      <trkpt lat="49.29902" lon="-0.6864">
        <ele>43.8666352052</ele>
        <time>2022-02-03T10:24:16.912Z</time>
      </trkpt>
      <trkpt lat="49.29926" lon="-0.68792">
        <ele>42.6197211923</ele>
        <time>2022-02-03T10:24:22.783Z</time>
      </trkpt>
      <trkpt lat="49.29937" lon="-0.68828">
        <ele>41.3752864518</ele>
        <time>2022-02-03T10:24:28.658Z</time>
      </trkpt>
      <trkpt lat="49.29971" lon="-0.68876">
        <ele>40.09920587276</ele>
        <time>2022-02-03T10:24:34.541Z</time>
      </trkpt>
      <trkpt lat="49.29984" lon="-0.689">
        <ele>38.84805971374</ele>
        <time>2022-02-03T10:24:40.427Z</time>
      </trkpt>
      <trkpt lat="49.2999" lon="-0.68919">
        <ele>37.5983380309</ele>
        <time>2022-02-03T10:24:46.315Z</time>
      </trkpt>
      <trkpt lat="49.30015" lon="-0.69186">
        <ele>36.07588344985</ele>
        <time>2022-02-03T10:24:52.232Z</time>
      </trkpt>
      <trkpt lat="49.30025" lon="-0.69277">
        <ele>34.82506556968</ele>
        <time>2022-02-03T10:24:58.158Z</time>
      </trkpt>
      <trkpt lat="49.30024" lon="-0.69406">
        <ele>33.68284253106</ele>
        <time>2022-02-03T10:25:04.098Z</time>
      </trkpt>
      <trkpt lat="49.3005" lon="-0.69674">
        <ele>32.77061764426</ele>
        <time>2022-02-03T10:25:10.066Z</time>
      </trkpt>
      <trkpt lat="49.30066" lon="-0.69867">
        <ele>31.8722316298</ele>
        <time>2022-02-03T10:25:16.055Z</time>
      </trkpt>
      <trkpt lat="49.30066" lon="-0.69895">
        <ele>30.99532684538</ele>
        <time>2022-02-03T10:25:22.047Z</time>
      </trkpt>
      <trkpt lat="49.30065" lon="-0.70014">
        <ele>30.17227409483</ele>
        <time>2022-02-03T10:25:28.051Z</time>
      </trkpt>
      <trkpt lat="49.30071" lon="-0.70038">
        <ele>29.53703843936</ele>
        <time>2022-02-03T10:25:34.058Z</time>
      </trkpt>
      <trkpt lat="49.30102" lon="-0.70088">
        <ele>29.04233858416</ele>
        <time>2022-02-03T10:25:40.072Z</time>
      </trkpt>
      <trkpt lat="49.30173" lon="-0.70161">
        <ele>28.56092900452</ele>
        <time>2022-02-03T10:25:46.100Z</time>
      </trkpt>
      <trkpt lat="49.30209" lon="-0.70197">
        <ele>28.32143910625</ele>
        <time>2022-02-03T10:25:52.134Z</time>
      </trkpt>
      <trkpt lat="49.30283" lon="-0.7026">
        <ele>28.31424866006</ele>
        <time>2022-02-03T10:25:58.182Z</time>
      </trkpt>
      <trkpt lat="49.30303" lon="-0.70276">
        <ele>28.45444039996</ele>
        <time>2022-02-03T10:26:04.234Z</time>
      </trkpt>
      <trkpt lat="49.30315" lon="-0.70283">
        <ele>28.72201686584</ele>
        <time>2022-02-03T10:26:10.288Z</time>
      </trkpt>
      <trkpt lat="49.30315" lon="-0.70283">
        <ele>29.14765864309</ele>
        <time>2022-02-03T10:26:16.342Z</time>
      </trkpt>
      <trkpt lat="49.30316" lon="-0.70284">
        <ele>29.73070032314</ele>
        <time>2022-02-03T10:26:22.396Z</time>
      </trkpt>
      <trkpt lat="49.30316" lon="-0.70284">
        <ele>30.46646000282</ele>
        <time>2022-02-03T10:26:28.450Z</time>
      </trkpt>
      <trkpt lat="49.30316" lon="-0.70284">
        <ele>31.34717007139</ele>
        <time>2022-02-03T10:26:34.504Z</time>
      </trkpt>
      <trkpt lat="49.30429" lon="-0.70349">
        <ele>32.33667301303</ele>
        <time>2022-02-03T10:26:40.577Z</time>
      </trkpt>
      <trkpt lat="49.30444" lon="-0.70352">
        <ele>33.4947299881</ele>
        <time>2022-02-03T10:26:46.653Z</time>
      </trkpt>
      <trkpt lat="49.30488" lon="-0.70355">
        <ele>34.77516854914</ele>
        <time>2022-02-03T10:26:52.736Z</time>
      </trkpt>
      <trkpt lat="49.30511" lon="-0.70358">
        <ele>36.10793536064</ele>
        <time>2022-02-03T10:26:58.822Z</time>
      </trkpt>
      <trkpt lat="49.30562" lon="-0.70374">
        <ele>37.551387274</ele>
        <time>2022-02-03T10:27:04.917Z</time>
      </trkpt>
      <trkpt lat="49.30589" lon="-0.70373">
        <ele>38.93869560837</ele>
        <time>2022-02-03T10:27:11.016Z</time>
      </trkpt>
      <trkpt lat="49.30598" lon="-0.7037">
        <ele>40.18455257813</ele>
        <time>2022-02-03T10:27:17.116Z</time>
      </trkpt>
      <trkpt lat="49.3065" lon="-0.70356">
        <ele>41.4290565855</ele>
        <time>2022-02-03T10:27:23.225Z</time>
      </trkpt>
      <trkpt lat="49.30703" lon="-0.70309">
        <ele>42.45502570979</ele>
        <time>2022-02-03T10:27:29.344Z</time>
      </trkpt>
      <trkpt lat="49.30817" lon="-0.70145">
        <ele>43.28782183015</ele>
        <time>2022-02-03T10:27:35.488Z</time>
      </trkpt>
      <trkpt lat="49.30861" lon="-0.70098">
        <ele>43.78059149208</ele>
        <time>2022-02-03T10:27:41.641Z</time>
      </trkpt>
      <trkpt lat="49.30936" lon="-0.70035">
        <ele>44.06262903212</ele>
        <time>2022-02-03T10:27:47.807Z</time>
      </trkpt>
      <trkpt lat="49.30974" lon="-0.70009">
        <ele>44.11826648722</ele>
        <time>2022-02-03T10:27:53.980Z</time>
      </trkpt>
      <trkpt lat="49.31081" lon="-0.69946">
        <ele>43.94015090201</ele>
        <time>2022-02-03T10:28:00.171Z</time>
      </trkpt>
      <trkpt lat="49.31201" lon="-0.69919">
        <ele>43.29310940284</ele>
        <time>2022-02-03T10:28:06.382Z</time>
      </trkpt>
      <trkpt lat="49.31273" lon="-0.69911">
        <ele>42.62269213361</ele>
        <time>2022-02-03T10:28:12.604Z</time>
      </trkpt>
      <trkpt lat="49.3135" lon="-0.69908">
        <ele>41.79740813767</ele>
        <time>2022-02-03T10:28:18.838Z</time>
      </trkpt>
      <trkpt lat="49.31457" lon="-0.69935">
        <ele>40.77215648295</ele>
        <time>2022-02-03T10:28:25.090Z</time>
      </trkpt>
      <trkpt lat="49.31527" lon="-0.69955">
        <ele>39.78837007694</ele>
        <time>2022-02-03T10:28:31.353Z</time>
      </trkpt>
      <trkpt lat="49.31527" lon="-0.69955">
        <ele>38.7953644901</ele>
        <time>2022-02-03T10:28:37.616Z</time>
      </trkpt>
      <trkpt lat="49.31603" lon="-0.69977">
        <ele>37.74783443055</ele>
        <time>2022-02-03T10:28:43.892Z</time>
      </trkpt>
      <trkpt lat="49.31603" lon="-0.69977">
        <ele>36.77831508102</ele>
        <time>2022-02-03T10:28:50.168Z</time>
      </trkpt>
      <trkpt lat="49.31652" lon="-0.69992">
        <ele>35.82295459942</ele>
        <time>2022-02-03T10:28:56.452Z</time>
      </trkpt>
      <trkpt lat="49.31861" lon="-0.70116">
        <ele>34.8986708671</ele>
        <time>2022-02-03T10:29:02.772Z</time>
      </trkpt>
      <trkpt lat="49.32097" lon="-0.70269">
        <ele>34.03931211456</ele>
        <time>2022-02-03T10:29:09.133Z</time>
      </trkpt>
      <trkpt lat="49.32114" lon="-0.70278">
        <ele>33.35813962383</ele>
        <time>2022-02-03T10:29:15.496Z</time>
      </trkpt>
      <trkpt lat="49.32142" lon="-0.70287">
        <ele>32.81566858809</ele>
        <time>2022-02-03T10:29:21.864Z</time>
      </trkpt>
      <trkpt lat="49.32233" lon="-0.70277">
        <ele>32.440870143</ele>
        <time>2022-02-03T10:29:28.247Z</time>
      </trkpt>
      <trkpt lat="49.32281" lon="-0.70276">
        <ele>32.04388925056</ele>
        <time>2022-02-03T10:29:34.637Z</time>
      </trkpt>
      <trkpt lat="49.32432" lon="-0.70257">
        <ele>31.91031057788</ele>
        <time>2022-02-03T10:29:41.052Z</time>
      </trkpt>
      <trkpt lat="49.32527" lon="-0.70232">
        <ele>31.61312422088</ele>
        <time>2022-02-03T10:29:47.482Z</time>
      </trkpt>
      <trkpt lat="49.32552" lon="-0.70219">
        <ele>31.28612104246</ele>
        <time>2022-02-03T10:29:53.916Z</time>
      </trkpt>
      <trkpt lat="49.32626" lon="-0.70184">
        <ele>30.92509744375</ele>
        <time>2022-02-03T10:30:00.363Z</time>
      </trkpt>
      <trkpt lat="49.32732" lon="-0.70141">
        <ele>30.59671688591</ele>
        <time>2022-02-03T10:30:06.827Z</time>
      </trkpt>
      <trkpt lat="49.32757" lon="-0.70117">
        <ele>30.40125766651</ele>
        <time>2022-02-03T10:30:13.296Z</time>
      </trkpt>
      <trkpt lat="49.32781" lon="-0.70081">
        <ele>30.26465254479</ele>
        <time>2022-02-03T10:30:19.770Z</time>
      </trkpt>
      <trkpt lat="49.32781" lon="-0.70081">
        <ele>30.21697498892</ele>
        <time>2022-02-03T10:30:26.244Z</time>
      </trkpt>
      <trkpt lat="49.32811" lon="-0.70035">
        <ele>30.29174482516</ele>
        <time>2022-02-03T10:30:32.725Z</time>
      </trkpt>
      <trkpt lat="49.3288" lon="-0.69975">
        <ele>30.49836514603</ele>
        <time>2022-02-03T10:30:39.219Z</time>
      </trkpt>
      <trkpt lat="49.32924" lon="-0.69954">
        <ele>30.64546779264</ele>
        <time>2022-02-03T10:30:45.720Z</time>
      </trkpt>
      <trkpt lat="49.32924" lon="-0.69954">
        <ele>30.87169062403</ele>
        <time>2022-02-03T10:30:52.221Z</time>
      </trkpt>
      <trkpt lat="49.32935" lon="-0.69949">
        <ele>31.16768968796</ele>
        <time>2022-02-03T10:30:58.724Z</time>
      </trkpt>
      <trkpt lat="49.33023" lon="-0.69938">
        <ele>31.58808432669</ele>
        <time>2022-02-03T10:31:05.241Z</time>
      </trkpt>
      <trkpt lat="49.33142" lon="-0.69945">
        <ele>31.97703080756</ele>
        <time>2022-02-03T10:31:11.777Z</time>
      </trkpt>
      <trkpt lat="49.33181" lon="-0.69935">
        <ele>32.51450885691</ele>
        <time>2022-02-03T10:31:18.320Z</time>
      </trkpt>
      <trkpt lat="49.33237" lon="-0.69899">
        <ele>33.21000969601</ele>
        <time>2022-02-03T10:31:24.872Z</time>
      </trkpt>
      <trkpt lat="49.33281" lon="-0.69878">
        <ele>34.02749816087</ele>
        <time>2022-02-03T10:31:31.432Z</time>
      </trkpt>
      <trkpt lat="49.33314" lon="-0.69867">
        <ele>34.92181592437</ele>
        <time>2022-02-03T10:31:37.997Z</time>
      </trkpt>
      <trkpt lat="49.33347" lon="-0.69864">
        <ele>35.93220765073</ele>
        <time>2022-02-03T10:31:44.568Z</time>
      </trkpt>
      <trkpt lat="49.33396" lon="-0.69866">
        <ele>37.13802417401</ele>
        <time>2022-02-03T10:31:51.146Z</time>
      </trkpt>
      <trkpt lat="49.33424" lon="-0.69859">
        <ele>38.35059638829</ele>
        <time>2022-02-03T10:31:57.729Z</time>
      </trkpt>
      <trkpt lat="49.33424" lon="-0.69859">
        <ele>39.50991251384</ele>
        <time>2022-02-03T10:32:04.312Z</time>
      </trkpt>
      <trkpt lat="49.33472" lon="-0.69844">
        <ele>40.83272375785</ele>
        <time>2022-02-03T10:32:10.903Z</time>
      </trkpt>
      <trkpt lat="49.33484" lon="-0.69838">
        <ele>42.07679950237</ele>
        <time>2022-02-03T10:32:17.496Z</time>
      </trkpt>
      <trkpt lat="49.3351" lon="-0.69808">
        <ele>43.35484941202</ele>
        <time>2022-02-03T10:32:24.094Z</time>
      </trkpt>
      <trkpt lat="49.33521" lon="-0.69799">
        <ele>44.64323822852</ele>
        <time>2022-02-03T10:32:30.694Z</time>
      </trkpt>
      <trkpt lat="49.33537" lon="-0.69771">
        <ele>45.9804826646</ele>
        <time>2022-02-03T10:32:37.298Z</time>
      </trkpt>
      <trkpt lat="49.33548" lon="-0.69746">
        <ele>47.330397685</ele>
        <time>2022-02-03T10:32:43.905Z</time>
      </trkpt>
      <trkpt lat="49.33557" lon="-0.69728">
        <ele>48.69332542201</ele>
        <time>2022-02-03T10:32:50.514Z</time>
      </trkpt>
      <trkpt lat="49.33582" lon="-0.69661">
        <ele>50.15346016786</ele>
        <time>2022-02-03T10:32:57.131Z</time>
      </trkpt>
      <trkpt lat="49.33597" lon="-0.69641">
        <ele>51.5793092982</ele>
        <time>2022-02-03T10:33:03.752Z</time>
      </trkpt>
      <trkpt lat="49.33632" lon="-0.69608">
        <ele>53.04778751947</ele>
        <time>2022-02-03T10:33:10.379Z</time>
      </trkpt>
      <trkpt lat="49.33646" lon="-0.69594">
        <ele>54.47261097562</ele>
        <time>2022-02-03T10:33:17.009Z</time>
      </trkpt>
      <trkpt lat="49.33664" lon="-0.69578">
        <ele>55.9057193796</ele>
        <time>2022-02-03T10:33:23.642Z</time>
      </trkpt>
      <trkpt lat="49.33687" lon="-0.69548">
        <ele>57.3585669022</ele>
        <time>2022-02-03T10:33:30.280Z</time>
      </trkpt>
      <trkpt lat="49.33781" lon="-0.6942">
        <ele>58.8617796094</ele>
        <time>2022-02-03T10:33:36.938Z</time>
      </trkpt>
      <trkpt lat="49.33846" lon="-0.69335">
        <ele>60.2899735483</ele>
        <time>2022-02-03T10:33:43.610Z</time>
      </trkpt>
      <trkpt lat="49.33893" lon="-0.6928">
        <ele>61.67105425009</ele>
        <time>2022-02-03T10:33:50.291Z</time>
      </trkpt>
      <trkpt lat="49.33928" lon="-0.69242">
        <ele>63.02209680643</ele>
        <time>2022-02-03T10:33:56.979Z</time>
      </trkpt>
      <trkpt lat="49.33963" lon="-0.6921">
        <ele>64.31253696139</ele>
        <time>2022-02-03T10:34:03.674Z</time>
      </trkpt>
      <trkpt lat="49.34051" lon="-0.69158">
        <ele>65.57479113634</ele>
        <time>2022-02-03T10:34:10.384Z</time>
      </trkpt>
      <trkpt lat="49.3415" lon="-0.69118">
        <ele>66.75218148758</ele>
        <time>2022-02-03T10:34:17.110Z</time>
      </trkpt>
      <trkpt lat="49.3422" lon="-0.69099">
        <ele>67.81972281167</ele>
        <time>2022-02-03T10:34:23.848Z</time>
      </trkpt>
      <trkpt lat="49.34278" lon="-0.69086">
        <ele>68.79759471344</ele>
        <time>2022-02-03T10:34:30.595Z</time>
      </trkpt>
      <trkpt lat="49.3428" lon="-0.69087">
        <ele>69.63841414787</ele>
        <time>2022-02-03T10:34:37.342Z</time>
      </trkpt>
      <trkpt lat="49.3428" lon="-0.69087">
        <ele>70.38466116256</ele>
        <time>2022-02-03T10:34:44.089Z</time>
      </trkpt>
      <trkpt lat="49.34281" lon="-0.69087">
        <ele>71.04247073421</ele>
        <time>2022-02-03T10:34:50.836Z</time>
      </trkpt>
      <trkpt lat="49.34281" lon="-0.69087">
        <ele>71.61536689705</ele>
        <time>2022-02-03T10:34:57.583Z</time>
      </trkpt>
      <trkpt lat="49.34281" lon="-0.69087">
        <ele>72.10715433058</ele>
        <time>2022-02-03T10:35:04.330Z</time>
      </trkpt>
      <trkpt lat="49.34288" lon="-0.69088">
        <ele>72.52060268372</ele>
        <time>2022-02-03T10:35:11.079Z</time>
      </trkpt>
      <trkpt lat="49.34305" lon="-0.69098">
        <ele>72.8561822352</ele>
        <time>2022-02-03T10:35:17.831Z</time>
      </trkpt>
      <trkpt lat="49.34308" lon="-0.69134">
        <ele>73.12534391183</ele>
        <time>2022-02-03T10:35:24.586Z</time>
      </trkpt>
      <trkpt lat="49.34308" lon="-0.69203">
        <ele>73.33279822812</ele>
        <time>2022-02-03T10:35:31.349Z</time>
      </trkpt>
      <trkpt lat="49.34308" lon="-0.69241">
        <ele>73.41619316633</ele>
        <time>2022-02-03T10:35:38.116Z</time>
      </trkpt>
      <trkpt lat="49.34311" lon="-0.69351">
        <ele>73.42885108559</ele>
        <time>2022-02-03T10:35:44.894Z</time>
      </trkpt>
      <trkpt lat="49.34319" lon="-0.69427">
        <ele>73.28512189966</ele>
        <time>2022-02-03T10:35:51.680Z</time>
      </trkpt>
      <trkpt lat="49.34319" lon="-0.69449">
        <ele>73.01246910991</ele>
        <time>2022-02-03T10:35:58.468Z</time>
      </trkpt>
      <trkpt lat="49.34317" lon="-0.69472">
        <ele>72.59979968081</ele>
        <time>2022-02-03T10:36:05.259Z</time>
      </trkpt>
      <trkpt lat="49.34312" lon="-0.69498">
        <ele>72.03639524938</ele>
        <time>2022-02-03T10:36:12.053Z</time>
      </trkpt>
      <trkpt lat="49.34287" lon="-0.69585">
        <ele>71.32993898256</ele>
        <time>2022-02-03T10:36:18.857Z</time>
      </trkpt>
      <trkpt lat="49.34278" lon="-0.69653">
        <ele>70.46988328181</ele>
        <time>2022-02-03T10:36:25.668Z</time>
      </trkpt>
      <trkpt lat="49.34247" lon="-0.69909">
        <ele>69.32570706803</ele>
        <time>2022-02-03T10:36:32.506Z</time>
      </trkpt>
      <trkpt lat="49.34238" lon="-0.6992">
        <ele>68.18565727809</ele>
        <time>2022-02-03T10:36:39.346Z</time>
      </trkpt>
      <trkpt lat="49.33792" lon="-0.70075">
        <ele>66.55120214764</ele>
        <time>2022-02-03T10:36:46.259Z</time>
      </trkpt>
      <trkpt lat="49.33792" lon="-0.70075">
        <ele>65.25111504208</ele>
        <time>2022-02-03T10:36:53.172Z</time>
      </trkpt>
      <trkpt lat="49.33791" lon="-0.70075">
        <ele>63.91967036716</ele>
        <time>2022-02-03T10:37:00.085Z</time>
      </trkpt>
      <trkpt lat="49.33791" lon="-0.70075">
        <ele>62.57862326752</ele>
        <time>2022-02-03T10:37:06.999Z</time>
      </trkpt>
      <trkpt lat="49.33791" lon="-0.70075">
        <ele>61.24627944756</ele>
        <time>2022-02-03T10:37:13.913Z</time>
      </trkpt>
      <trkpt lat="49.33778" lon="-0.7008">
        <ele>59.91542962168</ele>
        <time>2022-02-03T10:37:20.829Z</time>
      </trkpt>
      <trkpt lat="49.33734" lon="-0.6992">
        <ele>58.57167157522</ele>
        <time>2022-02-03T10:37:27.763Z</time>
      </trkpt>
      <trkpt lat="49.33726" lon="-0.69882">
        <ele>57.33018609073</ele>
        <time>2022-02-03T10:37:34.701Z</time>
      </trkpt>
      <trkpt lat="49.33726" lon="-0.69882">
        <ele>56.19102029909</ele>
        <time>2022-02-03T10:37:41.639Z</time>
      </trkpt>
      <trkpt lat="49.33712" lon="-0.6978">
        <ele>55.06430741896</ele>
        <time>2022-02-03T10:37:48.588Z</time>
      </trkpt>
      <trkpt lat="49.33699" lon="-0.69707">
        <ele>54.03173225377</ele>
        <time>2022-02-03T10:37:55.545Z</time>
      </trkpt>
      <trkpt lat="49.33634" lon="-0.69757">
        <ele>53.10907076963</ele>
        <time>2022-02-03T10:38:02.513Z</time>
      </trkpt>
      <trkpt lat="49.33624" lon="-0.69759">
        <ele>52.41186208738</ele>
        <time>2022-02-03T10:38:09.483Z</time>
      </trkpt>
      <trkpt lat="49.33605" lon="-0.69754">
        <ele>51.82253907554</ele>
        <time>2022-02-03T10:38:16.456Z</time>
      </trkpt>
      <trkpt lat="49.33597" lon="-0.69686">
        <ele>51.43574626734</ele>
        <time>2022-02-03T10:38:23.436Z</time>
      </trkpt>
      <trkpt lat="49.33591" lon="-0.69669">
        <ele>51.22247410211</ele>
        <time>2022-02-03T10:38:30.418Z</time>
      </trkpt>
      <trkpt lat="49.33582" lon="-0.69661">
        <ele>50.15346016786</ele>
        <time>2022-02-03T10:38:37.402Z</time>
      </trkpt>
      <trkpt lat="49.33578" lon="-0.69654">
        <ele>51.25504038747</ele>
        <time>2022-02-03T10:38:44.387Z</time>
      </trkpt>
      <trkpt lat="49.33574" lon="-0.69632">
        <ele>51.49652259045</ele>
        <time>2022-02-03T10:38:51.374Z</time>
      </trkpt>
      <trkpt lat="49.33562" lon="-0.69531">
        <ele>51.96453056366</ele>
        <time>2022-02-03T10:38:58.372Z</time>
      </trkpt>
      <trkpt lat="49.33555" lon="-0.69465">
        <ele>52.30717482004</ele>
        <time>2022-02-03T10:39:05.377Z</time>
      </trkpt>
      <trkpt lat="49.3355" lon="-0.69378">
        <ele>52.68685693185</ele>
        <time>2022-02-03T10:39:12.391Z</time>
      </trkpt>
      <trkpt lat="49.33521" lon="-0.69227">
        <ele>53.11466612395</ele>
        <time>2022-02-03T10:39:19.422Z</time>
      </trkpt>
      <trkpt lat="49.33486" lon="-0.69051">
        <ele>53.49948360445</ele>
        <time>2022-02-03T10:39:26.472Z</time>
      </trkpt>
      <trkpt lat="49.33471" lon="-0.68993">
        <ele>53.85773139129</ele>
        <time>2022-02-03T10:39:33.529Z</time>
      </trkpt>
      <trkpt lat="49.33458" lon="-0.68953">
        <ele>54.19445455304</ele>
        <time>2022-02-03T10:39:40.590Z</time>
      </trkpt>
      <trkpt lat="49.33433" lon="-0.68886">
        <ele>54.50561849788</ele>
        <time>2022-02-03T10:39:47.659Z</time>
      </trkpt>
      <trkpt lat="49.33419" lon="-0.68843">
        <ele>54.73301633352</ele>
        <time>2022-02-03T10:39:54.733Z</time>
      </trkpt>
      <trkpt lat="49.3341" lon="-0.68813">
        <ele>54.96658892035</ele>
        <time>2022-02-03T10:40:01.811Z</time>
      </trkpt>
      <trkpt lat="49.334" lon="-0.68761">
        <ele>55.1879800318</ele>
        <time>2022-02-03T10:40:08.894Z</time>
      </trkpt>
      <trkpt lat="49.33391" lon="-0.68615">
        <ele>55.39150226974</ele>
        <time>2022-02-03T10:40:15.993Z</time>
      </trkpt>
      <trkpt lat="49.33389" lon="-0.68597">
        <ele>55.63695463105</ele>
        <time>2022-02-03T10:40:23.094Z</time>
      </trkpt>
      <trkpt lat="49.33384" lon="-0.68569">
        <ele>55.90145644843</ele>
        <time>2022-02-03T10:40:30.198Z</time>
      </trkpt>
      <trkpt lat="49.33358" lon="-0.6848">
        <ele>56.14570218256</ele>
        <time>2022-02-03T10:40:37.312Z</time>
      </trkpt>
      <trkpt lat="49.33347" lon="-0.68435">
        <ele>56.45356332874</ele>
        <time>2022-02-03T10:40:44.431Z</time>
      </trkpt>
      <trkpt lat="49.33343" lon="-0.68386">
        <ele>56.77583643487</ele>
        <time>2022-02-03T10:40:51.555Z</time>
      </trkpt>
      <trkpt lat="49.33341" lon="-0.68269">
        <ele>57.08469142875</ele>
        <time>2022-02-03T10:40:58.691Z</time>
      </trkpt>
      <trkpt lat="49.33333" lon="-0.68189">
        <ele>57.42333001498</ele>
        <time>2022-02-03T10:41:05.836Z</time>
      </trkpt>
      <trkpt lat="49.33328" lon="-0.68143">
        <ele>57.73298881634</ele>
        <time>2022-02-03T10:41:12.986Z</time>
      </trkpt>
      <trkpt lat="49.33317" lon="-0.68082">
        <ele>58.05590550754</ele>
        <time>2022-02-03T10:41:20.142Z</time>
      </trkpt>
      <trkpt lat="49.33317" lon="-0.68082">
        <ele>58.36014345854</ele>
        <time>2022-02-03T10:41:27.298Z</time>
      </trkpt>
      <trkpt lat="49.33311" lon="-0.68047">
        <ele>58.67160095908</ele>
        <time>2022-02-03T10:41:34.458Z</time>
      </trkpt>
      <trkpt lat="49.3327" lon="-0.67906">
        <ele>59.01340082605</ele>
        <time>2022-02-03T10:41:41.634Z</time>
      </trkpt>
      <trkpt lat="49.33263" lon="-0.67871">
        <ele>59.30716663814</ele>
        <time>2022-02-03T10:41:48.814Z</time>
      </trkpt>
      <trkpt lat="49.33258" lon="-0.67837">
        <ele>59.57761967962</ele>
        <time>2022-02-03T10:41:55.998Z</time>
      </trkpt>
      <trkpt lat="49.33257" lon="-0.67797">
        <ele>59.86241454887</ele>
        <time>2022-02-03T10:42:03.186Z</time>
      </trkpt>
      <trkpt lat="49.33257" lon="-0.67797">
        <ele>60.14795357071</ele>
        <time>2022-02-03T10:42:10.374Z</time>
      </trkpt>
      <trkpt lat="49.33254" lon="-0.67694">
        <ele>60.48716410547</ele>
        <time>2022-02-03T10:42:17.573Z</time>
      </trkpt>
      <trkpt lat="49.33248" lon="-0.67613">
        <ele>60.77623894544</ele>
        <time>2022-02-03T10:42:24.780Z</time>
      </trkpt>
      <trkpt lat="49.33238" lon="-0.67554">
        <ele>61.03623637202</ele>
        <time>2022-02-03T10:42:31.994Z</time>
      </trkpt>
      <trkpt lat="49.33219" lon="-0.67477">
        <ele>61.3198158249</ele>
        <time>2022-02-03T10:42:39.216Z</time>
      </trkpt>
      <trkpt lat="49.33191" lon="-0.67385">
        <ele>61.54845967354</ele>
        <time>2022-02-03T10:42:46.449Z</time>
      </trkpt>
      <trkpt lat="49.33183" lon="-0.67343">
        <ele>61.78715599121</ele>
        <time>2022-02-03T10:42:53.686Z</time>
      </trkpt>
      <trkpt lat="49.33179" lon="-0.67299">
        <ele>61.98112103638</ele>
        <time>2022-02-03T10:43:00.928Z</time>
      </trkpt>
      <trkpt lat="49.33181" lon="-0.67265">
        <ele>62.14899333771</ele>
        <time>2022-02-03T10:43:08.174Z</time>
      </trkpt>
      <trkpt lat="49.33181" lon="-0.67265">
        <ele>62.28532834533</ele>
        <time>2022-02-03T10:43:15.420Z</time>
      </trkpt>
      <trkpt lat="49.33181" lon="-0.67264">
        <ele>62.38993408586</ele>
        <time>2022-02-03T10:43:22.666Z</time>
      </trkpt>
      <trkpt lat="49.33181" lon="-0.67263">
        <ele>62.46033832005</ele>
        <time>2022-02-03T10:43:29.912Z</time>
      </trkpt>
      <trkpt lat="49.33181" lon="-0.67263">
        <ele>62.49402852138</ele>
        <time>2022-02-03T10:43:37.158Z</time>
      </trkpt>
      <trkpt lat="49.33181" lon="-0.67263">
        <ele>62.46033832005</ele>
        <time>2022-02-03T10:43:44.404Z</time>
      </trkpt>
      <trkpt lat="49.33181" lon="-0.67263">
        <ele>62.49402852138</ele>
        <time>2022-02-03T10:43:51.650Z</time>
      </trkpt>
      <trkpt lat="49.33182" lon="-0.67254">
        <ele>62.35093144291</ele>
        <time>2022-02-03T10:43:58.897Z</time>
      </trkpt>
      <trkpt lat="49.33185" lon="-0.67228">
        <ele>62.21827593662</ele>
        <time>2022-02-03T10:44:06.147Z</time>
      </trkpt>
      <trkpt lat="49.33252" lon="-0.6693">
        <ele>62.04291176492</ele>
        <time>2022-02-03T10:44:13.430Z</time>
      </trkpt>
      <trkpt lat="49.3327" lon="-0.66886">
        <ele>61.80033040912</ele>
        <time>2022-02-03T10:44:20.718Z</time>
      </trkpt>
      <trkpt lat="49.3327" lon="-0.66886">
        <ele>61.51477817149</ele>
        <time>2022-02-03T10:44:28.006Z</time>
      </trkpt>
      <trkpt lat="49.33391" lon="-0.66685">
        <ele>61.12698416684</ele>
        <time>2022-02-03T10:44:35.323Z</time>
      </trkpt>
      <trkpt lat="49.3342" lon="-0.66625">
        <ele>60.77963067189</ele>
        <time>2022-02-03T10:44:42.648Z</time>
      </trkpt>
      <trkpt lat="49.33503" lon="-0.66331">
        <ele>60.23853096757</ele>
        <time>2022-02-03T10:44:50.006Z</time>
      </trkpt>
      <trkpt lat="49.33516" lon="-0.66285">
        <ele>59.79873822982</ele>
        <time>2022-02-03T10:44:57.369Z</time>
      </trkpt>
      <trkpt lat="49.33529" lon="-0.66239">
        <ele>59.37256190143</ele>
        <time>2022-02-03T10:45:04.737Z</time>
      </trkpt>
      <trkpt lat="49.33536" lon="-0.66201">
        <ele>58.91169601671</ele>
        <time>2022-02-03T10:45:12.110Z</time>
      </trkpt>
      <trkpt lat="49.33549" lon="-0.66131">
        <ele>58.41664304867</ele>
        <time>2022-02-03T10:45:19.490Z</time>
      </trkpt>
      <trkpt lat="49.33555" lon="-0.66105">
        <ele>57.89809361534</ele>
        <time>2022-02-03T10:45:26.873Z</time>
      </trkpt>
      <trkpt lat="49.33571" lon="-0.66066">
        <ele>57.35661233049</ele>
        <time>2022-02-03T10:45:34.261Z</time>
      </trkpt>
      <trkpt lat="49.33589" lon="-0.66028">
        <ele>56.85845349415</ele>
        <time>2022-02-03T10:45:41.654Z</time>
      </trkpt>
      <trkpt lat="49.33622" lon="-0.6596">
        <ele>56.39222551875</ele>
        <time>2022-02-03T10:45:49.056Z</time>
      </trkpt>
      <trkpt lat="49.33643" lon="-0.65897">
        <ele>55.92541515403</ele>
        <time>2022-02-03T10:45:56.465Z</time>
      </trkpt>
      <trkpt lat="49.33656" lon="-0.65848">
        <ele>55.45486829609</ele>
        <time>2022-02-03T10:46:03.880Z</time>
      </trkpt>
      <trkpt lat="49.33672" lon="-0.65799">
        <ele>55.01632689347</ele>
        <time>2022-02-03T10:46:11.300Z</time>
      </trkpt>
      <trkpt lat="49.33716" lon="-0.65681">
        <ele>54.52401825889</ele>
        <time>2022-02-03T10:46:18.735Z</time>
      </trkpt>
      <trkpt lat="49.33724" lon="-0.65655">
        <ele>54.12847876815</ele>
        <time>2022-02-03T10:46:26.173Z</time>
      </trkpt>
      <trkpt lat="49.33726" lon="-0.65642">
        <ele>53.73792062482</ele>
        <time>2022-02-03T10:46:33.612Z</time>
      </trkpt>
      <trkpt lat="49.33725" lon="-0.65624">
        <ele>53.34289968359</ele>
        <time>2022-02-03T10:46:41.053Z</time>
      </trkpt>
      <trkpt lat="49.33722" lon="-0.65609">
        <ele>52.9450657196</ele>
        <time>2022-02-03T10:46:48.496Z</time>
      </trkpt>
      <trkpt lat="49.33702" lon="-0.65581">
        <ele>52.59200721573</ele>
        <time>2022-02-03T10:46:55.943Z</time>
      </trkpt>
      <trkpt lat="49.33695" lon="-0.65565">
        <ele>52.20132085515</ele>
        <time>2022-02-03T10:47:03.392Z</time>
      </trkpt>
      <trkpt lat="49.33684" lon="-0.65501">
        <ele>51.72848163925</ele>
        <time>2022-02-03T10:47:10.848Z</time>
      </trkpt>
      <trkpt lat="49.33684" lon="-0.65495">
        <ele>51.28726450892</ele>
        <time>2022-02-03T10:47:18.304Z</time>
      </trkpt>
      <trkpt lat="49.33681" lon="-0.65464">
        <ele>50.81767020488</ele>
        <time>2022-02-03T10:47:25.764Z</time>
      </trkpt>
      <trkpt lat="49.33674" lon="-0.65431">
        <ele>50.35826686049</ele>
        <time>2022-02-03T10:47:33.227Z</time>
      </trkpt>
      <trkpt lat="49.33671" lon="-0.65412">
        <ele>49.93724686395</ele>
        <time>2022-02-03T10:47:40.692Z</time>
      </trkpt>
      <trkpt lat="49.33671" lon="-0.65386">
        <ele>49.57945079211</ele>
        <time>2022-02-03T10:47:48.160Z</time>
      </trkpt>
      <trkpt lat="49.33683" lon="-0.65307">
        <ele>49.25408192963</ele>
        <time>2022-02-03T10:47:55.637Z</time>
      </trkpt>
      <trkpt lat="49.33695" lon="-0.65169">
        <ele>48.85572650334</ele>
        <time>2022-02-03T10:48:03.128Z</time>
      </trkpt>
      <trkpt lat="49.33698" lon="-0.65125">
        <ele>48.69853958545</ele>
        <time>2022-02-03T10:48:10.624Z</time>
      </trkpt>
      <trkpt lat="49.33697" lon="-0.65092">
        <ele>48.74134289244</ele>
        <time>2022-02-03T10:48:18.123Z</time>
      </trkpt>
      <trkpt lat="49.33696" lon="-0.65055">
        <ele>48.92263069145</ele>
        <time>2022-02-03T10:48:25.626Z</time>
      </trkpt>
      <trkpt lat="49.33694" lon="-0.65037">
        <ele>49.24183487879</ele>
        <time>2022-02-03T10:48:33.131Z</time>
      </trkpt>
      <trkpt lat="49.33674" lon="-0.64944">
        <ele>49.79594972643</ele>
        <time>2022-02-03T10:48:40.646Z</time>
      </trkpt>
      <trkpt lat="49.33672" lon="-0.64918">
        <ele>50.356658431</ele>
        <time>2022-02-03T10:48:48.164Z</time>
      </trkpt>
      <trkpt lat="49.3368" lon="-0.64876">
        <ele>51.00077211326</ele>
        <time>2022-02-03T10:48:55.687Z</time>
      </trkpt>
      <trkpt lat="49.33681" lon="-0.64861">
        <ele>51.70473138971</ele>
        <time>2022-02-03T10:49:03.211Z</time>
      </trkpt>
      <trkpt lat="49.33665" lon="-0.64759">
        <ele>52.55216264367</ele>
        <time>2022-02-03T10:49:10.746Z</time>
      </trkpt>
      <trkpt lat="49.33658" lon="-0.64711">
        <ele>53.33461405178</ele>
        <time>2022-02-03T10:49:18.286Z</time>
      </trkpt>
      <trkpt lat="49.33654" lon="-0.64623">
        <ele>54.11911352932</ele>
        <time>2022-02-03T10:49:25.835Z</time>
      </trkpt>
      <trkpt lat="49.33646" lon="-0.64545">
        <ele>54.8740998088</ele>
        <time>2022-02-03T10:49:33.393Z</time>
      </trkpt>
      <trkpt lat="49.33639" lon="-0.64519">
        <ele>55.5943624216</ele>
        <time>2022-02-03T10:49:40.954Z</time>
      </trkpt>
      <trkpt lat="49.33622" lon="-0.64474">
        <ele>56.28240535554</ele>
        <time>2022-02-03T10:49:48.520Z</time>
      </trkpt>
      <trkpt lat="49.33621" lon="-0.64464">
        <ele>56.86396932711</ele>
        <time>2022-02-03T10:49:56.087Z</time>
      </trkpt>
      <trkpt lat="49.33622" lon="-0.6445">
        <ele>57.37424817334</ele>
        <time>2022-02-03T10:50:03.656Z</time>
      </trkpt>
      <trkpt lat="49.3363" lon="-0.64433">
        <ele>57.81360675618</ele>
        <time>2022-02-03T10:50:11.227Z</time>
      </trkpt>
      <trkpt lat="49.33635" lon="-0.64425">
        <ele>58.17742229972</ele>
        <time>2022-02-03T10:50:18.799Z</time>
      </trkpt>
      <trkpt lat="49.33652" lon="-0.64406">
        <ele>58.48095557093</ele>
        <time>2022-02-03T10:50:26.374Z</time>
      </trkpt>
      <trkpt lat="49.33658" lon="-0.64392">
        <ele>58.7243083504</ele>
        <time>2022-02-03T10:50:33.951Z</time>
      </trkpt>
      <trkpt lat="49.33663" lon="-0.64369">
        <ele>58.89718516016</ele>
        <time>2022-02-03T10:50:41.531Z</time>
      </trkpt>
      <trkpt lat="49.33666" lon="-0.64318">
        <ele>59.01113365607</ele>
        <time>2022-02-03T10:50:49.116Z</time>
      </trkpt>
      <trkpt lat="49.33636" lon="-0.64183">
        <ele>59.12981995621</ele>
        <time>2022-02-03T10:50:56.716Z</time>
      </trkpt>
      <trkpt lat="49.33628" lon="-0.6417">
        <ele>59.26126369408</ele>
        <time>2022-02-03T10:51:04.318Z</time>
      </trkpt>
      <trkpt lat="49.33496" lon="-0.63926">
        <ele>59.39365911517</ele>
        <time>2022-02-03T10:51:11.953Z</time>
      </trkpt>
      <trkpt lat="49.33429" lon="-0.63671">
        <ele>59.51726557363</ele>
        <time>2022-02-03T10:51:19.617Z</time>
      </trkpt>
      <trkpt lat="49.33429" lon="-0.63671">
        <ele>59.66459479468</ele>
        <time>2022-02-03T10:51:27.281Z</time>
      </trkpt>
      <trkpt lat="49.33428" lon="-0.6367">
        <ele>59.82767439515</ele>
        <time>2022-02-03T10:51:34.945Z</time>
      </trkpt>
      <trkpt lat="49.33428" lon="-0.6367">
        <ele>60.00294138084</ele>
        <time>2022-02-03T10:51:42.609Z</time>
      </trkpt>
      <trkpt lat="49.33428" lon="-0.6367">
        <ele>60.18527298835</ele>
        <time>2022-02-03T10:51:50.273Z</time>
      </trkpt>
      <trkpt lat="49.33427" lon="-0.63664">
        <ele>60.3736126057</ele>
        <time>2022-02-03T10:51:57.938Z</time>
      </trkpt>
      <trkpt lat="49.33415" lon="-0.63626">
        <ele>60.52263464044</ele>
        <time>2022-02-03T10:52:05.607Z</time>
      </trkpt>
      <trkpt lat="49.33406" lon="-0.63611">
        <ele>60.64009247953</ele>
        <time>2022-02-03T10:52:13.278Z</time>
      </trkpt>
      <trkpt lat="49.33402" lon="-0.63607">
        <ele>60.71314169532</ele>
        <time>2022-02-03T10:52:20.950Z</time>
      </trkpt>
      <trkpt lat="49.33398" lon="-0.63599">
        <ele>60.70842555382</ele>
        <time>2022-02-03T10:52:28.623Z</time>
      </trkpt>
      <trkpt lat="49.33397" lon="-0.63588">
        <ele>60.60094824399</ele>
        <time>2022-02-03T10:52:36.297Z</time>
      </trkpt>
      <trkpt lat="49.33399" lon="-0.63579">
        <ele>60.36650519902</ele>
        <time>2022-02-03T10:52:43.972Z</time>
      </trkpt>
      <trkpt lat="49.33404" lon="-0.63572">
        <ele>59.974178536</ele>
        <time>2022-02-03T10:52:51.648Z</time>
      </trkpt>
      <trkpt lat="49.33411" lon="-0.63569">
        <ele>59.39521384148</ele>
        <time>2022-02-03T10:52:59.325Z</time>
      </trkpt>
      <trkpt lat="49.33419" lon="-0.63575">
        <ele>58.60275619272</ele>
        <time>2022-02-03T10:53:07.004Z</time>
      </trkpt>
      <trkpt lat="49.33428" lon="-0.63573">
        <ele>57.56184137393</ele>
        <time>2022-02-03T10:53:14.684Z</time>
      </trkpt>
      <trkpt lat="49.33448" lon="-0.63566">
        <ele>56.25880181533</ele>
        <time>2022-02-03T10:53:22.368Z</time>
      </trkpt>
      <trkpt lat="49.33465" lon="-0.63553">
        <ele>54.63842465445</ele>
        <time>2022-02-03T10:53:30.055Z</time>
      </trkpt>
      <trkpt lat="49.3349" lon="-0.63529">
        <ele>52.73542650148</ele>
        <time>2022-02-03T10:53:37.746Z</time>
      </trkpt>
      <trkpt lat="49.33513" lon="-0.63498">
        <ele>50.57204442361</ele>
        <time>2022-02-03T10:53:45.442Z</time>
      </trkpt>
      <trkpt lat="49.33567" lon="-0.63422">
        <ele>48.09599772596</ele>
        <time>2022-02-03T10:53:53.150Z</time>
      </trkpt>
      <trkpt lat="49.33672" lon="-0.63266">
        <ele>45.17059959</ele>
        <time>2022-02-03T10:54:00.881Z</time>
      </trkpt>
      <trkpt lat="49.337" lon="-0.63231">
        <ele>42.35777497533</ele>
        <time>2022-02-03T10:54:08.618Z</time>
      </trkpt>
      <trkpt lat="49.3375" lon="-0.6318">
        <ele>39.29969980792</ele>
        <time>2022-02-03T10:54:16.365Z</time>
      </trkpt>
      <trkpt lat="49.33818" lon="-0.63098">
        <ele>36.21434426986</ele>
        <time>2022-02-03T10:54:24.126Z</time>
      </trkpt>
      <trkpt lat="49.33833" lon="-0.63065">
        <ele>33.43978182882</ele>
        <time>2022-02-03T10:54:31.891Z</time>
      </trkpt>
      <trkpt lat="49.33837" lon="-0.63052">
        <ele>30.82799420088</ele>
        <time>2022-02-03T10:54:39.657Z</time>
      </trkpt>
      <trkpt lat="49.33837" lon="-0.63052">
        <ele>28.39340797802</ele>
        <time>2022-02-03T10:54:47.423Z</time>
      </trkpt>
      <trkpt lat="49.33842" lon="-0.63023">
        <ele>26.06409433797</ele>
        <time>2022-02-03T10:54:55.193Z</time>
      </trkpt>
      <trkpt lat="49.33839" lon="-0.63008">
        <ele>23.96570575901</ele>
        <time>2022-02-03T10:55:02.964Z</time>
      </trkpt>
      <trkpt lat="49.33828" lon="-0.62903">
        <ele>21.99797501551</ele>
        <time>2022-02-03T10:55:10.746Z</time>
      </trkpt>
      <trkpt lat="49.33828" lon="-0.62895">
        <ele>20.32648906716</ele>
        <time>2022-02-03T10:55:18.529Z</time>
      </trkpt>
      <trkpt lat="49.33803" lon="-0.62645">
        <ele>18.91958818725</ele>
        <time>2022-02-03T10:55:26.339Z</time>
      </trkpt>
      <trkpt lat="49.33789" lon="-0.62514">
        <ele>17.46900229647</ele>
        <time>2022-02-03T10:55:34.163Z</time>
      </trkpt>
      <trkpt lat="49.33785" lon="-0.62475">
        <ele>16.33452508454</ele>
        <time>2022-02-03T10:55:41.991Z</time>
      </trkpt>
      <trkpt lat="49.33785" lon="-0.62475">
        <ele>15.42561556191</ele>
        <time>2022-02-03T10:55:49.819Z</time>
      </trkpt>
      <trkpt lat="49.33776" lon="-0.62413">
        <ele>14.71171250409</ele>
        <time>2022-02-03T10:55:57.653Z</time>
      </trkpt>
      <trkpt lat="49.33772" lon="-0.62392">
        <ele>14.14581996114</ele>
        <time>2022-02-03T10:56:05.490Z</time>
      </trkpt>
      <trkpt lat="49.33765" lon="-0.62346">
        <ele>13.72507591639</ele>
        <time>2022-02-03T10:56:13.332Z</time>
      </trkpt>
      <trkpt lat="49.33758" lon="-0.62323">
        <ele>13.44673964659</ele>
        <time>2022-02-03T10:56:21.176Z</time>
      </trkpt>
      <trkpt lat="49.3376" lon="-0.62308">
        <ele>13.2639780774</ele>
        <time>2022-02-03T10:56:29.022Z</time>
      </trkpt>
      <trkpt lat="49.33754" lon="-0.62253">
        <ele>13.22101946112</ele>
        <time>2022-02-03T10:56:36.874Z</time>
      </trkpt>
      <trkpt lat="49.33754" lon="-0.62253">
        <ele>13.3592542739</ele>
        <time>2022-02-03T10:56:44.726Z</time>
      </trkpt>
      <trkpt lat="49.33752" lon="-0.62245">
        <ele>13.65835661898</ele>
        <time>2022-02-03T10:56:52.578Z</time>
      </trkpt>
      <trkpt lat="49.33744" lon="-0.62233">
        <ele>14.12099348633</ele>
        <time>2022-02-03T10:57:00.432Z</time>
      </trkpt>
      <trkpt lat="49.33741" lon="-0.62198">
        <ele>14.76994839416</ele>
        <time>2022-02-03T10:57:08.290Z</time>
      </trkpt>
      <trkpt lat="49.33744" lon="-0.62156">
        <ele>15.67381432141</ele>
        <time>2022-02-03T10:57:16.152Z</time>
      </trkpt>
      <trkpt lat="49.33748" lon="-0.62126">
        <ele>16.83227344857</ele>
        <time>2022-02-03T10:57:24.018Z</time>
      </trkpt>
      <trkpt lat="49.33748" lon="-0.62125">
        <ele>18.21311139847</ele>
        <time>2022-02-03T10:57:31.884Z</time>
      </trkpt>
      <trkpt lat="49.33748" lon="-0.62125">
        <ele>19.84342608197</ele>
        <time>2022-02-03T10:57:39.750Z</time>
      </trkpt>
      <trkpt lat="49.33748" lon="-0.62125">
        <ele>21.71949751002</ele>
        <time>2022-02-03T10:57:47.616Z</time>
      </trkpt>
      <trkpt lat="49.33753" lon="-0.62087">
        <ele>23.84094692098</ele>
        <time>2022-02-03T10:57:55.486Z</time>
      </trkpt>
      <trkpt lat="49.33679" lon="-0.62103">
        <ele>26.35983838732</ele>
        <time>2022-02-03T10:58:03.368Z</time>
      </trkpt>
      <trkpt lat="49.33653" lon="-0.62103">
        <ele>28.90211406863</ele>
        <time>2022-02-03T10:58:11.254Z</time>
      </trkpt>
      <trkpt lat="49.33625" lon="-0.62087">
        <ele>31.65733846931</ele>
        <time>2022-02-03T10:58:19.145Z</time>
      </trkpt>
      <trkpt lat="49.33598" lon="-0.62063">
        <ele>34.49466073794</ele>
        <time>2022-02-03T10:58:27.041Z</time>
      </trkpt>
      <trkpt lat="49.3358" lon="-0.62039">
        <ele>37.22804506979</ele>
        <time>2022-02-03T10:58:34.940Z</time>
      </trkpt>
      <trkpt lat="49.33561" lon="-0.62004">
        <ele>39.80443930148</ele>
        <time>2022-02-03T10:58:42.844Z</time>
      </trkpt>
      <trkpt lat="49.33552" lon="-0.61982">
        <ele>42.08477686082</ele>
        <time>2022-02-03T10:58:50.751Z</time>
      </trkpt>
      <trkpt lat="49.33548" lon="-0.61958">
        <ele>44.11037490293</ele>
        <time>2022-02-03T10:58:58.661Z</time>
      </trkpt>
      <trkpt lat="49.33524" lon="-0.61954">
        <ele>45.80405791068</ele>
        <time>2022-02-03T10:59:06.574Z</time>
      </trkpt>
      <trkpt lat="49.3351" lon="-0.61943">
        <ele>47.09929481461</ele>
        <time>2022-02-03T10:59:14.490Z</time>
      </trkpt>
      <trkpt lat="49.33498" lon="-0.61919">
        <ele>47.98561552767</ele>
        <time>2022-02-03T10:59:22.409Z</time>
      </trkpt>
      <trkpt lat="49.33475" lon="-0.61843">
        <ele>48.49210487255</ele>
        <time>2022-02-03T10:59:30.337Z</time>
      </trkpt>
      <trkpt lat="49.33451" lon="-0.6174">
        <ele>48.52332342645</ele>
        <time>2022-02-03T10:59:38.276Z</time>
      </trkpt>
      <trkpt lat="49.33413" lon="-0.6162">
        <ele>48.10689789177</ele>
        <time>2022-02-03T10:59:46.229Z</time>
      </trkpt>
      <trkpt lat="49.33359" lon="-0.61464">
        <ele>47.20371064026</ele>
        <time>2022-02-03T10:59:54.201Z</time>
      </trkpt>
      <trkpt lat="49.33337" lon="-0.61382">
        <ele>45.80601343002</ele>
        <time>2022-02-03T11:00:02.182Z</time>
      </trkpt>
      <trkpt lat="49.33321" lon="-0.61297">
        <ele>43.94245478702</ele>
        <time>2022-02-03T11:00:10.172Z</time>
      </trkpt>
      <trkpt lat="49.33311" lon="-0.61221">
        <ele>41.67466968598</ele>
        <time>2022-02-03T11:00:18.170Z</time>
      </trkpt>
      <trkpt lat="49.33295" lon="-0.61147">
        <ele>39.06755606002</ele>
        <time>2022-02-03T11:00:26.177Z</time>
      </trkpt>
      <trkpt lat="49.33272" lon="-0.61075">
        <ele>36.35417993229</ele>
        <time>2022-02-03T11:00:34.192Z</time>
      </trkpt>
      <trkpt lat="49.33244" lon="-0.61006">
        <ele>33.62812670655</ele>
        <time>2022-02-03T11:00:42.215Z</time>
      </trkpt>
      <trkpt lat="49.33208" lon="-0.60926">
        <ele>31.12559657075</ele>
        <time>2022-02-03T11:00:50.249Z</time>
      </trkpt>
      <trkpt lat="49.33185" lon="-0.60852">
        <ele>28.80411495533</ele>
        <time>2022-02-03T11:00:58.291Z</time>
      </trkpt>
      <trkpt lat="49.33157" lon="-0.60786">
        <ele>26.69230743329</ele>
        <time>2022-02-03T11:01:06.341Z</time>
      </trkpt>
      <trkpt lat="49.3315" lon="-0.60755">
        <ele>24.79405758277</ele>
        <time>2022-02-03T11:01:14.395Z</time>
      </trkpt>
      <trkpt lat="49.33137" lon="-0.60663">
        <ele>23.11331836076</ele>
        <time>2022-02-03T11:01:22.459Z</time>
      </trkpt>
      <trkpt lat="49.33117" lon="-0.60548">
        <ele>21.84053107394</ele>
        <time>2022-02-03T11:01:30.535Z</time>
      </trkpt>
      <trkpt lat="49.33108" lon="-0.60497">
        <ele>20.68990693481</ele>
        <time>2022-02-03T11:01:38.617Z</time>
      </trkpt>
      <trkpt lat="49.33076" lon="-0.60365">
        <ele>19.58631770962</ele>
        <time>2022-02-03T11:01:46.713Z</time>
      </trkpt>
      <trkpt lat="49.33042" lon="-0.60224">
        <ele>18.30434406249</ele>
        <time>2022-02-03T11:01:54.825Z</time>
      </trkpt>
      <trkpt lat="49.33003" lon="-0.60022">
        <ele>17.04173270192</ele>
        <time>2022-02-03T11:02:02.959Z</time>
      </trkpt>
      <trkpt lat="49.33" lon="-0.59984">
        <ele>16.25189970461</ele>
        <time>2022-02-03T11:02:11.097Z</time>
      </trkpt>
      <trkpt lat="49.33002" lon="-0.59969">
        <ele>15.5793584897</ele>
        <time>2022-02-03T11:02:19.237Z</time>
      </trkpt>
      <trkpt lat="49.33016" lon="-0.59916">
        <ele>14.99988561803</ele>
        <time>2022-02-03T11:02:27.383Z</time>
      </trkpt>
      <trkpt lat="49.33022" lon="-0.59865">
        <ele>14.51051341733</ele>
        <time>2022-02-03T11:02:35.534Z</time>
      </trkpt>
      <trkpt lat="49.32993" lon="-0.59501">
        <ele>14.09872483594</ele>
        <time>2022-02-03T11:02:43.724Z</time>
      </trkpt>
      <trkpt lat="49.32992" lon="-0.59462">
        <ele>13.71069549322</ele>
        <time>2022-02-03T11:02:51.918Z</time>
      </trkpt>
      <trkpt lat="49.32992" lon="-0.59462">
        <ele>13.35686118801</ele>
        <time>2022-02-03T11:03:00.112Z</time>
      </trkpt>
      <trkpt lat="49.32992" lon="-0.59462">
        <ele>13.02018190596</ele>
        <time>2022-02-03T11:03:08.306Z</time>
      </trkpt>
      <trkpt lat="49.32992" lon="-0.59462">
        <ele>12.69241405839</ele>
        <time>2022-02-03T11:03:16.500Z</time>
      </trkpt>
      <trkpt lat="49.32987" lon="-0.59333">
        <ele>12.3311164092</ele>
        <time>2022-02-03T11:03:24.707Z</time>
      </trkpt>
      <trkpt lat="49.32974" lon="-0.59223">
        <ele>12.00384721336</ele>
        <time>2022-02-03T11:03:32.926Z</time>
      </trkpt>
      <trkpt lat="49.32959" lon="-0.59131">
        <ele>11.56412649117</ele>
        <time>2022-02-03T11:03:41.155Z</time>
      </trkpt>
      <trkpt lat="49.32932" lon="-0.58951">
        <ele>11.10074569855</ele>
        <time>2022-02-03T11:03:49.403Z</time>
      </trkpt>
      <trkpt lat="49.32928" lon="-0.58881">
        <ele>10.81402632318</ele>
        <time>2022-02-03T11:03:57.659Z</time>
      </trkpt>
      <trkpt lat="49.32928" lon="-0.58794">
        <ele>10.74125497816</ele>
        <time>2022-02-03T11:04:05.924Z</time>
      </trkpt>
      <trkpt lat="49.3292" lon="-0.58731">
        <ele>10.68174576704</ele>
        <time>2022-02-03T11:04:14.195Z</time>
      </trkpt>
      <trkpt lat="49.32883" lon="-0.58504">
        <ele>10.68472961026</ele>
        <time>2022-02-03T11:04:22.491Z</time>
      </trkpt>
      <trkpt lat="49.32869" lon="-0.5841">
        <ele>10.71053752207</ele>
        <time>2022-02-03T11:04:30.797Z</time>
      </trkpt>
      <trkpt lat="49.32855" lon="-0.58267">
        <ele>10.80162831191</ele>
        <time>2022-02-03T11:04:39.118Z</time>
      </trkpt>
      <trkpt lat="49.32848" lon="-0.5819">
        <ele>10.87792679287</ele>
        <time>2022-02-03T11:04:47.447Z</time>
      </trkpt>
      <trkpt lat="49.32842" lon="-0.57992">
        <ele>11.02643748888</ele>
        <time>2022-02-03T11:04:55.797Z</time>
      </trkpt>
      <trkpt lat="49.32844" lon="-0.57838">
        <ele>11.15533843147</ele>
        <time>2022-02-03T11:05:04.163Z</time>
      </trkpt>
      <trkpt lat="49.32841" lon="-0.57744">
        <ele>11.15117668306</ele>
        <time>2022-02-03T11:05:12.539Z</time>
      </trkpt>
      <trkpt lat="49.32836" lon="-0.57658">
        <ele>11.26399181432</ele>
        <time>2022-02-03T11:05:20.924Z</time>
      </trkpt>
      <trkpt lat="49.32822" lon="-0.57571">
        <ele>11.41750213765</ele>
        <time>2022-02-03T11:05:29.318Z</time>
      </trkpt>
      <trkpt lat="49.32786" lon="-0.57395">
        <ele>11.65384153303</ele>
        <time>2022-02-03T11:05:37.732Z</time>
      </trkpt>
      <trkpt lat="49.32798" lon="-0.57393">
        <ele>12.00295356976</ele>
        <time>2022-02-03T11:05:46.148Z</time>
      </trkpt>
      <trkpt lat="49.32815" lon="-0.57387">
        <ele>12.50883779933</ele>
        <time>2022-02-03T11:05:54.566Z</time>
      </trkpt>
      <trkpt lat="49.32815" lon="-0.57387">
        <ele>12.82480698815</ele>
        <time>2022-02-03T11:06:02.984Z</time>
      </trkpt>
      <trkpt lat="49.32798" lon="-0.57393">
        <ele>13.18114606558</ele>
        <time>2022-02-03T11:06:11.405Z</time>
      </trkpt>
      <trkpt lat="49.32786" lon="-0.57395">
        <ele>13.60136697998</ele>
        <time>2022-02-03T11:06:19.828Z</time>
      </trkpt>
      <trkpt lat="49.32754" lon="-0.57231">
        <ele>14.04238722656</ele>
        <time>2022-02-03T11:06:28.269Z</time>
      </trkpt>
      <trkpt lat="49.32725" lon="-0.57045">
        <ele>14.53106834276</ele>
        <time>2022-02-03T11:06:36.730Z</time>
      </trkpt>
      <trkpt lat="49.32685" lon="-0.56826">
        <ele>15.06900012677</ele>
        <time>2022-02-03T11:06:45.215Z</time>
      </trkpt>
      <trkpt lat="49.3267" lon="-0.56587">
        <ele>15.82159347784</ele>
        <time>2022-02-03T11:06:53.725Z</time>
      </trkpt>
      <trkpt lat="49.3267" lon="-0.56571">
        <ele>16.61443770707</ele>
        <time>2022-02-03T11:07:02.237Z</time>
      </trkpt>
      <trkpt lat="49.32676" lon="-0.56551">
        <ele>17.47799087736</ele>
        <time>2022-02-03T11:07:10.751Z</time>
      </trkpt>
      <trkpt lat="49.32701" lon="-0.56477">
        <ele>18.41985340014</ele>
        <time>2022-02-03T11:07:19.274Z</time>
      </trkpt>
      <trkpt lat="49.32703" lon="-0.56465">
        <ele>19.47192857039</ele>
        <time>2022-02-03T11:07:27.798Z</time>
      </trkpt>
      <trkpt lat="49.32701" lon="-0.56454">
        <ele>20.60663675188</ele>
        <time>2022-02-03T11:07:36.323Z</time>
      </trkpt>
      <trkpt lat="49.32674" lon="-0.56398">
        <ele>21.8293288528</ele>
        <time>2022-02-03T11:07:44.855Z</time>
      </trkpt>
      <trkpt lat="49.32651" lon="-0.56341">
        <ele>23.20423019699</ele>
        <time>2022-02-03T11:07:53.394Z</time>
      </trkpt>
      <trkpt lat="49.32616" lon="-0.56252">
        <ele>24.63368851512</ele>
        <time>2022-02-03T11:08:01.944Z</time>
      </trkpt>
      <trkpt lat="49.32557" lon="-0.56097">
        <ele>26.29096870156</ele>
        <time>2022-02-03T11:08:10.513Z</time>
      </trkpt>
      <trkpt lat="49.32538" lon="-0.56061">
        <ele>27.8411856758</ele>
        <time>2022-02-03T11:08:19.087Z</time>
      </trkpt>
      <trkpt lat="49.32519" lon="-0.56031">
        <ele>29.41915308976</ele>
        <time>2022-02-03T11:08:27.665Z</time>
      </trkpt>
      <trkpt lat="49.32497" lon="-0.56008">
        <ele>31.02282995138</ele>
        <time>2022-02-03T11:08:36.248Z</time>
      </trkpt>
      <trkpt lat="49.32453" lon="-0.55972">
        <ele>32.77269933254</ele>
        <time>2022-02-03T11:08:44.839Z</time>
      </trkpt>
      <trkpt lat="49.32346" lon="-0.55926">
        <ele>34.80602303868</ele>
        <time>2022-02-03T11:08:53.447Z</time>
      </trkpt>
      <trkpt lat="49.32307" lon="-0.55898">
        <ele>36.52098825806</ele>
        <time>2022-02-03T11:09:02.062Z</time>
      </trkpt>
      <trkpt lat="49.32255" lon="-0.55859">
        <ele>38.21420838327</ele>
        <time>2022-02-03T11:09:10.687Z</time>
      </trkpt>
      <trkpt lat="49.32255" lon="-0.55859">
        <ele>39.69553667138</ele>
        <time>2022-02-03T11:09:19.312Z</time>
      </trkpt>
      <trkpt lat="49.3223" lon="-0.55837">
        <ele>41.20103768495</ele>
        <time>2022-02-03T11:09:27.941Z</time>
      </trkpt>
      <trkpt lat="49.32199" lon="-0.55796">
        <ele>42.63748757284</ele>
        <time>2022-02-03T11:09:36.577Z</time>
      </trkpt>
      <trkpt lat="49.3216" lon="-0.55717">
        <ele>44.05453937794</ele>
        <time>2022-02-03T11:09:45.223Z</time>
      </trkpt>
      <trkpt lat="49.32123" lon="-0.55633">
        <ele>45.26941124043</ele>
        <time>2022-02-03T11:09:53.880Z</time>
      </trkpt>
      <trkpt lat="49.32057" lon="-0.55448">
        <ele>46.43323243111</ele>
        <time>2022-02-03T11:10:02.559Z</time>
      </trkpt>
      <trkpt lat="49.32042" lon="-0.55411">
        <ele>47.50195533256</ele>
        <time>2022-02-03T11:10:11.242Z</time>
      </trkpt>
      <trkpt lat="49.32017" lon="-0.5538">
        <ele>48.47952423279</ele>
        <time>2022-02-03T11:10:19.930Z</time>
      </trkpt>
      <trkpt lat="49.31926" lon="-0.55275">
        <ele>49.32193077756</ele>
        <time>2022-02-03T11:10:28.637Z</time>
      </trkpt>
      <trkpt lat="49.3186" lon="-0.55213">
        <ele>50.17104828497</ele>
        <time>2022-02-03T11:10:37.356Z</time>
      </trkpt>
      <trkpt lat="49.31844" lon="-0.55204">
        <ele>50.88401342135</ele>
        <time>2022-02-03T11:10:46.078Z</time>
      </trkpt>
      <trkpt lat="49.31831" lon="-0.55191">
        <ele>51.51383524138</ele>
        <time>2022-02-03T11:10:54.802Z</time>
      </trkpt>
      <trkpt lat="49.31829" lon="-0.55199">
        <ele>52.09829571135</ele>
        <time>2022-02-03T11:11:03.527Z</time>
      </trkpt>
      <trkpt lat="49.31826" lon="-0.55205">
        <ele>52.60316075892</ele>
        <time>2022-02-03T11:11:12.253Z</time>
      </trkpt>
      <trkpt lat="49.31822" lon="-0.55208">
        <ele>53.02894795712</ele>
        <time>2022-02-03T11:11:20.980Z</time>
      </trkpt>
      <trkpt lat="49.31817" lon="-0.55208">
        <ele>53.38011991377</ele>
        <time>2022-02-03T11:11:29.707Z</time>
      </trkpt>
      <trkpt lat="49.31809" lon="-0.55203">
        <ele>53.65317088065</ele>
        <time>2022-02-03T11:11:38.436Z</time>
      </trkpt>
      <trkpt lat="49.3179" lon="-0.55215">
        <ele>53.8697502197</ele>
        <time>2022-02-03T11:11:47.168Z</time>
      </trkpt>
      <trkpt lat="49.31766" lon="-0.55236">
        <ele>54.03262897332</ele>
        <time>2022-02-03T11:11:55.905Z</time>
      </trkpt>
      <trkpt lat="49.31749" lon="-0.55248">
        <ele>54.1378119126</ele>
        <time>2022-02-03T11:12:04.645Z</time>
      </trkpt>
      <trkpt lat="49.31735" lon="-0.5525">
        <ele>54.20219199328</ele>
        <time>2022-02-03T11:12:13.387Z</time>
      </trkpt>
      <trkpt lat="49.31711" lon="-0.55248">
        <ele>54.22636550344</ele>
        <time>2022-02-03T11:12:22.133Z</time>
      </trkpt>
      <trkpt lat="49.31693" lon="-0.55238">
        <ele>54.20304593061</ele>
        <time>2022-02-03T11:12:30.882Z</time>
      </trkpt>
      <trkpt lat="49.3167" lon="-0.55222">
        <ele>54.1245883101</ele>
        <time>2022-02-03T11:12:39.635Z</time>
      </trkpt>
      <trkpt lat="49.31658" lon="-0.55199">
        <ele>53.98768151988</ele>
        <time>2022-02-03T11:12:48.391Z</time>
      </trkpt>
      <trkpt lat="49.31638" lon="-0.55158">
        <ele>53.82533762559</ele>
        <time>2022-02-03T11:12:57.152Z</time>
      </trkpt>
      <trkpt lat="49.31603" lon="-0.55088">
        <ele>53.64460823382</ele>
        <time>2022-02-03T11:13:05.922Z</time>
      </trkpt>
      <trkpt lat="49.31577" lon="-0.55041">
        <ele>53.43113209001</ele>
        <time>2022-02-03T11:13:14.699Z</time>
      </trkpt>
      <trkpt lat="49.31559" lon="-0.55012">
        <ele>53.19423844834</ele>
        <time>2022-02-03T11:13:23.480Z</time>
      </trkpt>
      <trkpt lat="49.31554" lon="-0.55007">
        <ele>52.94193372227</ele>
        <time>2022-02-03T11:13:32.262Z</time>
      </trkpt>
      <trkpt lat="49.31554" lon="-0.55007">
        <ele>52.67658578712</ele>
        <time>2022-02-03T11:13:41.044Z</time>
      </trkpt>
      <trkpt lat="49.31554" lon="-0.55007">
        <ele>52.94193372227</ele>
        <time>2022-02-03T11:13:49.826Z</time>
      </trkpt>
      <trkpt lat="49.31546" lon="-0.54998">
        <ele>52.08699834716</ele>
        <time>2022-02-03T11:13:58.610Z</time>
      </trkpt>
      <trkpt lat="49.31566" lon="-0.5499">
        <ele>51.76591340465</ele>
        <time>2022-02-03T11:14:07.397Z</time>
      </trkpt>
      <trkpt lat="49.31577" lon="-0.5499">
        <ele>51.44183918669</ele>
        <time>2022-02-03T11:14:16.186Z</time>
      </trkpt>
      <trkpt lat="49.31577" lon="-0.5499">
        <ele>51.10520692016</ele>
        <time>2022-02-03T11:14:24.975Z</time>
      </trkpt>
      <trkpt lat="49.31599" lon="-0.54991">
        <ele>50.75316852786</ele>
        <time>2022-02-03T11:14:33.767Z</time>
      </trkpt>
      <trkpt lat="49.31621" lon="-0.55013">
        <ele>50.40157734748</ele>
        <time>2022-02-03T11:14:42.564Z</time>
      </trkpt>
      <trkpt lat="49.31633" lon="-0.54986">
        <ele>50.02140467842</ele>
        <time>2022-02-03T11:14:51.364Z</time>
      </trkpt>
      <trkpt lat="49.31633" lon="-0.54986">
        <ele>49.63842741317</ele>
        <time>2022-02-03T11:15:00.164Z</time>
      </trkpt>
      <trkpt lat="49.31651" lon="-0.54941">
        <ele>49.22920879199</ele>
        <time>2022-02-03T11:15:08.969Z</time>
      </trkpt>
      <trkpt lat="49.31677" lon="-0.54973">
        <ele>48.85394066783</ele>
        <time>2022-02-03T11:15:17.780Z</time>
      </trkpt>
      <trkpt lat="49.31687" lon="-0.54983">
        <ele>48.4385137063</ele>
        <time>2022-02-03T11:15:26.593Z</time>
      </trkpt>
      <trkpt lat="49.31727" lon="-0.55038">
        <ele>47.95437190749</ele>
        <time>2022-02-03T11:15:35.414Z</time>
      </trkpt>
      <trkpt lat="49.31764" lon="-0.54995">
        <ele>47.48304113961</ele>
        <time>2022-02-03T11:15:44.243Z</time>
      </trkpt>
      <trkpt lat="49.31764" lon="-0.54995">
        <ele>47.02162582495</ele>
        <time>2022-02-03T11:15:53.072Z</time>
      </trkpt>
      <trkpt lat="49.31787" lon="-0.54967">
        <ele>46.54231454337</ele>
        <time>2022-02-03T11:16:01.905Z</time>
      </trkpt>
      <trkpt lat="49.31837" lon="-0.54886">
        <ele>46.10275648118</ele>
        <time>2022-02-03T11:16:10.750Z</time>
      </trkpt>
      <trkpt lat="49.31898" lon="-0.54809">
        <ele>45.58554360978</ele>
        <time>2022-02-03T11:16:19.608Z</time>
      </trkpt>
      <trkpt lat="49.31913" lon="-0.54795">
        <ele>45.05682357755</ele>
        <time>2022-02-03T11:16:28.469Z</time>
      </trkpt>
      <trkpt lat="49.31923" lon="-0.54792">
        <ele>44.51899649005</ele>
        <time>2022-02-03T11:16:37.331Z</time>
      </trkpt>
      <trkpt lat="49.3193" lon="-0.54798">
        <ele>43.97142495137</ele>
        <time>2022-02-03T11:16:46.194Z</time>
      </trkpt>
      <trkpt lat="49.3194" lon="-0.54764">
        <ele>43.38892430032</ele>
        <time>2022-02-03T11:16:55.061Z</time>
      </trkpt>
      <trkpt lat="49.31954" lon="-0.54742">
        <ele>42.80381475919</ele>
        <time>2022-02-03T11:17:03.932Z</time>
      </trkpt>
      <trkpt lat="49.32146" lon="-0.54443">
        <ele>42.17609780323</ele>
        <time>2022-02-03T11:17:12.846Z</time>
      </trkpt>
      <trkpt lat="49.32328" lon="-0.5421">
        <ele>41.44098932917</ele>
        <time>2022-02-03T11:17:21.798Z</time>
      </trkpt>
      <trkpt lat="49.32371" lon="-0.54111">
        <ele>40.80963642397</ele>
        <time>2022-02-03T11:17:30.763Z</time>
      </trkpt>
      <trkpt lat="49.3244" lon="-0.53905">
        <ele>40.08830725225</ele>
        <time>2022-02-03T11:17:39.752Z</time>
      </trkpt>
      <trkpt lat="49.32462" lon="-0.53856">
        <ele>39.47913724962</ele>
        <time>2022-02-03T11:17:48.747Z</time>
      </trkpt>
      <trkpt lat="49.325" lon="-0.53798">
        <ele>38.87533645013</ele>
        <time>2022-02-03T11:17:57.751Z</time>
      </trkpt>
      <trkpt lat="49.32556" lon="-0.53742">
        <ele>38.26286795642</ele>
        <time>2022-02-03T11:18:06.766Z</time>
      </trkpt>
      <trkpt lat="49.32556" lon="-0.53742">
        <ele>37.68850652613</ele>
        <time>2022-02-03T11:18:15.781Z</time>
      </trkpt>
      <trkpt lat="49.32657" lon="-0.53637">
        <ele>37.0442589078</ele>
        <time>2022-02-03T11:18:24.815Z</time>
      </trkpt>
      <trkpt lat="49.32697" lon="-0.53582">
        <ele>36.46664046369</ele>
        <time>2022-02-03T11:18:33.858Z</time>
      </trkpt>
      <trkpt lat="49.32752" lon="-0.53494">
        <ele>35.86825043505</ele>
        <time>2022-02-03T11:18:42.914Z</time>
      </trkpt>
      <trkpt lat="49.32768" lon="-0.53476">
        <ele>35.35935499574</ele>
        <time>2022-02-03T11:18:51.973Z</time>
      </trkpt>
      <trkpt lat="49.32815" lon="-0.53437">
        <ele>34.88068191251</ele>
        <time>2022-02-03T11:19:01.040Z</time>
      </trkpt>
      <trkpt lat="49.32815" lon="-0.53437">
        <ele>34.41751514528</ele>
        <time>2022-02-03T11:19:10.107Z</time>
      </trkpt>
      <trkpt lat="49.32882" lon="-0.53344">
        <ele>33.9704542145</ele>
        <time>2022-02-03T11:19:19.189Z</time>
      </trkpt>
      <trkpt lat="49.32944" lon="-0.53285">
        <ele>33.57390709786</ele>
        <time>2022-02-03T11:19:28.283Z</time>
      </trkpt>
      <trkpt lat="49.32979" lon="-0.5323">
        <ele>33.1316612907</ele>
        <time>2022-02-03T11:19:37.385Z</time>
      </trkpt>
      <trkpt lat="49.32981" lon="-0.53224">
        <ele>32.7578712614</ele>
        <time>2022-02-03T11:19:46.487Z</time>
      </trkpt>
      <trkpt lat="49.32986" lon="-0.53212">
        <ele>32.40296094421</ele>
        <time>2022-02-03T11:19:55.591Z</time>
      </trkpt>
      <trkpt lat="49.32986" lon="-0.53199">
        <ele>32.06698486293</ele>
        <time>2022-02-03T11:20:04.696Z</time>
      </trkpt>
      <trkpt lat="49.32979" lon="-0.53147">
        <ele>31.72677336698</ele>
        <time>2022-02-03T11:20:13.807Z</time>
      </trkpt>
      <trkpt lat="49.32981" lon="-0.53136">
        <ele>31.45625706234</ele>
        <time>2022-02-03T11:20:22.919Z</time>
      </trkpt>
      <trkpt lat="49.33008" lon="-0.53094">
        <ele>31.23794946847</ele>
        <time>2022-02-03T11:20:32.037Z</time>
      </trkpt>
      <trkpt lat="49.33007" lon="-0.53091">
        <ele>31.02382526257</ele>
        <time>2022-02-03T11:20:41.155Z</time>
      </trkpt>
      <trkpt lat="49.33005" lon="-0.53067">
        <ele>30.8481515494</ele>
        <time>2022-02-03T11:20:50.276Z</time>
      </trkpt>
      <trkpt lat="49.33004" lon="-0.53041">
        <ele>30.70435355739</ele>
        <time>2022-02-03T11:20:59.400Z</time>
      </trkpt>
      <trkpt lat="49.33005" lon="-0.53034">
        <ele>30.55843873721</ele>
        <time>2022-02-03T11:21:08.524Z</time>
      </trkpt>
      <trkpt lat="49.33006" lon="-0.53029">
        <ele>30.42674350363</ele>
        <time>2022-02-03T11:21:17.649Z</time>
      </trkpt>
      <trkpt lat="49.33015" lon="-0.53025">
        <ele>30.30732394769</ele>
        <time>2022-02-03T11:21:26.775Z</time>
      </trkpt>
      <trkpt lat="49.33048" lon="-0.53022">
        <ele>30.18832336251</ele>
        <time>2022-02-03T11:21:35.907Z</time>
      </trkpt>
      <trkpt lat="49.33078" lon="-0.53014">
        <ele>30.10902998935</ele>
        <time>2022-02-03T11:21:45.044Z</time>
      </trkpt>
      <trkpt lat="49.33102" lon="-0.52995">
        <ele>30.0475949743</ele>
        <time>2022-02-03T11:21:54.185Z</time>
      </trkpt>
      <trkpt lat="49.33115" lon="-0.52977">
        <ele>29.98523104293</ele>
        <time>2022-02-03T11:22:03.329Z</time>
      </trkpt>
      <trkpt lat="49.33124" lon="-0.52968">
        <ele>29.91126350824</ele>
        <time>2022-02-03T11:22:12.474Z</time>
      </trkpt>
      <trkpt lat="49.33138" lon="-0.52965">
        <ele>29.84766703573</ele>
        <time>2022-02-03T11:22:21.622Z</time>
      </trkpt>
      <trkpt lat="49.33159" lon="-0.52953">
        <ele>29.7958288844</ele>
        <time>2022-02-03T11:22:30.773Z</time>
      </trkpt>
      <trkpt lat="49.33185" lon="-0.52935">
        <ele>29.75142879764</ele>
        <time>2022-02-03T11:22:39.929Z</time>
      </trkpt>
      <trkpt lat="49.33215" lon="-0.52889">
        <ele>29.75360258013</ele>
        <time>2022-02-03T11:22:49.092Z</time>
      </trkpt>
      <trkpt lat="49.33244" lon="-0.52862">
        <ele>29.75318167313</ele>
        <time>2022-02-03T11:22:58.260Z</time>
      </trkpt>
      <trkpt lat="49.3331" lon="-0.52818">
        <ele>29.72634879491</ele>
        <time>2022-02-03T11:23:07.440Z</time>
      </trkpt>
      <trkpt lat="49.33327" lon="-0.528">
        <ele>29.74179681993</ele>
        <time>2022-02-03T11:23:16.623Z</time>
      </trkpt>
      <trkpt lat="49.33359" lon="-0.52744">
        <ele>29.72451490775</ele>
        <time>2022-02-03T11:23:25.814Z</time>
      </trkpt>
      <trkpt lat="49.33359" lon="-0.52744">
        <ele>29.77255223561</ele>
        <time>2022-02-03T11:23:35.005Z</time>
      </trkpt>
      <trkpt lat="49.33373" lon="-0.52728">
        <ele>29.81960833201</ele>
        <time>2022-02-03T11:23:44.198Z</time>
      </trkpt>
      <trkpt lat="49.33385" lon="-0.52722">
        <ele>29.88487920275</ele>
        <time>2022-02-03T11:23:53.393Z</time>
      </trkpt>
      <trkpt lat="49.33407" lon="-0.52719">
        <ele>29.95559361635</ele>
        <time>2022-02-03T11:24:02.592Z</time>
      </trkpt>
      <trkpt lat="49.33433" lon="-0.52725">
        <ele>30.03532835665</ele>
        <time>2022-02-03T11:24:11.795Z</time>
      </trkpt>
      <trkpt lat="49.33471" lon="-0.52728">
        <ele>30.12551315333</ele>
        <time>2022-02-03T11:24:21.004Z</time>
      </trkpt>
      <trkpt lat="49.33493" lon="-0.52727">
        <ele>30.23903427474</ele>
        <time>2022-02-03T11:24:30.217Z</time>
      </trkpt>
      <trkpt lat="49.3351" lon="-0.52723">
        <ele>30.36184749431</ele>
        <time>2022-02-03T11:24:39.433Z</time>
      </trkpt>
      <trkpt lat="49.33532" lon="-0.52713">
        <ele>30.48491789426</ele>
        <time>2022-02-03T11:24:48.652Z</time>
      </trkpt>
      <trkpt lat="49.33544" lon="-0.52701">
        <ele>30.60187175339</ele>
        <time>2022-02-03T11:24:57.874Z</time>
      </trkpt>
      <trkpt lat="49.33588" lon="-0.52623">
        <ele>30.65222018734</ele>
        <time>2022-02-03T11:25:07.106Z</time>
      </trkpt>
      <trkpt lat="49.33624" lon="-0.52569">
        <ele>30.8388507964</ele>
        <time>2022-02-03T11:25:16.346Z</time>
      </trkpt>
      <trkpt lat="49.33642" lon="-0.52527">
        <ele>30.99681797397</ele>
        <time>2022-02-03T11:25:25.592Z</time>
      </trkpt>
      <trkpt lat="49.33658" lon="-0.52489">
        <ele>31.14405700626</ele>
        <time>2022-02-03T11:25:34.842Z</time>
      </trkpt>
      <trkpt lat="49.33692" lon="-0.52448">
        <ele>31.29354953963</ele>
        <time>2022-02-03T11:25:44.099Z</time>
      </trkpt>
      <trkpt lat="49.33707" lon="-0.52433">
        <ele>31.39804581552</ele>
        <time>2022-02-03T11:25:53.359Z</time>
      </trkpt>
      <trkpt lat="49.33765" lon="-0.52375">
        <ele>31.50361777524</ele>
        <time>2022-02-03T11:26:02.630Z</time>
      </trkpt>
      <trkpt lat="49.33775" lon="-0.52365">
        <ele>31.55884973602</ele>
        <time>2022-02-03T11:26:11.903Z</time>
      </trkpt>
      <trkpt lat="49.33787" lon="-0.52363">
        <ele>31.58596021763</ele>
        <time>2022-02-03T11:26:21.178Z</time>
      </trkpt>
      <trkpt lat="49.33794" lon="-0.52359">
        <ele>31.58278376136</ele>
        <time>2022-02-03T11:26:30.454Z</time>
      </trkpt>
      <trkpt lat="49.33817" lon="-0.52327">
        <ele>31.56941954839</ele>
        <time>2022-02-03T11:26:39.735Z</time>
      </trkpt>
      <trkpt lat="49.3383" lon="-0.52301">
        <ele>31.50785092788</ele>
        <time>2022-02-03T11:26:49.020Z</time>
      </trkpt>
      <trkpt lat="49.33846" lon="-0.52283">
        <ele>31.39211916177</ele>
        <time>2022-02-03T11:26:58.308Z</time>
      </trkpt>
      <trkpt lat="49.33915" lon="-0.5223">
        <ele>31.20398411284</ele>
        <time>2022-02-03T11:27:07.608Z</time>
      </trkpt>
      <trkpt lat="49.33929" lon="-0.52213">
        <ele>30.98150682939</ele>
        <time>2022-02-03T11:27:16.911Z</time>
      </trkpt>
      <trkpt lat="49.33993" lon="-0.52112">
        <ele>30.71027637242</ele>
        <time>2022-02-03T11:27:26.229Z</time>
      </trkpt>
      <trkpt lat="49.33993" lon="-0.52112">
        <ele>30.39371278448</ele>
        <time>2022-02-03T11:27:35.547Z</time>
      </trkpt>
      <trkpt lat="49.34028" lon="-0.52073">
        <ele>30.00898328151</ele>
        <time>2022-02-03T11:27:44.872Z</time>
      </trkpt>
      <trkpt lat="49.34077" lon="-0.52024">
        <ele>29.51064087053</ele>
        <time>2022-02-03T11:27:54.206Z</time>
      </trkpt>
      <trkpt lat="49.34075" lon="-0.52012">
        <ele>29.05036656018</ele>
        <time>2022-02-03T11:28:03.541Z</time>
      </trkpt>
      <trkpt lat="49.34075" lon="-0.51996">
        <ele>28.54211443617</ele>
        <time>2022-02-03T11:28:12.878Z</time>
      </trkpt>
      <trkpt lat="49.34092" lon="-0.51903">
        <ele>27.98926163817</ele>
        <time>2022-02-03T11:28:22.225Z</time>
      </trkpt>
      <trkpt lat="49.34106" lon="-0.5182">
        <ele>27.30406185317</ele>
        <time>2022-02-03T11:28:31.581Z</time>
      </trkpt>
      <trkpt lat="49.34108" lon="-0.51793">
        <ele>26.61439893555</ele>
        <time>2022-02-03T11:28:40.940Z</time>
      </trkpt>
      <trkpt lat="49.34107" lon="-0.51731">
        <ele>25.9031039193</ele>
        <time>2022-02-03T11:28:50.306Z</time>
      </trkpt>
      <trkpt lat="49.34106" lon="-0.5171">
        <ele>25.12937978404</ele>
        <time>2022-02-03T11:28:59.674Z</time>
      </trkpt>
      <trkpt lat="49.34106" lon="-0.51709">
        <ele>24.33673009978</ele>
        <time>2022-02-03T11:29:09.042Z</time>
      </trkpt>
      <trkpt lat="49.34104" lon="-0.51671">
        <ele>23.44942149343</ele>
        <time>2022-02-03T11:29:18.414Z</time>
      </trkpt>
      <trkpt lat="49.34096" lon="-0.51483">
        <ele>22.54043012115</ele>
        <time>2022-02-03T11:29:27.806Z</time>
      </trkpt>
      <trkpt lat="49.34103" lon="-0.5143">
        <ele>21.58950774244</ele>
        <time>2022-02-03T11:29:37.203Z</time>
      </trkpt>
      <trkpt lat="49.34103" lon="-0.5143">
        <ele>20.69656496602</ele>
        <time>2022-02-03T11:29:46.600Z</time>
      </trkpt>
      <trkpt lat="49.34108" lon="-0.51405">
        <ele>19.74980185299</ele>
        <time>2022-02-03T11:29:56.000Z</time>
      </trkpt>
      <trkpt lat="49.34117" lon="-0.51388">
        <ele>18.80203581821</ele>
        <time>2022-02-03T11:30:05.402Z</time>
      </trkpt>
      <trkpt lat="49.34126" lon="-0.51376">
        <ele>17.84707132423</ele>
        <time>2022-02-03T11:30:14.806Z</time>
      </trkpt>
      <trkpt lat="49.3416" lon="-0.51345">
        <ele>16.79351915281</ele>
        <time>2022-02-03T11:30:24.216Z</time>
      </trkpt>
      <trkpt lat="49.34107" lon="-0.51175">
        <ele>15.7621678348</ele>
        <time>2022-02-03T11:30:33.646Z</time>
      </trkpt>
      <trkpt lat="49.34096" lon="-0.51138">
        <ele>14.83432103588</ele>
        <time>2022-02-03T11:30:43.080Z</time>
      </trkpt>
      <trkpt lat="49.34092" lon="-0.51103">
        <ele>13.98702709638</ele>
        <time>2022-02-03T11:30:52.518Z</time>
      </trkpt>
      <trkpt lat="49.3409" lon="-0.50882">
        <ele>13.15417569845</ele>
        <time>2022-02-03T11:31:01.979Z</time>
      </trkpt>
      <trkpt lat="49.34066" lon="-0.50769">
        <ele>12.54949858148</ele>
        <time>2022-02-03T11:31:11.453Z</time>
      </trkpt>
      <trkpt lat="49.34057" lon="-0.50715">
        <ele>11.91294556343</ele>
        <time>2022-02-03T11:31:20.932Z</time>
      </trkpt>
      <trkpt lat="49.34034" lon="-0.50633">
        <ele>11.32344735583</ele>
        <time>2022-02-03T11:31:30.421Z</time>
      </trkpt>
      <trkpt lat="49.34018" lon="-0.50555">
        <ele>10.64406847878</ele>
        <time>2022-02-03T11:31:39.918Z</time>
      </trkpt>
      <trkpt lat="49.3401" lon="-0.50494">
        <ele>10.14650150942</ele>
        <time>2022-02-03T11:31:49.422Z</time>
      </trkpt>
      <trkpt lat="49.33996" lon="-0.50426">
        <ele>9.73673458456</ele>
        <time>2022-02-03T11:31:58.933Z</time>
      </trkpt>
      <trkpt lat="49.33989" lon="-0.50395">
        <ele>9.35975585004</ele>
        <time>2022-02-03T11:32:08.448Z</time>
      </trkpt>
      <trkpt lat="49.3398" lon="-0.50367">
        <ele>9.06212873911</ele>
        <time>2022-02-03T11:32:17.966Z</time>
      </trkpt>
      <trkpt lat="49.33962" lon="-0.50319">
        <ele>8.87307360914</ele>
        <time>2022-02-03T11:32:27.490Z</time>
      </trkpt>
      <trkpt lat="49.33935" lon="-0.50259">
        <ele>8.76615584719</ele>
        <time>2022-02-03T11:32:37.021Z</time>
      </trkpt>
      <trkpt lat="49.33897" lon="-0.5018">
        <ele>8.68109072722</ele>
        <time>2022-02-03T11:32:46.563Z</time>
      </trkpt>
      <trkpt lat="49.33782" lon="-0.49972">
        <ele>8.73682110372</ele>
        <time>2022-02-03T11:32:56.133Z</time>
      </trkpt>
      <trkpt lat="49.33714" lon="-0.49821">
        <ele>8.77015611614</ele>
        <time>2022-02-03T11:33:05.722Z</time>
      </trkpt>
      <trkpt lat="49.3371" lon="-0.49812">
        <ele>8.91957986764</ele>
        <time>2022-02-03T11:33:15.313Z</time>
      </trkpt>
      <trkpt lat="49.3371" lon="-0.49812">
        <ele>9.14074274518</ele>
        <time>2022-02-03T11:33:24.904Z</time>
      </trkpt>
      <trkpt lat="49.33662" lon="-0.49715">
        <ele>9.51673512226</ele>
        <time>2022-02-03T11:33:34.507Z</time>
      </trkpt>
      <trkpt lat="49.33636" lon="-0.49649">
        <ele>9.95753669056</ele>
        <time>2022-02-03T11:33:44.118Z</time>
      </trkpt>
      <trkpt lat="49.33626" lon="-0.49597">
        <ele>10.40170880594</ele>
        <time>2022-02-03T11:33:53.735Z</time>
      </trkpt>
      <trkpt lat="49.33618" lon="-0.49574">
        <ele>10.89387294163</ele>
        <time>2022-02-03T11:34:03.355Z</time>
      </trkpt>
      <trkpt lat="49.33592" lon="-0.49537">
        <ele>11.47283666685</ele>
        <time>2022-02-03T11:34:12.980Z</time>
      </trkpt>
      <trkpt lat="49.33572" lon="-0.4948">
        <ele>12.01329640293</ele>
        <time>2022-02-03T11:34:22.612Z</time>
      </trkpt>
      <trkpt lat="49.33544" lon="-0.49362">
        <ele>12.55801337216</ele>
        <time>2022-02-03T11:34:32.257Z</time>
      </trkpt>
      <trkpt lat="49.33505" lon="-0.49268">
        <ele>13.1082144456</ele>
        <time>2022-02-03T11:34:41.914Z</time>
      </trkpt>
      <trkpt lat="49.33505" lon="-0.49268">
        <ele>13.71141553184</ele>
        <time>2022-02-03T11:34:51.571Z</time>
      </trkpt>
      <trkpt lat="49.33504" lon="-0.49264">
        <ele>14.32986455885</ele>
        <time>2022-02-03T11:35:01.228Z</time>
      </trkpt>
      <trkpt lat="49.33505" lon="-0.49268">
        <ele>13.71141553184</ele>
        <time>2022-02-03T11:35:10.886Z</time>
      </trkpt>
      <trkpt lat="49.33505" lon="-0.49268">
        <ele>13.1082144456</ele>
        <time>2022-02-03T11:35:20.544Z</time>
      </trkpt>
      <trkpt lat="49.33501" lon="-0.49246">
        <ele>16.25269680169</ele>
        <time>2022-02-03T11:35:30.204Z</time>
      </trkpt>
      <trkpt lat="49.335" lon="-0.49192">
        <ele>16.85236501834</ele>
        <time>2022-02-03T11:35:39.870Z</time>
      </trkpt>
      <trkpt lat="49.33493" lon="-0.49164">
        <ele>17.5043112767</ele>
        <time>2022-02-03T11:35:49.539Z</time>
      </trkpt>
      <trkpt lat="49.33483" lon="-0.49145">
        <ele>18.14036852349</ele>
        <time>2022-02-03T11:35:59.211Z</time>
      </trkpt>
      <trkpt lat="49.33466" lon="-0.49137">
        <ele>18.79303986547</ele>
        <time>2022-02-03T11:36:08.885Z</time>
      </trkpt>
      <trkpt lat="49.33443" lon="-0.49137">
        <ele>19.45643254135</ele>
        <time>2022-02-03T11:36:18.563Z</time>
      </trkpt>
      <trkpt lat="49.33363" lon="-0.49176">
        <ele>20.24181266702</ele>
        <time>2022-02-03T11:36:28.254Z</time>
      </trkpt>
      <trkpt lat="49.33312" lon="-0.49193">
        <ele>20.91387896464</ele>
        <time>2022-02-03T11:36:37.954Z</time>
      </trkpt>
      <trkpt lat="49.3331" lon="-0.49191">
        <ele>21.46138846417</ele>
        <time>2022-02-03T11:36:47.654Z</time>
      </trkpt>
      <trkpt lat="49.3331" lon="-0.49191">
        <ele>21.97590009351</ele>
        <time>2022-02-03T11:36:57.354Z</time>
      </trkpt>
      <trkpt lat="49.33176" lon="-0.49117">
        <ele>22.399128615</ele>
        <time>2022-02-03T11:37:07.077Z</time>
      </trkpt>
      <trkpt lat="49.33141" lon="-0.49108">
        <ele>22.90072617237</ele>
        <time>2022-02-03T11:37:16.806Z</time>
      </trkpt>
      <trkpt lat="49.33133" lon="-0.49095">
        <ele>23.30605331249</ele>
        <time>2022-02-03T11:37:26.537Z</time>
      </trkpt>
      <trkpt lat="49.33127" lon="-0.49078">
        <ele>23.89684472702</ele>
        <time>2022-02-03T11:37:36.270Z</time>
      </trkpt>
      <trkpt lat="49.33134" lon="-0.48964">
        <ele>24.21661735938</ele>
        <time>2022-02-03T11:37:46.015Z</time>
      </trkpt>
      <trkpt lat="49.33132" lon="-0.48903">
        <ele>24.34951161778</ele>
        <time>2022-02-03T11:37:55.766Z</time>
      </trkpt>
      <trkpt lat="49.3312" lon="-0.48827">
        <ele>24.45081167933</ele>
        <time>2022-02-03T11:38:05.525Z</time>
      </trkpt>
      <trkpt lat="49.33088" lon="-0.48699">
        <ele>24.4186990692</ele>
        <time>2022-02-03T11:38:15.298Z</time>
      </trkpt>
      <trkpt lat="49.33065" lon="-0.48576">
        <ele>24.24461436088</ele>
        <time>2022-02-03T11:38:25.085Z</time>
      </trkpt>
      <trkpt lat="49.33061" lon="-0.48542">
        <ele>24.02139075023</ele>
        <time>2022-02-03T11:38:34.876Z</time>
      </trkpt>
      <trkpt lat="49.33064" lon="-0.48501">
        <ele>23.7081108548</ele>
        <time>2022-02-03T11:38:44.671Z</time>
      </trkpt>
      <trkpt lat="49.33069" lon="-0.48471">
        <ele>23.31273638173</ele>
        <time>2022-02-03T11:38:54.469Z</time>
      </trkpt>
      <trkpt lat="49.33083" lon="-0.48432">
        <ele>22.79349361382</ele>
        <time>2022-02-03T11:39:04.272Z</time>
      </trkpt>
      <trkpt lat="49.33124" lon="-0.48376">
        <ele>22.1489306201</ele>
        <time>2022-02-03T11:39:14.083Z</time>
      </trkpt>
      <trkpt lat="49.33182" lon="-0.48304">
        <ele>21.41322431048</ele>
        <time>2022-02-03T11:39:23.906Z</time>
      </trkpt>
      <trkpt lat="49.33206" lon="-0.48257">
        <ele>20.65170596634</ele>
        <time>2022-02-03T11:39:33.736Z</time>
      </trkpt>
      <trkpt lat="49.33223" lon="-0.48195">
        <ele>19.84292160017</ele>
        <time>2022-02-03T11:39:43.573Z</time>
      </trkpt>
      <trkpt lat="49.3323" lon="-0.48139">
        <ele>19.0377898209</ele>
        <time>2022-02-03T11:39:53.416Z</time>
      </trkpt>
      <trkpt lat="49.3323" lon="-0.48088">
        <ele>18.21516590773</ele>
        <time>2022-02-03T11:40:03.264Z</time>
      </trkpt>
      <trkpt lat="49.33225" lon="-0.48046">
        <ele>17.38049475356</ele>
        <time>2022-02-03T11:40:13.117Z</time>
      </trkpt>
      <trkpt lat="49.33218" lon="-0.48013">
        <ele>16.53316660288</ele>
        <time>2022-02-03T11:40:22.973Z</time>
      </trkpt>
      <trkpt lat="49.33213" lon="-0.47994">
        <ele>15.67190992404</ele>
        <time>2022-02-03T11:40:32.831Z</time>
      </trkpt>
      <trkpt lat="49.3301" lon="-0.47512">
        <ele>14.43435681906</ele>
        <time>2022-02-03T11:40:42.749Z</time>
      </trkpt>
      <trkpt lat="49.33006" lon="-0.47491">
        <ele>13.55678878019</ele>
        <time>2022-02-03T11:40:52.670Z</time>
      </trkpt>
      <trkpt lat="49.33007" lon="-0.47471">
        <ele>12.68815296972</ele>
        <time>2022-02-03T11:41:02.593Z</time>
      </trkpt>
      <trkpt lat="49.33004" lon="-0.47474">
        <ele>11.84752382051</ele>
        <time>2022-02-03T11:41:12.516Z</time>
      </trkpt>
      <trkpt lat="49.33004" lon="-0.47474">
        <ele>11.02478247365</ele>
        <time>2022-02-03T11:41:22.439Z</time>
      </trkpt>
      <trkpt lat="49.33007" lon="-0.47471">
        <ele>10.22441264294</ele>
        <time>2022-02-03T11:41:32.363Z</time>
      </trkpt>
      <trkpt lat="49.33007" lon="-0.47471">
        <ele>12.68815296972</ele>
        <time>2022-02-03T11:41:42.287Z</time>
      </trkpt>
      <trkpt lat="49.33017" lon="-0.47451">
        <ele>8.69709080476</ele>
        <time>2022-02-03T11:41:52.213Z</time>
      </trkpt>
      <trkpt lat="49.33018" lon="-0.47444">
        <ele>7.98506966007</ele>
        <time>2022-02-03T11:42:02.140Z</time>
      </trkpt>
      <trkpt lat="49.33018" lon="-0.47421">
        <ele>7.29368408785</ele>
        <time>2022-02-03T11:42:12.070Z</time>
      </trkpt>
      <trkpt lat="49.33015" lon="-0.474">
        <ele>6.64286767822</ele>
        <time>2022-02-03T11:42:22.002Z</time>
      </trkpt>
      <trkpt lat="49.32997" lon="-0.47357">
        <ele>6.04245777724</ele>
        <time>2022-02-03T11:42:31.939Z</time>
      </trkpt>
      <trkpt lat="49.32983" lon="-0.4734">
        <ele>5.50522931768</ele>
        <time>2022-02-03T11:42:41.879Z</time>
      </trkpt>
      <trkpt lat="49.3295" lon="-0.47283">
        <ele>5.07981956384</ele>
        <time>2022-02-03T11:42:51.827Z</time>
      </trkpt>
      <trkpt lat="49.32931" lon="-0.47251">
        <ele>4.64429625319</ele>
        <time>2022-02-03T11:43:01.780Z</time>
      </trkpt>
      <trkpt lat="49.3291" lon="-0.47205">
        <ele>4.26595947922</ele>
        <time>2022-02-03T11:43:11.739Z</time>
      </trkpt>
      <trkpt lat="49.32903" lon="-0.47193">
        <ele>3.89546896713</ele>
        <time>2022-02-03T11:43:21.699Z</time>
      </trkpt>
      <trkpt lat="49.32876" lon="-0.47156">
        <ele>3.56081114564</ele>
        <time>2022-02-03T11:43:31.665Z</time>
      </trkpt>
      <trkpt lat="49.32821" lon="-0.47117">
        <ele>3.30244890198</ele>
        <time>2022-02-03T11:43:41.641Z</time>
      </trkpt>
      <trkpt lat="49.32807" lon="-0.47107">
        <ele>3.0600856116</ele>
        <time>2022-02-03T11:43:51.619Z</time>
      </trkpt>
      <trkpt lat="49.32784" lon="-0.47082">
        <ele>2.84897295365</ele>
        <time>2022-02-03T11:44:01.602Z</time>
      </trkpt>
      <trkpt lat="49.32769" lon="-0.47043">
        <ele>2.63419879025</ele>
        <time>2022-02-03T11:44:11.589Z</time>
      </trkpt>
      <trkpt lat="49.32751" lon="-0.46993">
        <ele>2.46590374438</ele>
        <time>2022-02-03T11:44:21.582Z</time>
      </trkpt>
      <trkpt lat="49.32698" lon="-0.47049">
        <ele>2.48295102321</ele>
        <time>2022-02-03T11:44:31.586Z</time>
      </trkpt>
      <trkpt lat="49.32682" lon="-0.47046">
        <ele>2.4205168701</ele>
        <time>2022-02-03T11:44:41.592Z</time>
      </trkpt>
      <trkpt lat="49.32684" lon="-0.47009">
        <ele>2.35955733386</ele>
        <time>2022-02-03T11:44:51.602Z</time>
      </trkpt>
      <trkpt lat="49.32679" lon="-0.46988">
        <ele>2.36823405905</ele>
        <time>2022-02-03T11:45:01.614Z</time>
      </trkpt>
      <trkpt lat="49.32676" lon="-0.4698">
        <ele>2.45962746948</ele>
        <time>2022-02-03T11:45:11.627Z</time>
      </trkpt>
      <trkpt lat="49.32676" lon="-0.4698">
        <ele>2.62771872676</ele>
        <time>2022-02-03T11:45:21.640Z</time>
      </trkpt>
      <trkpt lat="49.32676" lon="-0.4698">
        <ele>2.45962746948</ele>
        <time>2022-02-03T11:45:31.653Z</time>
      </trkpt>
      <trkpt lat="49.32644" lon="-0.469">
        <ele>3.02566780111</ele>
        <time>2022-02-03T11:45:41.676Z</time>
      </trkpt>
      <trkpt lat="49.32607" lon="-0.46806">
        <ele>3.32411352944</ele>
        <time>2022-02-03T11:45:51.711Z</time>
      </trkpt>
      <trkpt lat="49.32602" lon="-0.46781">
        <ele>3.70122262624</ele>
        <time>2022-02-03T11:46:01.748Z</time>
      </trkpt>
      <trkpt lat="49.326" lon="-0.46757">
        <ele>4.13112500445</ele>
        <time>2022-02-03T11:46:11.788Z</time>
      </trkpt>
      <trkpt lat="49.326" lon="-0.46659">
        <ele>4.62158940728</ele>
        <time>2022-02-03T11:46:21.838Z</time>
      </trkpt>
      <trkpt lat="49.32592" lon="-0.46462">
        <ele>5.470301108</ele>
        <time>2022-02-03T11:46:31.909Z</time>
      </trkpt>
      <trkpt lat="49.32592" lon="-0.46462">
        <ele>6.06798341759</ele>
        <time>2022-02-03T11:46:41.980Z</time>
      </trkpt>
      <trkpt lat="49.32591" lon="-0.4643">
        <ele>6.80503233768</ele>
        <time>2022-02-03T11:46:52.054Z</time>
      </trkpt>
      <trkpt lat="49.32591" lon="-0.46398">
        <ele>7.5728324707</ele>
        <time>2022-02-03T11:47:02.132Z</time>
      </trkpt>
      <trkpt lat="49.32593" lon="-0.46387">
        <ele>8.30604442178</ele>
        <time>2022-02-03T11:47:12.211Z</time>
      </trkpt>
      <trkpt lat="49.32607" lon="-0.4636">
        <ele>9.05012608869</ele>
        <time>2022-02-03T11:47:22.293Z</time>
      </trkpt>
      <trkpt lat="49.32666" lon="-0.46282">
        <ele>9.78246920411</ele>
        <time>2022-02-03T11:47:32.388Z</time>
      </trkpt>
      <trkpt lat="49.32678" lon="-0.46269">
        <ele>10.58650529251</ele>
        <time>2022-02-03T11:47:42.485Z</time>
      </trkpt>
      <trkpt lat="49.32741" lon="-0.46199">
        <ele>11.4957949651</ele>
        <time>2022-02-03T11:47:52.595Z</time>
      </trkpt>
      <trkpt lat="49.32757" lon="-0.46172">
        <ele>12.41686660976</ele>
        <time>2022-02-03T11:48:02.709Z</time>
      </trkpt>
      <trkpt lat="49.32763" lon="-0.46154">
        <ele>13.33820936399</ele>
        <time>2022-02-03T11:48:12.825Z</time>
      </trkpt>
      <trkpt lat="49.3276" lon="-0.46145">
        <ele>14.24818359898</ele>
        <time>2022-02-03T11:48:22.942Z</time>
      </trkpt>
      <trkpt lat="49.3276" lon="-0.46134">
        <ele>15.16462888554</ele>
        <time>2022-02-03T11:48:33.060Z</time>
      </trkpt>
      <trkpt lat="49.32753" lon="-0.46119">
        <ele>16.08849310944</ele>
        <time>2022-02-03T11:48:43.180Z</time>
      </trkpt>
      <trkpt lat="49.32748" lon="-0.46112">
        <ele>17.00792100051</ele>
        <time>2022-02-03T11:48:53.301Z</time>
      </trkpt>
      <trkpt lat="49.32748" lon="-0.46112">
        <ele>17.92160123813</ele>
        <time>2022-02-03T11:49:03.422Z</time>
      </trkpt>
      <trkpt lat="49.32723" lon="-0.46078">
        <ele>18.86971287282</ele>
        <time>2022-02-03T11:49:13.548Z</time>
      </trkpt>
      <trkpt lat="49.32719" lon="-0.46074">
        <ele>19.77633844875</ele>
        <time>2022-02-03T11:49:23.675Z</time>
      </trkpt>
      <trkpt lat="49.32512" lon="-0.45849">
        <ele>20.94300065406</ele>
        <time>2022-02-03T11:49:33.843Z</time>
      </trkpt>
      <trkpt lat="49.32444" lon="-0.45777">
        <ele>21.85735250143</ele>
        <time>2022-02-03T11:49:44.024Z</time>
      </trkpt>
      <trkpt lat="49.32435" lon="-0.45768">
        <ele>22.70564755988</ele>
        <time>2022-02-03T11:49:54.207Z</time>
      </trkpt>
      <trkpt lat="49.32326" lon="-0.45653">
        <ele>23.67052335885</ele>
        <time>2022-02-03T11:50:04.411Z</time>
      </trkpt>
      <trkpt lat="49.32326" lon="-0.45653">
        <ele>24.44444724145</ele>
        <time>2022-02-03T11:50:14.615Z</time>
      </trkpt>
      <trkpt lat="49.32305" lon="-0.45629">
        <ele>25.20394757228</ele>
        <time>2022-02-03T11:50:24.823Z</time>
      </trkpt>
      <trkpt lat="49.32286" lon="-0.45612">
        <ele>25.9274779062</ele>
        <time>2022-02-03T11:50:35.035Z</time>
      </trkpt>
      <trkpt lat="49.32273" lon="-0.45598">
        <ele>26.60071104591</ele>
        <time>2022-02-03T11:50:45.249Z</time>
      </trkpt>
      <trkpt lat="49.32273" lon="-0.45598">
        <ele>27.20807146837</ele>
        <time>2022-02-03T11:50:55.463Z</time>
      </trkpt>
      <trkpt lat="49.32273" lon="-0.45598">
        <ele>28.28599755604</ele>
        <time>2022-02-03T11:51:05.677Z</time>
      </trkpt>
      <trkpt lat="49.32273" lon="-0.45597">
        <ele>29.18154020639</ele>
        <time>2022-02-03T11:51:15.891Z</time>
      </trkpt>
      <trkpt lat="49.32272" lon="-0.45597">
        <ele>29.89960897396</ele>
        <time>2022-02-03T11:51:26.105Z</time>
      </trkpt>
      <trkpt lat="49.32272" lon="-0.45597">
        <ele>30.44959494138</ele>
        <time>2022-02-03T11:51:36.319Z</time>
      </trkpt>
      <trkpt lat="49.32257" lon="-0.45581">
        <ele>30.86228822379</ele>
        <time>2022-02-03T11:51:46.536Z</time>
      </trkpt>
      <trkpt lat="49.32242" lon="-0.45566">
        <ele>31.12492262383</ele>
        <time>2022-02-03T11:51:56.756Z</time>
      </trkpt>
      <trkpt lat="49.32235" lon="-0.45576">
        <ele>31.26104794071</ele>
        <time>2022-02-03T11:52:06.978Z</time>
      </trkpt>
      <trkpt lat="49.32225" lon="-0.45578">
        <ele>31.2937815432</ele>
        <time>2022-02-03T11:52:17.201Z</time>
      </trkpt>
      <trkpt lat="49.3222" lon="-0.45576">
        <ele>31.24127105873</ele>
        <time>2022-02-03T11:52:27.425Z</time>
      </trkpt>
      <trkpt lat="49.32214" lon="-0.4557">
        <ele>31.12103981752</ele>
        <time>2022-02-03T11:52:37.650Z</time>
      </trkpt>
      <trkpt lat="49.3221" lon="-0.45562">
        <ele>30.94948315948</ele>
        <time>2022-02-03T11:52:47.876Z</time>
      </trkpt>
      <trkpt lat="49.32209" lon="-0.45552">
        <ele>30.7415044104</ele>
        <time>2022-02-03T11:52:58.103Z</time>
      </trkpt>
      <trkpt lat="49.32209" lon="-0.45543">
        <ele>30.5102779066</ele>
        <time>2022-02-03T11:53:08.331Z</time>
      </trkpt>
      <trkpt lat="49.32211" lon="-0.45534">
        <ele>30.26712447108</ele>
        <time>2022-02-03T11:53:18.560Z</time>
      </trkpt>
      <trkpt lat="49.32219" lon="-0.45524">
        <ele>30.02148361181</ele>
        <time>2022-02-03T11:53:28.791Z</time>
      </trkpt>
      <trkpt lat="49.32229" lon="-0.4552">
        <ele>29.78096629122</ele>
        <time>2022-02-03T11:53:39.024Z</time>
      </trkpt>
      <trkpt lat="49.32235" lon="-0.45522">
        <ele>29.55147227329</ele>
        <time>2022-02-03T11:53:49.257Z</time>
      </trkpt>
      <trkpt lat="49.32243" lon="-0.45492">
        <ele>29.33735666496</ele>
        <time>2022-02-03T11:53:59.494Z</time>
      </trkpt>
      <trkpt lat="49.32257" lon="-0.45412">
        <ele>29.11190081381</ele>
        <time>2022-02-03T11:54:09.740Z</time>
      </trkpt>
      <trkpt lat="49.32257" lon="-0.45412">
        <ele>28.93722061373</ele>
        <time>2022-02-03T11:54:19.986Z</time>
      </trkpt>
      <trkpt lat="49.32264" lon="-0.4539">
        <ele>28.77710264045</ele>
        <time>2022-02-03T11:54:30.234Z</time>
      </trkpt>
      <trkpt lat="49.32272" lon="-0.45368">
        <ele>28.63974276861</ele>
        <time>2022-02-03T11:54:40.485Z</time>
      </trkpt>
      <trkpt lat="49.32285" lon="-0.45346">
        <ele>28.5152068529</ele>
        <time>2022-02-03T11:54:50.739Z</time>
      </trkpt>
      <trkpt lat="49.32287" lon="-0.45334">
        <ele>28.41196055547</ele>
        <time>2022-02-03T11:55:00.994Z</time>
      </trkpt>
      <trkpt lat="49.32281" lon="-0.45329">
        <ele>28.32675024374</ele>
        <time>2022-02-03T11:55:11.250Z</time>
      </trkpt>
      <trkpt lat="49.32277" lon="-0.4532">
        <ele>28.23878646589</ele>
        <time>2022-02-03T11:55:21.508Z</time>
      </trkpt>
      <trkpt lat="49.32278" lon="-0.4531">
        <ele>28.14190477316</ele>
        <time>2022-02-03T11:55:31.767Z</time>
      </trkpt>
      <trkpt lat="49.32281" lon="-0.45301">
        <ele>28.03044459731</ele>
        <time>2022-02-03T11:55:42.027Z</time>
      </trkpt>
      <trkpt lat="49.32284" lon="-0.45298">
        <ele>27.89780086816</ele>
        <time>2022-02-03T11:55:52.287Z</time>
      </trkpt>
      <trkpt lat="49.32291" lon="-0.45296">
        <ele>27.7356539195</ele>
        <time>2022-02-03T11:56:02.548Z</time>
      </trkpt>
      <trkpt lat="49.32322" lon="-0.4522">
        <ele>27.53415408811</ele>
        <time>2022-02-03T11:56:12.819Z</time>
      </trkpt>
      <trkpt lat="49.32322" lon="-0.4522">
        <ele>27.30994245623</ele>
        <time>2022-02-03T11:56:23.090Z</time>
      </trkpt>
      <trkpt lat="49.32355" lon="-0.45131">
        <ele>26.98733288234</ele>
        <time>2022-02-03T11:56:33.371Z</time>
      </trkpt>
      <trkpt lat="49.32377" lon="-0.45084">
        <ele>26.66791640378</ele>
        <time>2022-02-03T11:56:43.659Z</time>
      </trkpt>
      <trkpt lat="49.32401" lon="-0.45032">
        <ele>26.31387189776</ele>
        <time>2022-02-03T11:56:53.953Z</time>
      </trkpt>
      <trkpt lat="49.32417" lon="-0.44997">
        <ele>25.92480379153</ele>
        <time>2022-02-03T11:57:04.252Z</time>
      </trkpt>
      <trkpt lat="49.32479" lon="-0.44867">
        <ele>25.37905907318</ele>
        <time>2022-02-03T11:57:14.568Z</time>
      </trkpt>
      <trkpt lat="49.32479" lon="-0.44867">
        <ele>24.92357862223</ele>
        <time>2022-02-03T11:57:24.884Z</time>
      </trkpt>
      <trkpt lat="49.32507" lon="-0.44807">
        <ele>24.41594232934</ele>
        <time>2022-02-03T11:57:35.207Z</time>
      </trkpt>
      <trkpt lat="49.32528" lon="-0.44757">
        <ele>23.91770208122</ele>
        <time>2022-02-03T11:57:45.536Z</time>
      </trkpt>
      <trkpt lat="49.32537" lon="-0.44739">
        <ele>23.34847128757</ele>
        <time>2022-02-03T11:57:55.868Z</time>
      </trkpt>
      <trkpt lat="49.32545" lon="-0.44734">
        <ele>22.71192356774</ele>
        <time>2022-02-03T11:58:06.201Z</time>
      </trkpt>
      <trkpt lat="49.32552" lon="-0.44732">
        <ele>22.01339020544</ele>
        <time>2022-02-03T11:58:16.535Z</time>
      </trkpt>
      <trkpt lat="49.32582" lon="-0.4473">
        <ele>21.23006048232</ele>
        <time>2022-02-03T11:58:26.874Z</time>
      </trkpt>
      <trkpt lat="49.32582" lon="-0.4473">
        <ele>20.4203573137</ele>
        <time>2022-02-03T11:58:37.213Z</time>
      </trkpt>
      <trkpt lat="49.32678" lon="-0.44721">
        <ele>19.46970416889</ele>
        <time>2022-02-03T11:58:47.567Z</time>
      </trkpt>
      <trkpt lat="49.32678" lon="-0.44721">
        <ele>18.57106833874</ele>
        <time>2022-02-03T11:58:57.921Z</time>
      </trkpt>
      <trkpt lat="49.32732" lon="-0.44723">
        <ele>17.56715835161</ele>
        <time>2022-02-03T11:59:08.284Z</time>
      </trkpt>
      <trkpt lat="49.32888" lon="-0.44737">
        <ele>16.43311023039</ele>
        <time>2022-02-03T11:59:18.672Z</time>
      </trkpt>
      <trkpt lat="49.32888" lon="-0.44737">
        <ele>15.53115871463</ele>
        <time>2022-02-03T11:59:29.060Z</time>
      </trkpt>
      <trkpt lat="49.32943" lon="-0.4474">
        <ele>14.59232545951</ele>
        <time>2022-02-03T11:59:39.457Z</time>
      </trkpt>
      <trkpt lat="49.32942" lon="-0.44733">
        <ele>13.78833059169</ele>
        <time>2022-02-03T11:59:49.855Z</time>
      </trkpt>
      <trkpt lat="49.32981" lon="-0.44736">
        <ele>13.01399988224</ele>
        <time>2022-02-03T12:00:00.259Z</time>
      </trkpt>
      <trkpt lat="49.32982" lon="-0.44736">
        <ele>12.35553780311</ele>
        <time>2022-02-03T12:00:10.663Z</time>
      </trkpt>
      <trkpt lat="49.32982" lon="-0.44736">
        <ele>11.77315172423</ele>
        <time>2022-02-03T12:00:21.067Z</time>
      </trkpt>
      <trkpt lat="49.32942" lon="-0.44733">
        <ele>13.78833059169</ele>
        <time>2022-02-03T12:00:31.478Z</time>
      </trkpt>
      <trkpt lat="49.32943" lon="-0.4474">
        <ele>10.86167528692</ele>
        <time>2022-02-03T12:00:41.889Z</time>
      </trkpt>
      <trkpt lat="49.33008" lon="-0.44745">
        <ele>10.39800883681</ele>
        <time>2022-02-03T12:00:52.311Z</time>
      </trkpt>
      <trkpt lat="49.33013" lon="-0.44745">
        <ele>10.05186610646</ele>
        <time>2022-02-03T12:01:02.734Z</time>
      </trkpt>
      <trkpt lat="49.33024" lon="-0.44739">
        <ele>9.7376932358</ele>
        <time>2022-02-03T12:01:13.159Z</time>
      </trkpt>
      <trkpt lat="49.33023" lon="-0.44724">
        <ele>9.48177229014</ele>
        <time>2022-02-03T12:01:23.585Z</time>
      </trkpt>
      <trkpt lat="49.33019" lon="-0.44657">
        <ele>9.25345419932</ele>
        <time>2022-02-03T12:01:34.018Z</time>
      </trkpt>
      <trkpt lat="49.33019" lon="-0.44657">
        <ele>9.04478657428</ele>
        <time>2022-02-03T12:01:44.451Z</time>
      </trkpt>
      <trkpt lat="49.32999" lon="-0.44345">
        <ele>8.85130980046</ele>
        <time>2022-02-03T12:01:54.917Z</time>
      </trkpt>
      <trkpt lat="49.32997" lon="-0.44345">
        <ele>8.66508956644</ele>
        <time>2022-02-03T12:02:05.383Z</time>
      </trkpt>
      <trkpt lat="49.32989" lon="-0.44238">
        <ele>8.44971739621</ele>
        <time>2022-02-03T12:02:15.861Z</time>
      </trkpt>
      <trkpt lat="49.32984" lon="-0.44156">
        <ele>8.23154381663</ele>
        <time>2022-02-03T12:02:26.347Z</time>
      </trkpt>
      <trkpt lat="49.32984" lon="-0.44156">
        <ele>8.05228574823</ele>
        <time>2022-02-03T12:02:36.833Z</time>
      </trkpt>
      <trkpt lat="49.32963" lon="-0.43834">
        <ele>7.8526131454</ele>
        <time>2022-02-03T12:02:47.353Z</time>
      </trkpt>
      <trkpt lat="49.32962" lon="-0.43829">
        <ele>7.69234215343</ele>
        <time>2022-02-03T12:02:57.874Z</time>
      </trkpt>
      <trkpt lat="49.32942" lon="-0.43493">
        <ele>7.48197258833</ele>
        <time>2022-02-03T12:03:08.430Z</time>
      </trkpt>
      <trkpt lat="49.32941" lon="-0.43463">
        <ele>7.35331814613</ele>
        <time>2022-02-03T12:03:18.989Z</time>
      </trkpt>
      <trkpt lat="49.32943" lon="-0.43404">
        <ele>7.24493651126</ele>
        <time>2022-02-03T12:03:29.554Z</time>
      </trkpt>
      <trkpt lat="49.32931" lon="-0.43326">
        <ele>7.16947980661</ele>
        <time>2022-02-03T12:03:40.128Z</time>
      </trkpt>
      <trkpt lat="49.32933" lon="-0.43301">
        <ele>7.10976206215</ele>
        <time>2022-02-03T12:03:50.704Z</time>
      </trkpt>
      <trkpt lat="49.32914" lon="-0.43068">
        <ele>7.01339943661</ele>
        <time>2022-02-03T12:04:01.305Z</time>
      </trkpt>
      <trkpt lat="49.32906" lon="-0.42986">
        <ele>7.07068334255</ele>
        <time>2022-02-03T12:04:11.915Z</time>
      </trkpt>
      <trkpt lat="49.32904" lon="-0.4295">
        <ele>7.1241823055</ele>
        <time>2022-02-03T12:04:22.528Z</time>
      </trkpt>
      <trkpt lat="49.32906" lon="-0.42886">
        <ele>7.19947620202</ele>
        <time>2022-02-03T12:04:33.148Z</time>
      </trkpt>
      <trkpt lat="49.32907" lon="-0.42849">
        <ele>7.24946187778</ele>
        <time>2022-02-03T12:04:43.772Z</time>
      </trkpt>
      <trkpt lat="49.3291" lon="-0.42804">
        <ele>7.35120875071</ele>
        <time>2022-02-03T12:04:54.401Z</time>
      </trkpt>
      <trkpt lat="49.3291" lon="-0.42804">
        <ele>7.42135362928</ele>
        <time>2022-02-03T12:05:05.030Z</time>
      </trkpt>
      <trkpt lat="49.32911" lon="-0.4279">
        <ele>7.48284888909</ele>
        <time>2022-02-03T12:05:15.660Z</time>
      </trkpt>
      <trkpt lat="49.3289" lon="-0.42661">
        <ele>7.56143374664</ele>
        <time>2022-02-03T12:05:26.304Z</time>
      </trkpt>
      <trkpt lat="49.3289" lon="-0.42661">
        <ele>7.59052841104</ele>
        <time>2022-02-03T12:05:36.948Z</time>
      </trkpt>
      <trkpt lat="49.3288" lon="-0.4262">
        <ele>7.5887993487</ele>
        <time>2022-02-03T12:05:47.597Z</time>
      </trkpt>
      <trkpt lat="49.32888" lon="-0.42577">
        <ele>7.53688342928</ele>
        <time>2022-02-03T12:05:58.250Z</time>
      </trkpt>
      <trkpt lat="49.32888" lon="-0.42576">
        <ele>7.49790712429</ele>
        <time>2022-02-03T12:06:08.904Z</time>
      </trkpt>
      <trkpt lat="49.32888" lon="-0.42576">
        <ele>7.44020115654</ele>
        <time>2022-02-03T12:06:19.558Z</time>
      </trkpt>
      <trkpt lat="49.32889" lon="-0.42569">
        <ele>7.35912708736</ele>
        <time>2022-02-03T12:06:30.212Z</time>
      </trkpt>
      <trkpt lat="49.32889" lon="-0.42569">
        <ele>7.27022382563</ele>
        <time>2022-02-03T12:06:40.866Z</time>
      </trkpt>
      <trkpt lat="49.32894" lon="-0.42541">
        <ele>7.15686202999</ele>
        <time>2022-02-03T12:06:51.523Z</time>
      </trkpt>
      <trkpt lat="49.32895" lon="-0.42515">
        <ele>7.06184004815</ele>
        <time>2022-02-03T12:07:02.183Z</time>
      </trkpt>
      <trkpt lat="49.32896" lon="-0.42506">
        <ele>6.95215260823</ele>
        <time>2022-02-03T12:07:12.844Z</time>
      </trkpt>
      <trkpt lat="49.32905" lon="-0.42503">
        <ele>6.83456682153</ele>
        <time>2022-02-03T12:07:23.507Z</time>
      </trkpt>
      <trkpt lat="49.32916" lon="-0.42501">
        <ele>6.71975057827</ele>
        <time>2022-02-03T12:07:34.171Z</time>
      </trkpt>
      <trkpt lat="49.32968" lon="-0.42481">
        <ele>6.59085828985</ele>
        <time>2022-02-03T12:07:44.844Z</time>
      </trkpt>
      <trkpt lat="49.3299" lon="-0.42472">
        <ele>6.52440826756</ele>
        <time>2022-02-03T12:07:55.521Z</time>
      </trkpt>
      <trkpt lat="49.33021" lon="-0.42464">
        <ele>6.47859542756</ele>
        <time>2022-02-03T12:08:06.203Z</time>
      </trkpt>
      <trkpt lat="49.33048" lon="-0.42451">
        <ele>6.4585983052</ele>
        <time>2022-02-03T12:08:16.889Z</time>
      </trkpt>
      <trkpt lat="49.33053" lon="-0.42448">
        <ele>6.45434120028</ele>
        <time>2022-02-03T12:08:27.576Z</time>
      </trkpt>
      <trkpt lat="49.33091" lon="-0.42428">
        <ele>6.48792953295</ele>
        <time>2022-02-03T12:08:38.269Z</time>
      </trkpt>
      <trkpt lat="49.33098" lon="-0.42426">
        <ele>6.5222553608</ele>
        <time>2022-02-03T12:08:48.964Z</time>
      </trkpt>
      <trkpt lat="49.33109" lon="-0.42423">
        <ele>6.57279620509</ele>
        <time>2022-02-03T12:08:59.660Z</time>
      </trkpt>
      <trkpt lat="49.33118" lon="-0.42418">
        <ele>6.63162038426</ele>
        <time>2022-02-03T12:09:10.358Z</time>
      </trkpt>
      <trkpt lat="49.33118" lon="-0.42418">
        <ele>6.69679141218</ele>
        <time>2022-02-03T12:09:21.056Z</time>
      </trkpt>
      <trkpt lat="49.33136" lon="-0.42395">
        <ele>6.76859877721</ele>
        <time>2022-02-03T12:09:31.758Z</time>
      </trkpt>
      <trkpt lat="49.3314" lon="-0.42387">
        <ele>6.84498693241</ele>
        <time>2022-02-03T12:09:42.461Z</time>
      </trkpt>
      <trkpt lat="49.33145" lon="-0.42362">
        <ele>6.93527712088</ele>
        <time>2022-02-03T12:09:53.166Z</time>
      </trkpt>
      <trkpt lat="49.33147" lon="-0.42347">
        <ele>7.0220122366</ele>
        <time>2022-02-03T12:10:03.873Z</time>
      </trkpt>
      <trkpt lat="49.33154" lon="-0.42298">
        <ele>7.10489285289</ele>
        <time>2022-02-03T12:10:14.585Z</time>
      </trkpt>
      <trkpt lat="49.33155" lon="-0.42295">
        <ele>7.18065059341</ele>
        <time>2022-02-03T12:10:25.298Z</time>
      </trkpt>
      <trkpt lat="49.33161" lon="-0.42256">
        <ele>7.23651965102</ele>
        <time>2022-02-03T12:10:36.015Z</time>
      </trkpt>
      <trkpt lat="49.33162" lon="-0.42251">
        <ele>7.30822101418</ele>
        <time>2022-02-03T12:10:46.732Z</time>
      </trkpt>
      <trkpt lat="49.33168" lon="-0.42201">
        <ele>7.40451710424</ele>
        <time>2022-02-03T12:10:57.455Z</time>
      </trkpt>
      <trkpt lat="49.33166" lon="-0.42172">
        <ele>7.49231243909</ele>
        <time>2022-02-03T12:11:08.181Z</time>
      </trkpt>
      <trkpt lat="49.33166" lon="-0.42172">
        <ele>7.56024758531</ele>
        <time>2022-02-03T12:11:18.907Z</time>
      </trkpt>
      <trkpt lat="49.33161" lon="-0.41922">
        <ele>7.56441818215</ele>
        <time>2022-02-03T12:11:29.659Z</time>
      </trkpt>
      <trkpt lat="49.33161" lon="-0.41874">
        <ele>7.67055638002</ele>
        <time>2022-02-03T12:11:40.416Z</time>
      </trkpt>
      <trkpt lat="49.33161" lon="-0.41874">
        <ele>7.73582152596</ele>
        <time>2022-02-03T12:11:51.173Z</time>
      </trkpt>
      <trkpt lat="49.3316" lon="-0.41772">
        <ele>7.79425854799</ele>
        <time>2022-02-03T12:12:01.941Z</time>
      </trkpt>
      <trkpt lat="49.33157" lon="-0.41529">
        <ele>7.87803528469</ele>
        <time>2022-02-03T12:12:12.734Z</time>
      </trkpt>
      <trkpt lat="49.33157" lon="-0.41529">
        <ele>7.93444274594</ele>
        <time>2022-02-03T12:12:23.527Z</time>
      </trkpt>
      <trkpt lat="49.33154" lon="-0.4145">
        <ele>7.99265542971</ele>
        <time>2022-02-03T12:12:34.328Z</time>
      </trkpt>
      <trkpt lat="49.33153" lon="-0.41415">
        <ele>8.0334413683</ele>
        <time>2022-02-03T12:12:45.133Z</time>
      </trkpt>
      <trkpt lat="49.33149" lon="-0.41247">
        <ele>8.08308878911</ele>
        <time>2022-02-03T12:12:55.956Z</time>
      </trkpt>
      <trkpt lat="49.33149" lon="-0.41247">
        <ele>8.10118244616</ele>
        <time>2022-02-03T12:13:06.779Z</time>
      </trkpt>
      <trkpt lat="49.33149" lon="-0.41238">
        <ele>8.10644010241</ele>
        <time>2022-02-03T12:13:17.603Z</time>
      </trkpt>
      <trkpt lat="49.33159" lon="-0.41177">
        <ele>8.08371268299</ele>
        <time>2022-02-03T12:13:28.433Z</time>
      </trkpt>
      <trkpt lat="49.33165" lon="-0.41141">
        <ele>8.04934728739</ele>
        <time>2022-02-03T12:13:39.267Z</time>
      </trkpt>
      <trkpt lat="49.3317" lon="-0.41125">
        <ele>8.02127866885</ele>
        <time>2022-02-03T12:13:50.103Z</time>
      </trkpt>
      <trkpt lat="49.33181" lon="-0.4109">
        <ele>7.99469239789</ele>
        <time>2022-02-03T12:14:00.943Z</time>
      </trkpt>
      <trkpt lat="49.33191" lon="-0.41069">
        <ele>7.96230999317</ele>
        <time>2022-02-03T12:14:11.786Z</time>
      </trkpt>
      <trkpt lat="49.33191" lon="-0.41069">
        <ele>7.92044722469</ele>
        <time>2022-02-03T12:14:22.629Z</time>
      </trkpt>
      <trkpt lat="49.33201" lon="-0.41028">
        <ele>7.87041118485</ele>
        <time>2022-02-03T12:14:33.476Z</time>
      </trkpt>
      <trkpt lat="49.33215" lon="-0.40972">
        <ele>7.80124170609</ele>
        <time>2022-02-03T12:14:44.330Z</time>
      </trkpt>
      <trkpt lat="49.33224" lon="-0.409">
        <ele>7.76281613197</ele>
        <time>2022-02-03T12:14:55.191Z</time>
      </trkpt>
      <trkpt lat="49.33226" lon="-0.40805">
        <ele>7.74396400422</ele>
        <time>2022-02-03T12:15:06.062Z</time>
      </trkpt>
      <trkpt lat="49.33226" lon="-0.40762">
        <ele>7.71677508307</ele>
        <time>2022-02-03T12:15:16.938Z</time>
      </trkpt>
      <trkpt lat="49.33223" lon="-0.40708">
        <ele>7.66880282346</ele>
        <time>2022-02-03T12:15:27.819Z</time>
      </trkpt>
      <trkpt lat="49.33219" lon="-0.40673">
        <ele>7.6176690966</ele>
        <time>2022-02-03T12:15:38.704Z</time>
      </trkpt>
      <trkpt lat="49.33215" lon="-0.40647">
        <ele>7.58130664397</ele>
        <time>2022-02-03T12:15:49.592Z</time>
      </trkpt>
      <trkpt lat="49.33211" lon="-0.40618">
        <ele>7.55180012803</ele>
        <time>2022-02-03T12:16:00.483Z</time>
      </trkpt>
      <trkpt lat="49.33206" lon="-0.40599">
        <ele>7.51879965504</ele>
        <time>2022-02-03T12:16:11.376Z</time>
      </trkpt>
      <trkpt lat="49.33205" lon="-0.40598">
        <ele>7.51203169578</ele>
        <time>2022-02-03T12:16:22.269Z</time>
      </trkpt>
      <trkpt lat="49.33205" lon="-0.40598">
        <ele>7.52280730063</ele>
        <time>2022-02-03T12:16:33.162Z</time>
      </trkpt>
      <trkpt lat="49.33201" lon="-0.40584">
        <ele>7.54336442712</ele>
        <time>2022-02-03T12:16:44.057Z</time>
      </trkpt>
      <trkpt lat="49.33195" lon="-0.40568">
        <ele>7.58437505452</ele>
        <time>2022-02-03T12:16:54.954Z</time>
      </trkpt>
      <trkpt lat="49.33168" lon="-0.40528">
        <ele>7.6533271881</ele>
        <time>2022-02-03T12:17:05.857Z</time>
      </trkpt>
      <trkpt lat="49.33132" lon="-0.40495">
        <ele>7.75768921496</ele>
        <time>2022-02-03T12:17:16.767Z</time>
      </trkpt>
      <trkpt lat="49.33071" lon="-0.40436">
        <ele>7.92659347109</ele>
        <time>2022-02-03T12:17:27.688Z</time>
      </trkpt>
      <trkpt lat="49.33018" lon="-0.40381">
        <ele>8.08143295171</ele>
        <time>2022-02-03T12:17:38.619Z</time>
      </trkpt>
      <trkpt lat="49.32972" lon="-0.40317">
        <ele>8.24559996838</ele>
        <time>2022-02-03T12:17:49.560Z</time>
      </trkpt>
      <trkpt lat="49.32927" lon="-0.40238">
        <ele>8.46432488221</ele>
        <time>2022-02-03T12:18:00.512Z</time>
      </trkpt>
      <trkpt lat="49.32904" lon="-0.40186">
        <ele>8.64343405105</ele>
        <time>2022-02-03T12:18:11.471Z</time>
      </trkpt>
      <trkpt lat="49.32891" lon="-0.40153">
        <ele>8.8183055674</ele>
        <time>2022-02-03T12:18:22.434Z</time>
      </trkpt>
      <trkpt lat="49.32876" lon="-0.4012">
        <ele>8.97966935266</ele>
        <time>2022-02-03T12:18:33.401Z</time>
      </trkpt>
      <trkpt lat="49.32855" lon="-0.40039">
        <ele>9.17776003542</ele>
        <time>2022-02-03T12:18:44.377Z</time>
      </trkpt>
      <trkpt lat="49.32837" lon="-0.39956">
        <ele>9.28078955629</ele>
        <time>2022-02-03T12:18:55.362Z</time>
      </trkpt>
      <trkpt lat="49.32826" lon="-0.3989">
        <ele>9.41751449527</ele>
        <time>2022-02-03T12:19:06.355Z</time>
      </trkpt>
      <trkpt lat="49.32825" lon="-0.39884">
        <ele>9.51962229968</ele>
        <time>2022-02-03T12:19:17.348Z</time>
      </trkpt>
      <trkpt lat="49.32819" lon="-0.39852">
        <ele>9.61506521483</ele>
        <time>2022-02-03T12:19:28.345Z</time>
      </trkpt>
      <trkpt lat="49.32818" lon="-0.3984">
        <ele>9.66915125968</ele>
        <time>2022-02-03T12:19:39.343Z</time>
      </trkpt>
      <trkpt lat="49.32813" lon="-0.39823">
        <ele>9.69160085867</ele>
        <time>2022-02-03T12:19:50.343Z</time>
      </trkpt>
      <trkpt lat="49.32796" lon="-0.397">
        <ele>9.72639428686</ele>
        <time>2022-02-03T12:20:01.356Z</time>
      </trkpt>
      <trkpt lat="49.32791" lon="-0.39659">
        <ele>9.65197965711</ele>
        <time>2022-02-03T12:20:12.373Z</time>
      </trkpt>
      <trkpt lat="49.32792" lon="-0.39631">
        <ele>9.57775870026</ele>
        <time>2022-02-03T12:20:23.393Z</time>
      </trkpt>
      <trkpt lat="49.32786" lon="-0.39631">
        <ele>9.52008775733</ele>
        <time>2022-02-03T12:20:34.414Z</time>
      </trkpt>
      <trkpt lat="49.32781" lon="-0.39623">
        <ele>9.46220848505</ele>
        <time>2022-02-03T12:20:45.436Z</time>
      </trkpt>
      <trkpt lat="49.32781" lon="-0.39615">
        <ele>9.40699972678</ele>
        <time>2022-02-03T12:20:56.459Z</time>
      </trkpt>
      <trkpt lat="49.32786" lon="-0.39607">
        <ele>9.35413670099</ele>
        <time>2022-02-03T12:21:07.483Z</time>
      </trkpt>
      <trkpt lat="49.32785" lon="-0.39512">
        <ele>9.32121485069</ele>
        <time>2022-02-03T12:21:18.517Z</time>
      </trkpt>
      <trkpt lat="49.32785" lon="-0.39472">
        <ele>9.26541098411</ele>
        <time>2022-02-03T12:21:29.556Z</time>
      </trkpt>
      <trkpt lat="49.32785" lon="-0.39472">
        <ele>9.24809301526</ele>
        <time>2022-02-03T12:21:40.595Z</time>
      </trkpt>
      <trkpt lat="49.32788" lon="-0.3931">
        <ele>9.19548677321</ele>
        <time>2022-02-03T12:21:51.650Z</time>
      </trkpt>
      <trkpt lat="49.32785" lon="-0.39265">
        <ele>9.24566381319</ele>
        <time>2022-02-03T12:22:02.710Z</time>
      </trkpt>
      <trkpt lat="49.32784" lon="-0.39243">
        <ele>9.30428435833</ele>
        <time>2022-02-03T12:22:13.773Z</time>
      </trkpt>
      <trkpt lat="49.32777" lon="-0.39175">
        <ele>9.3857710733</ele>
        <time>2022-02-03T12:22:24.843Z</time>
      </trkpt>
      <trkpt lat="49.32774" lon="-0.39159">
        <ele>9.46314336776</ele>
        <time>2022-02-03T12:22:35.915Z</time>
      </trkpt>
      <trkpt lat="49.32774" lon="-0.39159">
        <ele>9.54620383123</ele>
        <time>2022-02-03T12:22:46.987Z</time>
      </trkpt>
      <trkpt lat="49.32756" lon="-0.39054">
        <ele>9.66894517003</ele>
        <time>2022-02-03T12:22:58.070Z</time>
      </trkpt>
      <trkpt lat="49.32745" lon="-0.39011">
        <ele>9.74638178534</ele>
        <time>2022-02-03T12:23:09.158Z</time>
      </trkpt>
      <trkpt lat="49.32712" lon="-0.38881">
        <ele>9.80498888734</ele>
        <time>2022-02-03T12:23:20.260Z</time>
      </trkpt>
      <trkpt lat="49.32703" lon="-0.38826">
        <ele>9.86988853263</ele>
        <time>2022-02-03T12:23:31.368Z</time>
      </trkpt>
      <trkpt lat="49.32703" lon="-0.38826">
        <ele>9.87865542069</ele>
        <time>2022-02-03T12:23:42.476Z</time>
      </trkpt>
      <trkpt lat="49.32699" lon="-0.38764">
        <ele>9.83871158891</ele>
        <time>2022-02-03T12:23:53.591Z</time>
      </trkpt>
      <trkpt lat="49.32699" lon="-0.38764">
        <ele>9.78594179576</ele>
        <time>2022-02-03T12:24:04.706Z</time>
      </trkpt>
      <trkpt lat="49.32703" lon="-0.38721">
        <ele>9.65721613838</ele>
        <time>2022-02-03T12:24:15.825Z</time>
      </trkpt>
      <trkpt lat="49.327" lon="-0.3872">
        <ele>9.54667700807</ele>
        <time>2022-02-03T12:24:26.945Z</time>
      </trkpt>
      <trkpt lat="49.32696" lon="-0.38715">
        <ele>9.40733173711</ele>
        <time>2022-02-03T12:24:38.066Z</time>
      </trkpt>
      <trkpt lat="49.32695" lon="-0.38706">
        <ele>9.25645693155</ele>
        <time>2022-02-03T12:24:49.187Z</time>
      </trkpt>
      <trkpt lat="49.32698" lon="-0.38699">
        <ele>9.08905624034</ele>
        <time>2022-02-03T12:25:00.309Z</time>
      </trkpt>
      <trkpt lat="49.32694" lon="-0.38677">
        <ele>8.90857706508</ele>
        <time>2022-02-03T12:25:11.434Z</time>
      </trkpt>
      <trkpt lat="49.32686" lon="-0.3866">
        <ele>8.71881386471</ele>
        <time>2022-02-03T12:25:22.561Z</time>
      </trkpt>
      <trkpt lat="49.32686" lon="-0.3866">
        <ele>8.52407270266</ele>
        <time>2022-02-03T12:25:33.688Z</time>
      </trkpt>
      <trkpt lat="49.32657" lon="-0.38602">
        <ele>8.29145665765</ele>
        <time>2022-02-03T12:25:44.823Z</time>
      </trkpt>
      <trkpt lat="49.32642" lon="-0.38573">
        <ele>8.09743323445</ele>
        <time>2022-02-03T12:25:55.961Z</time>
      </trkpt>
      <trkpt lat="49.32636" lon="-0.38559">
        <ele>7.9250227476</ele>
        <time>2022-02-03T12:26:07.101Z</time>
      </trkpt>
      <trkpt lat="49.32608" lon="-0.38502">
        <ele>7.74524551356</ele>
        <time>2022-02-03T12:26:18.249Z</time>
      </trkpt>
      <trkpt lat="49.32608" lon="-0.38502">
        <ele>7.6162871145</ele>
        <time>2022-02-03T12:26:29.397Z</time>
      </trkpt>
      <trkpt lat="49.32606" lon="-0.38496">
        <ele>7.51187243362</ele>
        <time>2022-02-03T12:26:40.545Z</time>
      </trkpt>
      <trkpt lat="49.32601" lon="-0.38485">
        <ele>7.43463057216</ele>
        <time>2022-02-03T12:26:51.695Z</time>
      </trkpt>
      <trkpt lat="49.32575" lon="-0.38431">
        <ele>7.36483262379</ele>
        <time>2022-02-03T12:27:02.852Z</time>
      </trkpt>
      <trkpt lat="49.32575" lon="-0.38429">
        <ele>7.35811312387</ele>
        <time>2022-02-03T12:27:14.009Z</time>
      </trkpt>
      <trkpt lat="49.32573" lon="-0.38425">
        <ele>7.38090678563</ele>
        <time>2022-02-03T12:27:25.167Z</time>
      </trkpt>
      <trkpt lat="49.32567" lon="-0.38416">
        <ele>7.43893104947</ele>
        <time>2022-02-03T12:27:36.326Z</time>
      </trkpt>
      <trkpt lat="49.32554" lon="-0.38389">
        <ele>7.5353076379</ele>
        <time>2022-02-03T12:27:47.488Z</time>
      </trkpt>
      <trkpt lat="49.32534" lon="-0.38346">
        <ele>7.63912327024</ele>
        <time>2022-02-03T12:27:58.656Z</time>
      </trkpt>
      <trkpt lat="49.32482" lon="-0.3824">
        <ele>7.75208608123</ele>
        <time>2022-02-03T12:28:09.838Z</time>
      </trkpt>
      <trkpt lat="49.32453" lon="-0.3818">
        <ele>7.83232563021</ele>
        <time>2022-02-03T12:28:21.028Z</time>
      </trkpt>
      <trkpt lat="49.32329" lon="-0.37923">
        <ele>7.82756490665</ele>
        <time>2022-02-03T12:28:32.251Z</time>
      </trkpt>
      <trkpt lat="49.32329" lon="-0.37923">
        <ele>7.82998468242</ele>
        <time>2022-02-03T12:28:43.474Z</time>
      </trkpt>
      <trkpt lat="49.323" lon="-0.37865">
        <ele>7.8159408277</ele>
        <time>2022-02-03T12:28:54.705Z</time>
      </trkpt>
      <trkpt lat="49.32254" lon="-0.3777">
        <ele>7.82070614615</ele>
        <time>2022-02-03T12:29:05.948Z</time>
      </trkpt>
      <trkpt lat="49.32191" lon="-0.37644">
        <ele>7.60780549853</ele>
        <time>2022-02-03T12:29:17.208Z</time>
      </trkpt>
      <trkpt lat="49.32189" lon="-0.37641">
        <ele>7.54120620581</ele>
        <time>2022-02-03T12:29:28.468Z</time>
      </trkpt>
      <trkpt lat="49.32189" lon="-0.37641">
        <ele>7.48673373817</ele>
        <time>2022-02-03T12:29:39.728Z</time>
      </trkpt>
      <trkpt lat="49.32175" lon="-0.37615">
        <ele>7.44242553347</ele>
        <time>2022-02-03T12:29:50.992Z</time>
      </trkpt>
      <trkpt lat="49.32166" lon="-0.37603">
        <ele>7.42998773746</ele>
        <time>2022-02-03T12:30:02.258Z</time>
      </trkpt>
      <trkpt lat="49.32153" lon="-0.37592">
        <ele>7.4495371838</ele>
        <time>2022-02-03T12:30:13.526Z</time>
      </trkpt>
      <trkpt lat="49.32144" lon="-0.37576">
        <ele>7.52046952124</ele>
        <time>2022-02-03T12:30:24.796Z</time>
      </trkpt>
      <trkpt lat="49.32144" lon="-0.37576">
        <ele>7.61533575286</ele>
        <time>2022-02-03T12:30:36.066Z</time>
      </trkpt>
      <trkpt lat="49.32126" lon="-0.37553">
        <ele>7.77342047994</ele>
        <time>2022-02-03T12:30:47.340Z</time>
      </trkpt>
      <trkpt lat="49.32076" lon="-0.37481">
        <ele>7.96575809997</ele>
        <time>2022-02-03T12:30:58.625Z</time>
      </trkpt>
      <trkpt lat="49.32047" lon="-0.37432">
        <ele>8.15531998419</ele>
        <time>2022-02-03T12:31:09.917Z</time>
      </trkpt>
      <trkpt lat="49.32015" lon="-0.37382">
        <ele>8.42663537056</ele>
        <time>2022-02-03T12:31:21.216Z</time>
      </trkpt>
      <trkpt lat="49.32007" lon="-0.37374">
        <ele>8.71480882361</ele>
        <time>2022-02-03T12:31:32.517Z</time>
      </trkpt>
      <trkpt lat="49.32007" lon="-0.37374">
        <ele>9.00553949076</ele>
        <time>2022-02-03T12:31:43.818Z</time>
      </trkpt>
      <trkpt lat="49.31991" lon="-0.37366">
        <ele>9.33722671812</ele>
        <time>2022-02-03T12:31:55.121Z</time>
      </trkpt>
      <trkpt lat="49.31977" lon="-0.3736">
        <ele>9.66625946409</ele>
        <time>2022-02-03T12:32:06.427Z</time>
      </trkpt>
      <trkpt lat="49.3196" lon="-0.37344">
        <ele>9.97388170222</ele>
        <time>2022-02-03T12:32:17.736Z</time>
      </trkpt>
      <trkpt lat="49.31949" lon="-0.37332">
        <ele>10.25528260158</ele>
        <time>2022-02-03T12:32:29.047Z</time>
      </trkpt>
      <trkpt lat="49.31937" lon="-0.3732">
        <ele>10.51341432016</ele>
        <time>2022-02-03T12:32:40.360Z</time>
      </trkpt>
      <trkpt lat="49.31942" lon="-0.37282">
        <ele>10.74224951118</ele>
        <time>2022-02-03T12:32:51.678Z</time>
      </trkpt>
      <trkpt lat="49.31919" lon="-0.37223">
        <ele>10.94942912659</ele>
        <time>2022-02-03T12:33:03.003Z</time>
      </trkpt>
      <trkpt lat="49.31919" lon="-0.37223">
        <ele>11.07657180174</ele>
        <time>2022-02-03T12:33:14.328Z</time>
      </trkpt>
      <trkpt lat="49.31852" lon="-0.37049">
        <ele>11.20910442942</ele>
        <time>2022-02-03T12:33:25.674Z</time>
      </trkpt>
      <trkpt lat="49.3184" lon="-0.37031">
        <ele>11.17035964709</ele>
        <time>2022-02-03T12:33:37.023Z</time>
      </trkpt>
      <trkpt lat="49.3184" lon="-0.37031">
        <ele>11.08165526636</ele>
        <time>2022-02-03T12:33:48.372Z</time>
      </trkpt>
      <trkpt lat="49.31772" lon="-0.36924">
        <ele>10.86648196075</ele>
        <time>2022-02-03T12:33:59.736Z</time>
      </trkpt>
      <trkpt lat="49.31693" lon="-0.36827">
        <ele>10.63316263704</ele>
        <time>2022-02-03T12:34:11.116Z</time>
      </trkpt>
      <trkpt lat="49.3152" lon="-0.36633">
        <ele>10.41186785435</ele>
        <time>2022-02-03T12:34:22.531Z</time>
      </trkpt>
      <trkpt lat="49.3152" lon="-0.36633">
        <ele>10.0751762489</ele>
        <time>2022-02-03T12:34:33.946Z</time>
      </trkpt>
      <trkpt lat="49.31418" lon="-0.36505">
        <ele>9.64724193422</ele>
        <time>2022-02-03T12:34:45.382Z</time>
      </trkpt>
      <trkpt lat="49.3137" lon="-0.36461">
        <ele>9.16810361727</ele>
        <time>2022-02-03T12:34:56.827Z</time>
      </trkpt>
      <trkpt lat="49.3137" lon="-0.36461">
        <ele>8.79939253758</ele>
        <time>2022-02-03T12:35:08.272Z</time>
      </trkpt>
      <trkpt lat="49.3137" lon="-0.36461">
        <ele>8.44288145269</ele>
        <time>2022-02-03T12:35:19.717Z</time>
      </trkpt>
      <trkpt lat="49.31369" lon="-0.3646">
        <ele>8.11367869619</ele>
        <time>2022-02-03T12:35:31.162Z</time>
      </trkpt>
      <trkpt lat="49.31369" lon="-0.3646">
        <ele>7.82719879442</ele>
        <time>2022-02-03T12:35:42.607Z</time>
      </trkpt>
      <trkpt lat="49.31363" lon="-0.36454">
        <ele>7.5803645151</ele>
        <time>2022-02-03T12:35:54.053Z</time>
      </trkpt>
      <trkpt lat="49.31347" lon="-0.36436">
        <ele>7.39594867732</ele>
        <time>2022-02-03T12:36:05.502Z</time>
      </trkpt>
      <trkpt lat="49.31338" lon="-0.36419">
        <ele>7.31019530783</ele>
        <time>2022-02-03T12:36:16.954Z</time>
      </trkpt>
      <trkpt lat="49.31306" lon="-0.36374">
        <ele>7.38759601947</ele>
        <time>2022-02-03T12:36:28.413Z</time>
      </trkpt>
      <trkpt lat="49.313" lon="-0.36364">
        <ele>7.51102996945</ele>
        <time>2022-02-03T12:36:39.873Z</time>
      </trkpt>
      <trkpt lat="49.31298" lon="-0.36358">
        <ele>7.72511703594</ele>
        <time>2022-02-03T12:36:51.334Z</time>
      </trkpt>
      <trkpt lat="49.31295" lon="-0.36351">
        <ele>8.02758147125</ele>
        <time>2022-02-03T12:37:02.796Z</time>
      </trkpt>
      <trkpt lat="49.31296" lon="-0.36334">
        <ele>8.40179553797</ele>
        <time>2022-02-03T12:37:14.259Z</time>
      </trkpt>
      <trkpt lat="49.31294" lon="-0.36318">
        <ele>8.83567011369</ele>
        <time>2022-02-03T12:37:25.724Z</time>
      </trkpt>
      <trkpt lat="49.3128" lon="-0.36213">
        <ele>9.33227690347</ele>
        <time>2022-02-03T12:37:37.200Z</time>
      </trkpt>
      <trkpt lat="49.31275" lon="-0.36178">
        <ele>9.78915075927</ele>
        <time>2022-02-03T12:37:48.680Z</time>
      </trkpt>
      <trkpt lat="49.31265" lon="-0.36144">
        <ele>10.23171648362</ele>
        <time>2022-02-03T12:38:00.164Z</time>
      </trkpt>
      <trkpt lat="49.31253" lon="-0.36109">
        <ele>10.6364946537</ele>
        <time>2022-02-03T12:38:11.652Z</time>
      </trkpt>
      <trkpt lat="49.31252" lon="-0.36109">
        <ele>10.94345095568</ele>
        <time>2022-02-03T12:38:23.140Z</time>
      </trkpt>
      <trkpt lat="49.31252" lon="-0.36108">
        <ele>11.19648371019</ele>
        <time>2022-02-03T12:38:34.628Z</time>
      </trkpt>
      <trkpt lat="49.31252" lon="-0.36107">
        <ele>11.38752229139</ele>
        <time>2022-02-03T12:38:46.116Z</time>
      </trkpt>
      <trkpt lat="49.31252" lon="-0.36107">
        <ele>11.51157885071</ele>
        <time>2022-02-03T12:38:57.604Z</time>
      </trkpt>
      <trkpt lat="49.31248" lon="-0.36095">
        <ele>11.58209269791</ele>
        <time>2022-02-03T12:39:09.094Z</time>
      </trkpt>
      <trkpt lat="49.31313" lon="-0.36034">
        <ele>11.53301633259</ele>
        <time>2022-02-03T12:39:20.596Z</time>
      </trkpt>
      <trkpt lat="49.31338" lon="-0.3601">
        <ele>11.49668035928</ele>
        <time>2022-02-03T12:39:32.103Z</time>
      </trkpt>
      <trkpt lat="49.31381" lon="-0.35972">
        <ele>11.43139041437</ele>
        <time>2022-02-03T12:39:43.618Z</time>
      </trkpt>
      <trkpt lat="49.31425" lon="-0.35931">
        <ele>11.3953231109</ele>
        <time>2022-02-03T12:39:55.141Z</time>
      </trkpt>
      <trkpt lat="49.31425" lon="-0.35931">
        <ele>11.37157736473</ele>
        <time>2022-02-03T12:40:06.664Z</time>
      </trkpt>
      <trkpt lat="49.31477" lon="-0.35883">
        <ele>11.36345110102</ele>
        <time>2022-02-03T12:40:18.197Z</time>
      </trkpt>
      <trkpt lat="49.31498" lon="-0.35863">
        <ele>11.34524751304</ele>
        <time>2022-02-03T12:40:29.734Z</time>
      </trkpt>
      <trkpt lat="49.3153" lon="-0.35834">
        <ele>11.32488181635</ele>
        <time>2022-02-03T12:40:41.277Z</time>
      </trkpt>
      <trkpt lat="49.3153" lon="-0.35834">
        <ele>11.27755072143</ele>
        <time>2022-02-03T12:40:52.820Z</time>
      </trkpt>
      <trkpt lat="49.31597" lon="-0.35771">
        <ele>11.21862140032</ele>
        <time>2022-02-03T12:41:04.375Z</time>
      </trkpt>
      <trkpt lat="49.31662" lon="-0.35706">
        <ele>11.37933217285</ele>
        <time>2022-02-03T12:41:15.943Z</time>
      </trkpt>
      <trkpt lat="49.31662" lon="-0.35702">
        <ele>11.45922888018</ele>
        <time>2022-02-03T12:41:27.511Z</time>
      </trkpt>
      <trkpt lat="49.31662" lon="-0.35702">
        <ele>11.53258470888</ele>
        <time>2022-02-03T12:41:39.079Z</time>
      </trkpt>
      <trkpt lat="49.31664" lon="-0.35698">
        <ele>11.60469932492</ele>
        <time>2022-02-03T12:41:50.648Z</time>
      </trkpt>
      <trkpt lat="49.31667" lon="-0.35699">
        <ele>11.17344526029</ele>
        <time>2022-02-03T12:42:02.217Z</time>
      </trkpt>
      <trkpt lat="49.31667" lon="-0.35699">
        <ele>11.14908693483</ele>
        <time>2022-02-03T12:42:13.786Z</time>
      </trkpt>
      <trkpt lat="49.31668" lon="-0.35706">
        <ele>11.1099820184</ele>
        <time>2022-02-03T12:42:25.356Z</time>
      </trkpt>
      <trkpt lat="49.31668" lon="-0.35706">
        <ele>11.06614879635</ele>
        <time>2022-02-03T12:42:36.926Z</time>
      </trkpt>
      <trkpt lat="49.31667" lon="-0.35707">
        <ele>11.19922031393</ele>
        <time>2022-02-03T12:42:48.496Z</time>
      </trkpt>
      <trkpt lat="49.31668" lon="-0.35721">
        <ele>10.95450763865</ele>
        <time>2022-02-03T12:43:00.067Z</time>
      </trkpt>
      <trkpt lat="49.31668" lon="-0.35721">
        <ele>10.83480315757</ele>
        <time>2022-02-03T12:43:11.638Z</time>
      </trkpt>
      <trkpt lat="49.31679" lon="-0.35759">
        <ele>10.6705732134</ele>
        <time>2022-02-03T12:43:23.214Z</time>
      </trkpt>
      <trkpt lat="49.31682" lon="-0.35758">
        <ele>10.61962514371</ele>
        <time>2022-02-03T12:43:34.790Z</time>
      </trkpt>
    </trkseg>
  </trk>
</gpx>